<?xml version="1.0" encoding="UTF-8" standalone="no" ?>
<gpx xmlns="http://www.topografix.com/GPX/1/1" xmlns:xsi="http://www.w3.org/2001/XMLSchema-instance" xsi:schemaLocation="http://www.topografix.com/GPX/1/1 http://www.topografix.com/GPX/1/1/gpx.xsd" version="1.1" creator="VisuGPX - https://www.visugpx.com">
  <metadata>
    <name>Bart, Montenois, Arcey, Saint Julien</name>
    <desc><![CDATA[Bart, Montenois, Arcey, Saint Julien]]></desc>
  </metadata>
  <trk>
    <name><![CDATA[Path Segment 1]]></name>
    <trkseg>
      <trkpt lat="47.51527" lon="6.77338">
        <ele>443</ele>
        <time>2014-03-30T08:17:54.212Z</time>
      </trkpt>
      <trkpt lat="47.51488" lon="6.77248">
        <ele>429</ele>
        <time>2014-03-30T08:18:04.205Z</time>
      </trkpt>
      <trkpt lat="47.51482" lon="6.77202">
        <ele>426</ele>
        <time>2014-03-30T08:18:09.130Z</time>
      </trkpt>
      <trkpt lat="47.51451" lon="6.772">
        <ele>427</ele>
        <time>2014-03-30T08:18:14.205Z</time>
      </trkpt>
      <trkpt lat="47.51416" lon="6.77219">
        <ele>429</ele>
        <time>2014-03-30T08:18:19.138Z</time>
      </trkpt>
      <trkpt lat="47.51391" lon="6.77233">
        <ele>430</ele>
        <time>2014-03-30T08:18:24.192Z</time>
      </trkpt>
      <trkpt lat="47.51371" lon="6.77245">
        <ele>431</ele>
        <time>2014-03-30T08:18:29.117Z</time>
      </trkpt>
      <trkpt lat="47.51355" lon="6.7726">
        <ele>432</ele>
        <time>2014-03-30T08:18:34.205Z</time>
      </trkpt>
      <trkpt lat="47.51341" lon="6.77272">
        <ele>434</ele>
        <time>2014-03-30T08:18:39.135Z</time>
      </trkpt>
      <trkpt lat="47.51325" lon="6.77278">
        <ele>434</ele>
        <time>2014-03-30T08:18:44.141Z</time>
      </trkpt>
      <trkpt lat="47.51307" lon="6.77273">
        <ele>435</ele>
        <time>2014-03-30T08:18:49.206Z</time>
      </trkpt>
      <trkpt lat="47.5129" lon="6.77264">
        <ele>436</ele>
        <time>2014-03-30T08:18:54.129Z</time>
      </trkpt>
      <trkpt lat="47.51272" lon="6.77254">
        <ele>437</ele>
        <time>2014-03-30T08:18:59.204Z</time>
      </trkpt>
      <trkpt lat="47.5121" lon="6.77147">
        <ele>438</ele>
        <time>2014-03-30T08:19:19.138Z</time>
      </trkpt>
      <trkpt lat="47.51193" lon="6.77115">
        <ele>437</ele>
        <time>2014-03-30T08:19:24.205Z</time>
      </trkpt>
      <trkpt lat="47.51175" lon="6.77079">
        <ele>437</ele>
        <time>2014-03-30T08:19:29.140Z</time>
      </trkpt>
      <trkpt lat="47.51151" lon="6.77048">
        <ele>437</ele>
        <time>2014-03-30T08:19:34.173Z</time>
      </trkpt>
      <trkpt lat="47.51123" lon="6.77023">
        <ele>437</ele>
        <time>2014-03-30T08:19:39.134Z</time>
      </trkpt>
      <trkpt lat="47.51098" lon="6.77002">
        <ele>437</ele>
        <time>2014-03-30T08:19:44.211Z</time>
      </trkpt>
      <trkpt lat="47.51077" lon="6.76984">
        <ele>437</ele>
        <time>2014-03-30T08:19:49.133Z</time>
      </trkpt>
      <trkpt lat="47.51054" lon="6.76963">
        <ele>437</ele>
        <time>2014-03-30T08:19:54.207Z</time>
      </trkpt>
      <trkpt lat="47.50969" lon="6.76891">
        <ele>436</ele>
        <time>2014-03-30T08:20:16.331Z</time>
      </trkpt>
      <trkpt lat="47.50948" lon="6.76878">
        <ele>436</ele>
        <time>2014-03-30T08:20:19.124Z</time>
      </trkpt>
      <trkpt lat="47.5093" lon="6.76857">
        <ele>437</ele>
        <time>2014-03-30T08:20:24.180Z</time>
      </trkpt>
      <trkpt lat="47.50916" lon="6.76834">
        <ele>437</ele>
        <time>2014-03-30T08:20:29.136Z</time>
      </trkpt>
      <trkpt lat="47.50906" lon="6.76807">
        <ele>437</ele>
        <time>2014-03-30T08:20:34.208Z</time>
      </trkpt>
      <trkpt lat="47.50896" lon="6.76781">
        <ele>438</ele>
        <time>2014-03-30T08:20:39.306Z</time>
      </trkpt>
      <trkpt lat="47.50886" lon="6.76757">
        <ele>438</ele>
        <time>2014-03-30T08:20:44.214Z</time>
      </trkpt>
      <trkpt lat="47.50879" lon="6.76733">
        <ele>438</ele>
        <time>2014-03-30T08:20:49.130Z</time>
      </trkpt>
      <trkpt lat="47.50872" lon="6.76709">
        <ele>438</ele>
        <time>2014-03-30T08:20:54.211Z</time>
      </trkpt>
      <trkpt lat="47.50827" lon="6.766">
        <ele>443</ele>
        <time>2014-03-30T08:21:19.137Z</time>
      </trkpt>
      <trkpt lat="47.50817" lon="6.76594">
        <ele>445</ele>
        <time>2014-03-30T08:21:24.200Z</time>
      </trkpt>
      <trkpt lat="47.50808" lon="6.76583">
        <ele>446</ele>
        <time>2014-03-30T08:21:29.128Z</time>
      </trkpt>
      <trkpt lat="47.50794" lon="6.76589">
        <ele>447</ele>
        <time>2014-03-30T08:21:34.192Z</time>
      </trkpt>
      <trkpt lat="47.50783" lon="6.76591">
        <ele>448</ele>
        <time>2014-03-30T08:21:39.214Z</time>
      </trkpt>
      <trkpt lat="47.50766" lon="6.76595">
        <ele>449</ele>
        <time>2014-03-30T08:21:44.140Z</time>
      </trkpt>
      <trkpt lat="47.50749" lon="6.76596">
        <ele>450</ele>
        <time>2014-03-30T08:21:49.208Z</time>
      </trkpt>
      <trkpt lat="47.50733" lon="6.76593">
        <ele>450</ele>
        <time>2014-03-30T08:21:54.130Z</time>
      </trkpt>
      <trkpt lat="47.50716" lon="6.7659">
        <ele>450</ele>
        <time>2014-03-30T08:21:59.208Z</time>
      </trkpt>
      <trkpt lat="47.50681" lon="6.76589">
        <ele>452</ele>
        <time>2014-03-30T08:22:09.210Z</time>
      </trkpt>
      <trkpt lat="47.50665" lon="6.76592">
        <ele>453</ele>
        <time>2014-03-30T08:22:14.126Z</time>
      </trkpt>
      <trkpt lat="47.50649" lon="6.76598">
        <ele>453</ele>
        <time>2014-03-30T08:22:19.208Z</time>
      </trkpt>
      <trkpt lat="47.50634" lon="6.76606">
        <ele>454</ele>
        <time>2014-03-30T08:22:24.130Z</time>
      </trkpt>
      <trkpt lat="47.50619" lon="6.76615">
        <ele>454</ele>
        <time>2014-03-30T08:22:29.205Z</time>
      </trkpt>
      <trkpt lat="47.50603" lon="6.76621">
        <ele>456</ele>
        <time>2014-03-30T08:22:34.129Z</time>
      </trkpt>
      <trkpt lat="47.50588" lon="6.76626">
        <ele>456</ele>
        <time>2014-03-30T08:22:39.179Z</time>
      </trkpt>
      <trkpt lat="47.50574" lon="6.76631">
        <ele>457</ele>
        <time>2014-03-30T08:22:44.140Z</time>
      </trkpt>
      <trkpt lat="47.50559" lon="6.76635">
        <ele>457</ele>
        <time>2014-03-30T08:22:49.207Z</time>
      </trkpt>
      <trkpt lat="47.50543" lon="6.76639">
        <ele>457</ele>
        <time>2014-03-30T08:22:54.130Z</time>
      </trkpt>
      <trkpt lat="47.50439" lon="6.76675">
        <ele>457</ele>
        <time>2014-03-30T08:23:19.209Z</time>
      </trkpt>
      <trkpt lat="47.50419" lon="6.76684">
        <ele>457</ele>
        <time>2014-03-30T08:23:24.148Z</time>
      </trkpt>
      <trkpt lat="47.50397" lon="6.76692">
        <ele>458</ele>
        <time>2014-03-30T08:23:29.212Z</time>
      </trkpt>
      <trkpt lat="47.50376" lon="6.76702">
        <ele>457</ele>
        <time>2014-03-30T08:23:34.138Z</time>
      </trkpt>
      <trkpt lat="47.50355" lon="6.76711">
        <ele>458</ele>
        <time>2014-03-30T08:23:39.211Z</time>
      </trkpt>
      <trkpt lat="47.50334" lon="6.7672">
        <ele>458</ele>
        <time>2014-03-30T08:23:44.140Z</time>
      </trkpt>
      <trkpt lat="47.50314" lon="6.76727">
        <ele>458</ele>
        <time>2014-03-30T08:23:49.141Z</time>
      </trkpt>
      <trkpt lat="47.50294" lon="6.76734">
        <ele>458</ele>
        <time>2014-03-30T08:23:54.213Z</time>
      </trkpt>
      <trkpt lat="47.50274" lon="6.76737">
        <ele>458</ele>
        <time>2014-03-30T08:23:59.133Z</time>
      </trkpt>
      <trkpt lat="47.50256" lon="6.76743">
        <ele>459</ele>
        <time>2014-03-30T08:24:04.215Z</time>
      </trkpt>
      <trkpt lat="47.50242" lon="6.76734">
        <ele>459</ele>
        <time>2014-03-30T08:24:09.134Z</time>
      </trkpt>
      <trkpt lat="47.50232" lon="6.76715">
        <ele>459</ele>
        <time>2014-03-30T08:24:14.216Z</time>
      </trkpt>
      <trkpt lat="47.50224" lon="6.76693">
        <ele>458</ele>
        <time>2014-03-30T08:24:19.139Z</time>
      </trkpt>
      <trkpt lat="47.50215" lon="6.76665">
        <ele>458</ele>
        <time>2014-03-30T08:24:24.208Z</time>
      </trkpt>
      <trkpt lat="47.50206" lon="6.76635">
        <ele>457</ele>
        <time>2014-03-30T08:24:29.140Z</time>
      </trkpt>
      <trkpt lat="47.50197" lon="6.76607">
        <ele>458</ele>
        <time>2014-03-30T08:24:34.208Z</time>
      </trkpt>
      <trkpt lat="47.50196" lon="6.76591">
        <ele>458</ele>
        <time>2014-03-30T08:24:39.132Z</time>
      </trkpt>
      <trkpt lat="47.50194" lon="6.76576">
        <ele>458</ele>
        <time>2014-03-30T08:24:44.192Z</time>
      </trkpt>
      <trkpt lat="47.50206" lon="6.76568">
        <ele>457</ele>
        <time>2014-03-30T08:24:49.128Z</time>
      </trkpt>
      <trkpt lat="47.50218" lon="6.76541">
        <ele>455</ele>
        <time>2014-03-30T08:24:54.213Z</time>
      </trkpt>
      <trkpt lat="47.50205" lon="6.76499">
        <ele>452</ele>
        <time>2014-03-30T08:24:59.138Z</time>
      </trkpt>
      <trkpt lat="47.50186" lon="6.76432">
        <ele>450</ele>
        <time>2014-03-30T08:25:04.204Z</time>
      </trkpt>
      <trkpt lat="47.50169" lon="6.76367">
        <ele>450</ele>
        <time>2014-03-30T08:25:09.123Z</time>
      </trkpt>
      <trkpt lat="47.50155" lon="6.76314">
        <ele>450</ele>
        <time>2014-03-30T08:25:14.205Z</time>
      </trkpt>
      <trkpt lat="47.5014" lon="6.76255">
        <ele>451</ele>
        <time>2014-03-30T08:25:19.128Z</time>
      </trkpt>
      <trkpt lat="47.50129" lon="6.76197">
        <ele>451</ele>
        <time>2014-03-30T08:25:24.205Z</time>
      </trkpt>
      <trkpt lat="47.50118" lon="6.76131">
        <ele>450</ele>
        <time>2014-03-30T08:25:29.133Z</time>
      </trkpt>
      <trkpt lat="47.50106" lon="6.76059">
        <ele>448</ele>
        <time>2014-03-30T08:25:34.174Z</time>
      </trkpt>
      <trkpt lat="47.50093" lon="6.75996">
        <ele>448</ele>
        <time>2014-03-30T08:25:39.140Z</time>
      </trkpt>
      <trkpt lat="47.50073" lon="6.75945">
        <ele>448</ele>
        <time>2014-03-30T08:25:44.204Z</time>
      </trkpt>
      <trkpt lat="47.50046" lon="6.75906">
        <ele>446</ele>
        <time>2014-03-30T08:25:49.134Z</time>
      </trkpt>
      <trkpt lat="47.5002" lon="6.75871">
        <ele>448</ele>
        <time>2014-03-30T08:25:54.209Z</time>
      </trkpt>
      <trkpt lat="47.49993" lon="6.75828">
        <ele>448</ele>
        <time>2014-03-30T08:25:59.134Z</time>
      </trkpt>
      <trkpt lat="47.49966" lon="6.75787">
        <ele>443</ele>
        <time>2014-03-30T08:26:04.210Z</time>
      </trkpt>
      <trkpt lat="47.4994" lon="6.75742">
        <ele>440</ele>
        <time>2014-03-30T08:26:09.139Z</time>
      </trkpt>
      <trkpt lat="47.4992" lon="6.75717">
        <ele>437</ele>
        <time>2014-03-30T08:26:14.206Z</time>
      </trkpt>
      <trkpt lat="47.49894" lon="6.75707">
        <ele>435</ele>
        <time>2014-03-30T08:26:19.140Z</time>
      </trkpt>
      <trkpt lat="47.49865" lon="6.75713">
        <ele>434</ele>
        <time>2014-03-30T08:26:24.206Z</time>
      </trkpt>
      <trkpt lat="47.49824" lon="6.75726">
        <ele>432</ele>
        <time>2014-03-30T08:26:29.127Z</time>
      </trkpt>
      <trkpt lat="47.49774" lon="6.75744">
        <ele>427</ele>
        <time>2014-03-30T08:26:34.206Z</time>
      </trkpt>
      <trkpt lat="47.49726" lon="6.75759">
        <ele>422</ele>
        <time>2014-03-30T08:26:39.135Z</time>
      </trkpt>
      <trkpt lat="47.49686" lon="6.75772">
        <ele>416</ele>
        <time>2014-03-30T08:26:44.207Z</time>
      </trkpt>
      <trkpt lat="47.49651" lon="6.75775">
        <ele>415</ele>
        <time>2014-03-30T08:26:49.138Z</time>
      </trkpt>
      <trkpt lat="47.49619" lon="6.7577">
        <ele>412</ele>
        <time>2014-03-30T08:26:54.208Z</time>
      </trkpt>
      <trkpt lat="47.49583" lon="6.75772">
        <ele>408</ele>
        <time>2014-03-30T08:26:59.137Z</time>
      </trkpt>
      <trkpt lat="47.49559" lon="6.75757">
        <ele>402</ele>
        <time>2014-03-30T08:27:04.187Z</time>
      </trkpt>
      <trkpt lat="47.49559" lon="6.75739">
        <ele>397</ele>
        <time>2014-03-30T08:27:09.144Z</time>
      </trkpt>
      <trkpt lat="47.49596" lon="6.75688">
        <ele>389</ele>
        <time>2014-03-30T08:27:19.123Z</time>
      </trkpt>
      <trkpt lat="47.49578" lon="6.7566">
        <ele>386</ele>
        <time>2014-03-30T08:27:24.204Z</time>
      </trkpt>
      <trkpt lat="47.49555" lon="6.75683">
        <ele>383</ele>
        <time>2014-03-30T08:27:29.136Z</time>
      </trkpt>
      <trkpt lat="47.49533" lon="6.75711">
        <ele>382</ele>
        <time>2014-03-30T08:27:34.206Z</time>
      </trkpt>
      <trkpt lat="47.49506" lon="6.75731">
        <ele>381</ele>
        <time>2014-03-30T08:27:39.091Z</time>
      </trkpt>
      <trkpt lat="47.49481" lon="6.75734">
        <ele>380</ele>
        <time>2014-03-30T08:27:44.124Z</time>
      </trkpt>
      <trkpt lat="47.49467" lon="6.75701">
        <ele>378</ele>
        <time>2014-03-30T08:27:49.205Z</time>
      </trkpt>
      <trkpt lat="47.49448" lon="6.75696">
        <ele>377</ele>
        <time>2014-03-30T08:27:54.190Z</time>
      </trkpt>
      <trkpt lat="47.49434" lon="6.75673">
        <ele>376</ele>
        <time>2014-03-30T08:27:59.133Z</time>
      </trkpt>
      <trkpt lat="47.49387" lon="6.75695">
        <ele>377</ele>
        <time>2014-03-30T08:28:09.132Z</time>
      </trkpt>
      <trkpt lat="47.49363" lon="6.75714">
        <ele>378</ele>
        <time>2014-03-30T08:28:14.215Z</time>
      </trkpt>
      <trkpt lat="47.49353" lon="6.75721">
        <ele>379</ele>
        <time>2014-03-30T08:28:19.142Z</time>
      </trkpt>
      <trkpt lat="47.49333" lon="6.75738">
        <ele>378</ele>
        <time>2014-03-30T08:28:24.208Z</time>
      </trkpt>
      <trkpt lat="47.49304" lon="6.75763">
        <ele>377</ele>
        <time>2014-03-30T08:28:29.141Z</time>
      </trkpt>
      <trkpt lat="47.49279" lon="6.75792">
        <ele>377</ele>
        <time>2014-03-30T08:28:34.211Z</time>
      </trkpt>
      <trkpt lat="47.49253" lon="6.75827">
        <ele>376</ele>
        <time>2014-03-30T08:28:39.130Z</time>
      </trkpt>
      <trkpt lat="47.49229" lon="6.75863">
        <ele>376</ele>
        <time>2014-03-30T08:28:44.209Z</time>
      </trkpt>
      <trkpt lat="47.49215" lon="6.75902">
        <ele>376</ele>
        <time>2014-03-30T08:28:49.138Z</time>
      </trkpt>
      <trkpt lat="47.4921" lon="6.75928">
        <ele>376</ele>
        <time>2014-03-30T08:28:54.244Z</time>
      </trkpt>
      <trkpt lat="47.49137" lon="6.76132">
        <ele>377</ele>
        <time>2014-03-30T08:29:19.216Z</time>
      </trkpt>
      <trkpt lat="47.4913" lon="6.76171">
        <ele>377</ele>
        <time>2014-03-30T08:29:24.129Z</time>
      </trkpt>
      <trkpt lat="47.49128" lon="6.76211">
        <ele>377</ele>
        <time>2014-03-30T08:29:29.206Z</time>
      </trkpt>
      <trkpt lat="47.49129" lon="6.76258">
        <ele>377</ele>
        <time>2014-03-30T08:29:34.139Z</time>
      </trkpt>
      <trkpt lat="47.49128" lon="6.76303">
        <ele>379</ele>
        <time>2014-03-30T08:29:39.208Z</time>
      </trkpt>
      <trkpt lat="47.49129" lon="6.76344">
        <ele>378</ele>
        <time>2014-03-30T08:29:44.213Z</time>
      </trkpt>
      <trkpt lat="47.4913" lon="6.76384">
        <ele>377</ele>
        <time>2014-03-30T08:29:49.137Z</time>
      </trkpt>
      <trkpt lat="47.49122" lon="6.7643">
        <ele>378</ele>
        <time>2014-03-30T08:29:54.213Z</time>
      </trkpt>
      <trkpt lat="47.49161" lon="6.76509">
        <ele>377</ele>
        <time>2014-03-30T08:30:09.563Z</time>
      </trkpt>
      <trkpt lat="47.49179" lon="6.7649">
        <ele>378</ele>
        <time>2014-03-30T08:30:14.207Z</time>
      </trkpt>
      <trkpt lat="47.49172" lon="6.76471">
        <ele>377</ele>
        <time>2014-03-30T08:30:19.128Z</time>
      </trkpt>
      <trkpt lat="47.4917" lon="6.76468">
        <ele>377</ele>
        <time>2014-03-30T08:30:24.202Z</time>
      </trkpt>
      <trkpt lat="47.4917" lon="6.76468">
        <ele>377</ele>
        <time>2014-03-30T08:30:29.130Z</time>
      </trkpt>
      <trkpt lat="47.4917" lon="6.76468">
        <ele>377</ele>
        <time>2014-03-30T08:30:34.205Z</time>
      </trkpt>
      <trkpt lat="47.4917" lon="6.76468">
        <ele>377</ele>
        <time>2014-03-30T08:30:39.135Z</time>
      </trkpt>
      <trkpt lat="47.4917" lon="6.76468">
        <ele>377</ele>
        <time>2014-03-30T08:30:44.345Z</time>
      </trkpt>
      <trkpt lat="47.4917" lon="6.76468">
        <ele>377</ele>
        <time>2014-03-30T08:30:49.207Z</time>
      </trkpt>
      <trkpt lat="47.4917" lon="6.76468">
        <ele>377</ele>
        <time>2014-03-30T08:30:54.134Z</time>
      </trkpt>
      <trkpt lat="47.4917" lon="6.76468">
        <ele>377</ele>
        <time>2014-03-30T08:31:14.102Z</time>
      </trkpt>
      <trkpt lat="47.4917" lon="6.76468">
        <ele>377</ele>
        <time>2014-03-30T08:31:19.208Z</time>
      </trkpt>
      <trkpt lat="47.4917" lon="6.76468">
        <ele>377</ele>
        <time>2014-03-30T08:31:24.130Z</time>
      </trkpt>
      <trkpt lat="47.4917" lon="6.76468">
        <ele>377</ele>
        <time>2014-03-30T08:31:29.207Z</time>
      </trkpt>
      <trkpt lat="47.4917" lon="6.76468">
        <ele>377</ele>
        <time>2014-03-30T08:31:34.126Z</time>
      </trkpt>
      <trkpt lat="47.4917" lon="6.76467">
        <ele>377</ele>
        <time>2014-03-30T08:31:39.207Z</time>
      </trkpt>
      <trkpt lat="47.4917" lon="6.76467">
        <ele>377</ele>
        <time>2014-03-30T08:31:44.141Z</time>
      </trkpt>
      <trkpt lat="47.4917" lon="6.76467">
        <ele>377</ele>
        <time>2014-03-30T08:31:54.127Z</time>
      </trkpt>
      <trkpt lat="47.4917" lon="6.76467">
        <ele>377</ele>
        <time>2014-03-30T08:31:59.208Z</time>
      </trkpt>
      <trkpt lat="47.4917" lon="6.76467">
        <ele>377</ele>
        <time>2014-03-30T08:32:04.127Z</time>
      </trkpt>
      <trkpt lat="47.4917" lon="6.76467">
        <ele>377</ele>
        <time>2014-03-30T08:32:09.210Z</time>
      </trkpt>
      <trkpt lat="47.4917" lon="6.76467">
        <ele>377</ele>
        <time>2014-03-30T08:32:14.125Z</time>
      </trkpt>
      <trkpt lat="47.4917" lon="6.76467">
        <ele>377</ele>
        <time>2014-03-30T08:32:19.205Z</time>
      </trkpt>
      <trkpt lat="47.4917" lon="6.76467">
        <ele>377</ele>
        <time>2014-03-30T08:32:24.132Z</time>
      </trkpt>
      <trkpt lat="47.4917" lon="6.76467">
        <ele>377</ele>
        <time>2014-03-30T08:32:29.207Z</time>
      </trkpt>
      <trkpt lat="47.4917" lon="6.76467">
        <ele>377</ele>
        <time>2014-03-30T08:32:34.131Z</time>
      </trkpt>
      <trkpt lat="47.4917" lon="6.76467">
        <ele>377</ele>
        <time>2014-03-30T08:32:39.191Z</time>
      </trkpt>
      <trkpt lat="47.4917" lon="6.76467">
        <ele>377</ele>
        <time>2014-03-30T08:32:44.126Z</time>
      </trkpt>
      <trkpt lat="47.4917" lon="6.76467">
        <ele>377</ele>
        <time>2014-03-30T08:32:49.192Z</time>
      </trkpt>
      <trkpt lat="47.4917" lon="6.76467">
        <ele>377</ele>
        <time>2014-03-30T08:32:54.132Z</time>
      </trkpt>
      <trkpt lat="47.4917" lon="6.76467">
        <ele>377</ele>
        <time>2014-03-30T08:32:59.207Z</time>
      </trkpt>
      <trkpt lat="47.4917" lon="6.76467">
        <ele>377</ele>
        <time>2014-03-30T08:33:04.127Z</time>
      </trkpt>
      <trkpt lat="47.49172" lon="6.76463">
        <ele>377</ele>
        <time>2014-03-30T08:33:09.122Z</time>
      </trkpt>
      <trkpt lat="47.49175" lon="6.76479">
        <ele>377</ele>
        <time>2014-03-30T08:33:14.187Z</time>
      </trkpt>
      <trkpt lat="47.49174" lon="6.76494">
        <ele>378</ele>
        <time>2014-03-30T08:33:19.137Z</time>
      </trkpt>
      <trkpt lat="47.4916" lon="6.76503">
        <ele>377</ele>
        <time>2014-03-30T08:33:24.210Z</time>
      </trkpt>
      <trkpt lat="47.49136" lon="6.76518">
        <ele>376</ele>
        <time>2014-03-30T08:33:29.127Z</time>
      </trkpt>
      <trkpt lat="47.49119" lon="6.76507">
        <ele>375</ele>
        <time>2014-03-30T08:33:34.204Z</time>
      </trkpt>
      <trkpt lat="47.49124" lon="6.76479">
        <ele>373</ele>
        <time>2014-03-30T08:33:39.124Z</time>
      </trkpt>
      <trkpt lat="47.49127" lon="6.76453">
        <ele>371</ele>
        <time>2014-03-30T08:33:44.206Z</time>
      </trkpt>
      <trkpt lat="47.49129" lon="6.76435">
        <ele>371</ele>
        <time>2014-03-30T08:33:49.125Z</time>
      </trkpt>
      <trkpt lat="47.49122" lon="6.76427">
        <ele>371</ele>
        <time>2014-03-30T08:33:54.210Z</time>
      </trkpt>
      <trkpt lat="47.4911" lon="6.76424">
        <ele>373</ele>
        <time>2014-03-30T08:33:59.132Z</time>
      </trkpt>
      <trkpt lat="47.4911" lon="6.76421">
        <ele>374</ele>
        <time>2014-03-30T08:34:04.205Z</time>
      </trkpt>
      <trkpt lat="47.49101" lon="6.76415">
        <ele>374</ele>
        <time>2014-03-30T08:34:09.123Z</time>
      </trkpt>
      <trkpt lat="47.49105" lon="6.76396">
        <ele>375</ele>
        <time>2014-03-30T08:34:14.190Z</time>
      </trkpt>
      <trkpt lat="47.49105" lon="6.7637">
        <ele>375</ele>
        <time>2014-03-30T08:34:19.126Z</time>
      </trkpt>
      <trkpt lat="47.491" lon="6.76342">
        <ele>376</ele>
        <time>2014-03-30T08:34:24.205Z</time>
      </trkpt>
      <trkpt lat="47.49099" lon="6.76311">
        <ele>375</ele>
        <time>2014-03-30T08:34:29.125Z</time>
      </trkpt>
      <trkpt lat="47.49097" lon="6.76276">
        <ele>375</ele>
        <time>2014-03-30T08:34:34.206Z</time>
      </trkpt>
      <trkpt lat="47.49098" lon="6.76247">
        <ele>376</ele>
        <time>2014-03-30T08:34:39.124Z</time>
      </trkpt>
      <trkpt lat="47.49096" lon="6.76222">
        <ele>378</ele>
        <time>2014-03-30T08:34:44.174Z</time>
      </trkpt>
      <trkpt lat="47.49098" lon="6.76198">
        <ele>381</ele>
        <time>2014-03-30T08:34:49.127Z</time>
      </trkpt>
      <trkpt lat="47.49099" lon="6.76173">
        <ele>383</ele>
        <time>2014-03-30T08:34:54.207Z</time>
      </trkpt>
      <trkpt lat="47.49099" lon="6.76147">
        <ele>384</ele>
        <time>2014-03-30T08:34:59.123Z</time>
      </trkpt>
      <trkpt lat="47.49101" lon="6.76124">
        <ele>383</ele>
        <time>2014-03-30T08:35:04.205Z</time>
      </trkpt>
      <trkpt lat="47.49102" lon="6.76101">
        <ele>383</ele>
        <time>2014-03-30T08:35:09.120Z</time>
      </trkpt>
      <trkpt lat="47.49102" lon="6.76077">
        <ele>383</ele>
        <time>2014-03-30T08:35:14.206Z</time>
      </trkpt>
      <trkpt lat="47.49105" lon="6.76055">
        <ele>385</ele>
        <time>2014-03-30T08:35:19.128Z</time>
      </trkpt>
      <trkpt lat="47.49109" lon="6.76034">
        <ele>387</ele>
        <time>2014-03-30T08:35:24.203Z</time>
      </trkpt>
      <trkpt lat="47.49114" lon="6.76014">
        <ele>388</ele>
        <time>2014-03-30T08:35:29.123Z</time>
      </trkpt>
      <trkpt lat="47.49121" lon="6.75995">
        <ele>388</ele>
        <time>2014-03-30T08:35:34.204Z</time>
      </trkpt>
      <trkpt lat="47.4913" lon="6.7597">
        <ele>389</ele>
        <time>2014-03-30T08:35:39.121Z</time>
      </trkpt>
      <trkpt lat="47.49135" lon="6.75948">
        <ele>390</ele>
        <time>2014-03-30T08:35:44.188Z</time>
      </trkpt>
      <trkpt lat="47.49137" lon="6.75932">
        <ele>390</ele>
        <time>2014-03-30T08:35:49.130Z</time>
      </trkpt>
      <trkpt lat="47.49144" lon="6.75909">
        <ele>391</ele>
        <time>2014-03-30T08:35:54.207Z</time>
      </trkpt>
      <trkpt lat="47.49148" lon="6.75879">
        <ele>392</ele>
        <time>2014-03-30T08:35:59.129Z</time>
      </trkpt>
      <trkpt lat="47.49158" lon="6.75854">
        <ele>391</ele>
        <time>2014-03-30T08:36:04.207Z</time>
      </trkpt>
      <trkpt lat="47.49168" lon="6.75831">
        <ele>391</ele>
        <time>2014-03-30T08:36:09.129Z</time>
      </trkpt>
      <trkpt lat="47.49181" lon="6.75802">
        <ele>389</ele>
        <time>2014-03-30T08:36:14.205Z</time>
      </trkpt>
      <trkpt lat="47.49191" lon="6.75762">
        <ele>388</ele>
        <time>2014-03-30T08:36:19.136Z</time>
      </trkpt>
      <trkpt lat="47.49204" lon="6.75727">
        <ele>388</ele>
        <time>2014-03-30T08:36:24.204Z</time>
      </trkpt>
      <trkpt lat="47.49216" lon="6.75688">
        <ele>388</ele>
        <time>2014-03-30T08:36:29.134Z</time>
      </trkpt>
      <trkpt lat="47.49222" lon="6.75654">
        <ele>389</ele>
        <time>2014-03-30T08:36:34.207Z</time>
      </trkpt>
      <trkpt lat="47.49231" lon="6.75624">
        <ele>390</ele>
        <time>2014-03-30T08:36:39.133Z</time>
      </trkpt>
      <trkpt lat="47.4924" lon="6.75597">
        <ele>390</ele>
        <time>2014-03-30T08:36:44.205Z</time>
      </trkpt>
      <trkpt lat="47.49247" lon="6.75569">
        <ele>390</ele>
        <time>2014-03-30T08:36:49.124Z</time>
      </trkpt>
      <trkpt lat="47.49259" lon="6.75533">
        <ele>387</ele>
        <time>2014-03-30T08:36:54.206Z</time>
      </trkpt>
      <trkpt lat="47.49272" lon="6.75409">
        <ele>385</ele>
        <time>2014-03-30T08:37:14.196Z</time>
      </trkpt>
      <trkpt lat="47.49274" lon="6.75384">
        <ele>386</ele>
        <time>2014-03-30T08:37:19.131Z</time>
      </trkpt>
      <trkpt lat="47.49282" lon="6.75367">
        <ele>388</ele>
        <time>2014-03-30T08:37:24.189Z</time>
      </trkpt>
      <trkpt lat="47.4929" lon="6.75341">
        <ele>387</ele>
        <time>2014-03-30T08:37:29.123Z</time>
      </trkpt>
      <trkpt lat="47.49294" lon="6.75318">
        <ele>385</ele>
        <time>2014-03-30T08:37:34.204Z</time>
      </trkpt>
      <trkpt lat="47.49296" lon="6.7529">
        <ele>385</ele>
        <time>2014-03-30T08:37:39.140Z</time>
      </trkpt>
      <trkpt lat="47.49296" lon="6.75269">
        <ele>383</ele>
        <time>2014-03-30T08:37:44.187Z</time>
      </trkpt>
      <trkpt lat="47.49297" lon="6.75246">
        <ele>385</ele>
        <time>2014-03-30T08:37:49.126Z</time>
      </trkpt>
      <trkpt lat="47.49296" lon="6.7522">
        <ele>387</ele>
        <time>2014-03-30T08:37:54.210Z</time>
      </trkpt>
      <trkpt lat="47.49293" lon="6.752">
        <ele>390</ele>
        <time>2014-03-30T08:37:59.131Z</time>
      </trkpt>
      <trkpt lat="47.49292" lon="6.7518">
        <ele>392</ele>
        <time>2014-03-30T08:38:04.190Z</time>
      </trkpt>
      <trkpt lat="47.49297" lon="6.75161">
        <ele>393</ele>
        <time>2014-03-30T08:38:09.124Z</time>
      </trkpt>
      <trkpt lat="47.49298" lon="6.75144">
        <ele>394</ele>
        <time>2014-03-30T08:38:14.152Z</time>
      </trkpt>
      <trkpt lat="47.49306" lon="6.75082">
        <ele>396</ele>
        <time>2014-03-30T08:38:24.124Z</time>
      </trkpt>
      <trkpt lat="47.49319" lon="6.75056">
        <ele>397</ele>
        <time>2014-03-30T08:38:29.202Z</time>
      </trkpt>
      <trkpt lat="47.49331" lon="6.7503">
        <ele>398</ele>
        <time>2014-03-30T08:38:34.131Z</time>
      </trkpt>
      <trkpt lat="47.49335" lon="6.75011">
        <ele>400</ele>
        <time>2014-03-30T08:38:39.205Z</time>
      </trkpt>
      <trkpt lat="47.49338" lon="6.75005">
        <ele>400</ele>
        <time>2014-03-30T08:38:44.132Z</time>
      </trkpt>
      <trkpt lat="47.49337" lon="6.75006">
        <ele>400</ele>
        <time>2014-03-30T08:38:49.206Z</time>
      </trkpt>
      <trkpt lat="47.49338" lon="6.75007">
        <ele>400</ele>
        <time>2014-03-30T08:38:54.123Z</time>
      </trkpt>
      <trkpt lat="47.49335" lon="6.75005">
        <ele>400</ele>
        <time>2014-03-30T08:38:59.188Z</time>
      </trkpt>
      <trkpt lat="47.49338" lon="6.74996">
        <ele>399</ele>
        <time>2014-03-30T08:39:04.123Z</time>
      </trkpt>
      <trkpt lat="47.4934" lon="6.74982">
        <ele>400</ele>
        <time>2014-03-30T08:39:09.204Z</time>
      </trkpt>
      <trkpt lat="47.49339" lon="6.74968">
        <ele>399</ele>
        <time>2014-03-30T08:39:14.131Z</time>
      </trkpt>
      <trkpt lat="47.49341" lon="6.74953">
        <ele>398</ele>
        <time>2014-03-30T08:39:19.092Z</time>
      </trkpt>
      <trkpt lat="47.49341" lon="6.74938">
        <ele>398</ele>
        <time>2014-03-30T08:39:24.204Z</time>
      </trkpt>
      <trkpt lat="47.49335" lon="6.74918">
        <ele>397</ele>
        <time>2014-03-30T08:39:29.124Z</time>
      </trkpt>
      <trkpt lat="47.49332" lon="6.74894">
        <ele>394</ele>
        <time>2014-03-30T08:39:34.205Z</time>
      </trkpt>
      <trkpt lat="47.49331" lon="6.74871">
        <ele>394</ele>
        <time>2014-03-30T08:39:39.129Z</time>
      </trkpt>
      <trkpt lat="47.49331" lon="6.74852">
        <ele>393</ele>
        <time>2014-03-30T08:39:44.208Z</time>
      </trkpt>
      <trkpt lat="47.49331" lon="6.74831">
        <ele>396</ele>
        <time>2014-03-30T08:39:49.132Z</time>
      </trkpt>
      <trkpt lat="47.49331" lon="6.74806">
        <ele>398</ele>
        <time>2014-03-30T08:39:54.208Z</time>
      </trkpt>
      <trkpt lat="47.49335" lon="6.7478">
        <ele>401</ele>
        <time>2014-03-30T08:39:59.125Z</time>
      </trkpt>
      <trkpt lat="47.49337" lon="6.74758">
        <ele>403</ele>
        <time>2014-03-30T08:40:04.203Z</time>
      </trkpt>
      <trkpt lat="47.49338" lon="6.74743">
        <ele>405</ele>
        <time>2014-03-30T08:40:09.124Z</time>
      </trkpt>
      <trkpt lat="47.49335" lon="6.74727">
        <ele>407</ele>
        <time>2014-03-30T08:40:14.206Z</time>
      </trkpt>
      <trkpt lat="47.49333" lon="6.74708">
        <ele>408</ele>
        <time>2014-03-30T08:40:19.584Z</time>
      </trkpt>
      <trkpt lat="47.49338" lon="6.74689">
        <ele>408</ele>
        <time>2014-03-30T08:40:24.124Z</time>
      </trkpt>
      <trkpt lat="47.4934" lon="6.7467">
        <ele>409</ele>
        <time>2014-03-30T08:40:29.204Z</time>
      </trkpt>
      <trkpt lat="47.49339" lon="6.7465">
        <ele>408</ele>
        <time>2014-03-30T08:40:34.125Z</time>
      </trkpt>
      <trkpt lat="47.49339" lon="6.7463">
        <ele>409</ele>
        <time>2014-03-30T08:40:39.204Z</time>
      </trkpt>
      <trkpt lat="47.49338" lon="6.7461">
        <ele>410</ele>
        <time>2014-03-30T08:40:44.120Z</time>
      </trkpt>
      <trkpt lat="47.49337" lon="6.74594">
        <ele>411</ele>
        <time>2014-03-30T08:40:49.204Z</time>
      </trkpt>
      <trkpt lat="47.49336" lon="6.74573">
        <ele>412</ele>
        <time>2014-03-30T08:40:54.122Z</time>
      </trkpt>
      <trkpt lat="47.49338" lon="6.74551">
        <ele>414</ele>
        <time>2014-03-30T08:40:59.203Z</time>
      </trkpt>
      <trkpt lat="47.49343" lon="6.74525">
        <ele>415</ele>
        <time>2014-03-30T08:41:04.124Z</time>
      </trkpt>
      <trkpt lat="47.49349" lon="6.74496">
        <ele>415</ele>
        <time>2014-03-30T08:41:09.206Z</time>
      </trkpt>
      <trkpt lat="47.49349" lon="6.74475">
        <ele>415</ele>
        <time>2014-03-30T08:41:14.123Z</time>
      </trkpt>
      <trkpt lat="47.49343" lon="6.74454">
        <ele>416</ele>
        <time>2014-03-30T08:41:19.207Z</time>
      </trkpt>
      <trkpt lat="47.4934" lon="6.74431">
        <ele>416</ele>
        <time>2014-03-30T08:41:24.089Z</time>
      </trkpt>
      <trkpt lat="47.49342" lon="6.7441">
        <ele>417</ele>
        <time>2014-03-30T08:41:29.203Z</time>
      </trkpt>
      <trkpt lat="47.49344" lon="6.74388">
        <ele>418</ele>
        <time>2014-03-30T08:41:34.136Z</time>
      </trkpt>
      <trkpt lat="47.49347" lon="6.74369">
        <ele>419</ele>
        <time>2014-03-30T08:41:39.203Z</time>
      </trkpt>
      <trkpt lat="47.49352" lon="6.74351">
        <ele>417</ele>
        <time>2014-03-30T08:41:44.132Z</time>
      </trkpt>
      <trkpt lat="47.49351" lon="6.74333">
        <ele>414</ele>
        <time>2014-03-30T08:41:49.203Z</time>
      </trkpt>
      <trkpt lat="47.49354" lon="6.74311">
        <ele>413</ele>
        <time>2014-03-30T08:41:54.131Z</time>
      </trkpt>
      <trkpt lat="47.49356" lon="6.74298">
        <ele>413</ele>
        <time>2014-03-30T08:41:59.203Z</time>
      </trkpt>
      <trkpt lat="47.49357" lon="6.7428">
        <ele>413</ele>
        <time>2014-03-30T08:42:04.125Z</time>
      </trkpt>
      <trkpt lat="47.49363" lon="6.74265">
        <ele>411</ele>
        <time>2014-03-30T08:42:09.190Z</time>
      </trkpt>
      <trkpt lat="47.49364" lon="6.74247">
        <ele>411</ele>
        <time>2014-03-30T08:42:14.121Z</time>
      </trkpt>
      <trkpt lat="47.49367" lon="6.74232">
        <ele>411</ele>
        <time>2014-03-30T08:42:19.208Z</time>
      </trkpt>
      <trkpt lat="47.49374" lon="6.74214">
        <ele>411</ele>
        <time>2014-03-30T08:42:24.129Z</time>
      </trkpt>
      <trkpt lat="47.49377" lon="6.74176">
        <ele>411</ele>
        <time>2014-03-30T08:42:29.203Z</time>
      </trkpt>
      <trkpt lat="47.4938" lon="6.74135">
        <ele>409</ele>
        <time>2014-03-30T08:42:34.131Z</time>
      </trkpt>
      <trkpt lat="47.49392" lon="6.74085">
        <ele>407</ele>
        <time>2014-03-30T08:42:39.173Z</time>
      </trkpt>
      <trkpt lat="47.49403" lon="6.74038">
        <ele>406</ele>
        <time>2014-03-30T08:42:44.126Z</time>
      </trkpt>
      <trkpt lat="47.49403" lon="6.74016">
        <ele>406</ele>
        <time>2014-03-30T08:42:49.168Z</time>
      </trkpt>
      <trkpt lat="47.49399" lon="6.74">
        <ele>407</ele>
        <time>2014-03-30T08:42:54.134Z</time>
      </trkpt>
      <trkpt lat="47.49394" lon="6.73983">
        <ele>407</ele>
        <time>2014-03-30T08:42:59.204Z</time>
      </trkpt>
      <trkpt lat="47.4939" lon="6.73963">
        <ele>407</ele>
        <time>2014-03-30T08:43:04.124Z</time>
      </trkpt>
      <trkpt lat="47.49385" lon="6.73943">
        <ele>408</ele>
        <time>2014-03-30T08:43:09.203Z</time>
      </trkpt>
      <trkpt lat="47.4938" lon="6.73925">
        <ele>410</ele>
        <time>2014-03-30T08:43:14.131Z</time>
      </trkpt>
      <trkpt lat="47.49376" lon="6.73907">
        <ele>410</ele>
        <time>2014-03-30T08:43:19.202Z</time>
      </trkpt>
      <trkpt lat="47.49369" lon="6.73884">
        <ele>411</ele>
        <time>2014-03-30T08:43:24.132Z</time>
      </trkpt>
      <trkpt lat="47.49357" lon="6.73865">
        <ele>412</ele>
        <time>2014-03-30T08:43:29.128Z</time>
      </trkpt>
      <trkpt lat="47.49344" lon="6.73839">
        <ele>413</ele>
        <time>2014-03-30T08:43:34.129Z</time>
      </trkpt>
      <trkpt lat="47.49326" lon="6.73818">
        <ele>412</ele>
        <time>2014-03-30T08:43:39.366Z</time>
      </trkpt>
      <trkpt lat="47.49314" lon="6.7381">
        <ele>412</ele>
        <time>2014-03-30T08:43:44.132Z</time>
      </trkpt>
      <trkpt lat="47.49302" lon="6.73801">
        <ele>412</ele>
        <time>2014-03-30T08:43:49.201Z</time>
      </trkpt>
      <trkpt lat="47.4929" lon="6.73792">
        <ele>410</ele>
        <time>2014-03-30T08:43:54.123Z</time>
      </trkpt>
      <trkpt lat="47.49278" lon="6.73787">
        <ele>410</ele>
        <time>2014-03-30T08:43:59.206Z</time>
      </trkpt>
      <trkpt lat="47.49269" lon="6.73779">
        <ele>411</ele>
        <time>2014-03-30T08:44:04.132Z</time>
      </trkpt>
      <trkpt lat="47.49257" lon="6.73771">
        <ele>412</ele>
        <time>2014-03-30T08:44:09.198Z</time>
      </trkpt>
      <trkpt lat="47.49246" lon="6.73764">
        <ele>413</ele>
        <time>2014-03-30T08:44:14.132Z</time>
      </trkpt>
      <trkpt lat="47.49233" lon="6.7376">
        <ele>412</ele>
        <time>2014-03-30T08:44:19.202Z</time>
      </trkpt>
      <trkpt lat="47.49223" lon="6.7375">
        <ele>413</ele>
        <time>2014-03-30T08:44:24.123Z</time>
      </trkpt>
      <trkpt lat="47.4921" lon="6.73744">
        <ele>415</ele>
        <time>2014-03-30T08:44:29.207Z</time>
      </trkpt>
      <trkpt lat="47.49196" lon="6.73742">
        <ele>413</ele>
        <time>2014-03-30T08:44:34.123Z</time>
      </trkpt>
      <trkpt lat="47.49183" lon="6.73742">
        <ele>410</ele>
        <time>2014-03-30T08:44:39.203Z</time>
      </trkpt>
      <trkpt lat="47.49169" lon="6.73733">
        <ele>409</ele>
        <time>2014-03-30T08:44:44.124Z</time>
      </trkpt>
      <trkpt lat="47.49158" lon="6.73728">
        <ele>410</ele>
        <time>2014-03-30T08:44:49.205Z</time>
      </trkpt>
      <trkpt lat="47.49147" lon="6.7372">
        <ele>412</ele>
        <time>2014-03-30T08:44:54.125Z</time>
      </trkpt>
      <trkpt lat="47.49138" lon="6.73711">
        <ele>414</ele>
        <time>2014-03-30T08:44:59.207Z</time>
      </trkpt>
      <trkpt lat="47.49129" lon="6.73706">
        <ele>416</ele>
        <time>2014-03-30T08:45:04.130Z</time>
      </trkpt>
      <trkpt lat="47.49119" lon="6.73704">
        <ele>419</ele>
        <time>2014-03-30T08:45:09.205Z</time>
      </trkpt>
      <trkpt lat="47.49111" lon="6.73698">
        <ele>421</ele>
        <time>2014-03-30T08:45:14.127Z</time>
      </trkpt>
      <trkpt lat="47.49103" lon="6.73691">
        <ele>422</ele>
        <time>2014-03-30T08:45:19.190Z</time>
      </trkpt>
      <trkpt lat="47.49095" lon="6.73683">
        <ele>424</ele>
        <time>2014-03-30T08:45:24.143Z</time>
      </trkpt>
      <trkpt lat="47.49088" lon="6.73673">
        <ele>426</ele>
        <time>2014-03-30T08:45:29.193Z</time>
      </trkpt>
      <trkpt lat="47.49083" lon="6.73664">
        <ele>428</ele>
        <time>2014-03-30T08:45:34.118Z</time>
      </trkpt>
      <trkpt lat="47.49072" lon="6.73659">
        <ele>430</ele>
        <time>2014-03-30T08:45:39.196Z</time>
      </trkpt>
      <trkpt lat="47.49054" lon="6.73653">
        <ele>436</ele>
        <time>2014-03-30T08:45:49.174Z</time>
      </trkpt>
      <trkpt lat="47.49047" lon="6.73651">
        <ele>436</ele>
        <time>2014-03-30T08:45:54.173Z</time>
      </trkpt>
      <trkpt lat="47.49038" lon="6.73651">
        <ele>437</ele>
        <time>2014-03-30T08:45:59.203Z</time>
      </trkpt>
      <trkpt lat="47.49032" lon="6.7365">
        <ele>439</ele>
        <time>2014-03-30T08:46:04.116Z</time>
      </trkpt>
      <trkpt lat="47.49023" lon="6.73651">
        <ele>441</ele>
        <time>2014-03-30T08:46:09.206Z</time>
      </trkpt>
      <trkpt lat="47.49015" lon="6.7365">
        <ele>441</ele>
        <time>2014-03-30T08:46:14.134Z</time>
      </trkpt>
      <trkpt lat="47.49009" lon="6.73651">
        <ele>441</ele>
        <time>2014-03-30T08:46:19.204Z</time>
      </trkpt>
      <trkpt lat="47.49003" lon="6.73648">
        <ele>442</ele>
        <time>2014-03-30T08:46:24.136Z</time>
      </trkpt>
      <trkpt lat="47.48999" lon="6.73648">
        <ele>441</ele>
        <time>2014-03-30T08:46:29.205Z</time>
      </trkpt>
      <trkpt lat="47.48994" lon="6.73646">
        <ele>442</ele>
        <time>2014-03-30T08:46:34.174Z</time>
      </trkpt>
      <trkpt lat="47.48988" lon="6.73644">
        <ele>443</ele>
        <time>2014-03-30T08:46:39.210Z</time>
      </trkpt>
      <trkpt lat="47.48983" lon="6.73644">
        <ele>443</ele>
        <time>2014-03-30T08:46:44.127Z</time>
      </trkpt>
      <trkpt lat="47.48978" lon="6.73642">
        <ele>443</ele>
        <time>2014-03-30T08:46:49.202Z</time>
      </trkpt>
      <trkpt lat="47.48972" lon="6.73641">
        <ele>444</ele>
        <time>2014-03-30T08:46:54.125Z</time>
      </trkpt>
      <trkpt lat="47.48966" lon="6.73638">
        <ele>445</ele>
        <time>2014-03-30T08:46:59.205Z</time>
      </trkpt>
      <trkpt lat="47.48944" lon="6.73639">
        <ele>445</ele>
        <time>2014-03-30T08:47:14.139Z</time>
      </trkpt>
      <trkpt lat="47.48937" lon="6.73642">
        <ele>446</ele>
        <time>2014-03-30T08:47:19.207Z</time>
      </trkpt>
      <trkpt lat="47.4893" lon="6.73636">
        <ele>447</ele>
        <time>2014-03-30T08:47:24.129Z</time>
      </trkpt>
      <trkpt lat="47.48925" lon="6.7363">
        <ele>446</ele>
        <time>2014-03-30T08:47:29.206Z</time>
      </trkpt>
      <trkpt lat="47.48917" lon="6.73626">
        <ele>446</ele>
        <time>2014-03-30T08:47:34.134Z</time>
      </trkpt>
      <trkpt lat="47.48909" lon="6.73622">
        <ele>446</ele>
        <time>2014-03-30T08:47:39.207Z</time>
      </trkpt>
      <trkpt lat="47.48903" lon="6.73619">
        <ele>447</ele>
        <time>2014-03-30T08:47:44.131Z</time>
      </trkpt>
      <trkpt lat="47.48895" lon="6.73617">
        <ele>448</ele>
        <time>2014-03-30T08:47:49.202Z</time>
      </trkpt>
      <trkpt lat="47.48883" lon="6.73606">
        <ele>447</ele>
        <time>2014-03-30T08:47:54.139Z</time>
      </trkpt>
      <trkpt lat="47.48912" lon="6.73578">
        <ele>444</ele>
        <time>2014-03-30T08:48:11.053Z</time>
      </trkpt>
      <trkpt lat="47.48923" lon="6.73567">
        <ele>443</ele>
        <time>2014-03-30T08:48:14.127Z</time>
      </trkpt>
      <trkpt lat="47.48936" lon="6.73554">
        <ele>443</ele>
        <time>2014-03-30T08:48:19.204Z</time>
      </trkpt>
      <trkpt lat="47.48948" lon="6.73541">
        <ele>442</ele>
        <time>2014-03-30T08:48:24.127Z</time>
      </trkpt>
      <trkpt lat="47.4896" lon="6.73527">
        <ele>444</ele>
        <time>2014-03-30T08:48:29.189Z</time>
      </trkpt>
      <trkpt lat="47.48972" lon="6.73516">
        <ele>443</ele>
        <time>2014-03-30T08:48:34.134Z</time>
      </trkpt>
      <trkpt lat="47.48986" lon="6.73509">
        <ele>444</ele>
        <time>2014-03-30T08:48:39.176Z</time>
      </trkpt>
      <trkpt lat="47.49004" lon="6.73502">
        <ele>443</ele>
        <time>2014-03-30T08:48:44.130Z</time>
      </trkpt>
      <trkpt lat="47.4902" lon="6.73494">
        <ele>444</ele>
        <time>2014-03-30T08:48:49.213Z</time>
      </trkpt>
      <trkpt lat="47.49041" lon="6.73487">
        <ele>445</ele>
        <time>2014-03-30T08:48:54.129Z</time>
      </trkpt>
      <trkpt lat="47.49069" lon="6.73394">
        <ele>444</ele>
        <time>2014-03-30T08:49:09.128Z</time>
      </trkpt>
      <trkpt lat="47.49086" lon="6.73375">
        <ele>444</ele>
        <time>2014-03-30T08:49:14.207Z</time>
      </trkpt>
      <trkpt lat="47.49097" lon="6.73344">
        <ele>443</ele>
        <time>2014-03-30T08:49:19.135Z</time>
      </trkpt>
      <trkpt lat="47.49105" lon="6.73313">
        <ele>443</ele>
        <time>2014-03-30T08:49:24.206Z</time>
      </trkpt>
      <trkpt lat="47.49108" lon="6.73282">
        <ele>445</ele>
        <time>2014-03-30T08:49:29.128Z</time>
      </trkpt>
      <trkpt lat="47.49114" lon="6.73258">
        <ele>446</ele>
        <time>2014-03-30T08:49:34.204Z</time>
      </trkpt>
      <trkpt lat="47.49127" lon="6.7324">
        <ele>446</ele>
        <time>2014-03-30T08:49:39.129Z</time>
      </trkpt>
      <trkpt lat="47.49136" lon="6.73226">
        <ele>448</ele>
        <time>2014-03-30T08:49:44.179Z</time>
      </trkpt>
      <trkpt lat="47.49148" lon="6.73212">
        <ele>449</ele>
        <time>2014-03-30T08:49:49.129Z</time>
      </trkpt>
      <trkpt lat="47.49155" lon="6.73199">
        <ele>449</ele>
        <time>2014-03-30T08:49:54.207Z</time>
      </trkpt>
      <trkpt lat="47.49163" lon="6.73186">
        <ele>450</ele>
        <time>2014-03-30T08:49:59.139Z</time>
      </trkpt>
      <trkpt lat="47.49169" lon="6.73173">
        <ele>452</ele>
        <time>2014-03-30T08:50:04.198Z</time>
      </trkpt>
      <trkpt lat="47.4917" lon="6.73156">
        <ele>451</ele>
        <time>2014-03-30T08:50:09.135Z</time>
      </trkpt>
      <trkpt lat="47.49174" lon="6.73137">
        <ele>451</ele>
        <time>2014-03-30T08:50:14.209Z</time>
      </trkpt>
      <trkpt lat="47.49179" lon="6.7312">
        <ele>450</ele>
        <time>2014-03-30T08:50:19.125Z</time>
      </trkpt>
      <trkpt lat="47.49182" lon="6.73102">
        <ele>451</ele>
        <time>2014-03-30T08:50:24.206Z</time>
      </trkpt>
      <trkpt lat="47.49183" lon="6.73076">
        <ele>454</ele>
        <time>2014-03-30T08:50:29.126Z</time>
      </trkpt>
      <trkpt lat="47.49186" lon="6.73055">
        <ele>453</ele>
        <time>2014-03-30T08:50:34.211Z</time>
      </trkpt>
      <trkpt lat="47.49186" lon="6.73035">
        <ele>454</ele>
        <time>2014-03-30T08:50:39.128Z</time>
      </trkpt>
      <trkpt lat="47.49188" lon="6.73013">
        <ele>454</ele>
        <time>2014-03-30T08:50:44.096Z</time>
      </trkpt>
      <trkpt lat="47.4919" lon="6.72995">
        <ele>453</ele>
        <time>2014-03-30T08:50:49.427Z</time>
      </trkpt>
      <trkpt lat="47.49191" lon="6.7297">
        <ele>453</ele>
        <time>2014-03-30T08:50:54.128Z</time>
      </trkpt>
      <trkpt lat="47.49197" lon="6.72955">
        <ele>453</ele>
        <time>2014-03-30T08:50:59.206Z</time>
      </trkpt>
      <trkpt lat="47.49205" lon="6.7294">
        <ele>454</ele>
        <time>2014-03-30T08:51:04.126Z</time>
      </trkpt>
      <trkpt lat="47.49208" lon="6.72925">
        <ele>455</ele>
        <time>2014-03-30T08:51:09.203Z</time>
      </trkpt>
      <trkpt lat="47.49209" lon="6.72922">
        <ele>457</ele>
        <time>2014-03-30T08:51:14.128Z</time>
      </trkpt>
      <trkpt lat="47.49209" lon="6.72922">
        <ele>457</ele>
        <time>2014-03-30T08:51:19.186Z</time>
      </trkpt>
      <trkpt lat="47.49211" lon="6.72923">
        <ele>456</ele>
        <time>2014-03-30T08:51:24.127Z</time>
      </trkpt>
      <trkpt lat="47.49214" lon="6.72924">
        <ele>457</ele>
        <time>2014-03-30T08:51:29.128Z</time>
      </trkpt>
      <trkpt lat="47.49219" lon="6.72927">
        <ele>458</ele>
        <time>2014-03-30T08:51:34.206Z</time>
      </trkpt>
      <trkpt lat="47.49222" lon="6.72928">
        <ele>458</ele>
        <time>2014-03-30T08:51:39.125Z</time>
      </trkpt>
      <trkpt lat="47.49226" lon="6.72931">
        <ele>458</ele>
        <time>2014-03-30T08:51:44.205Z</time>
      </trkpt>
      <trkpt lat="47.4923" lon="6.72932">
        <ele>457</ele>
        <time>2014-03-30T08:51:49.131Z</time>
      </trkpt>
      <trkpt lat="47.49226" lon="6.72932">
        <ele>455</ele>
        <time>2014-03-30T08:51:54.205Z</time>
      </trkpt>
      <trkpt lat="47.49217" lon="6.7293">
        <ele>457</ele>
        <time>2014-03-30T08:51:59.134Z</time>
      </trkpt>
      <trkpt lat="47.49214" lon="6.72932">
        <ele>459</ele>
        <time>2014-03-30T08:52:04.213Z</time>
      </trkpt>
      <trkpt lat="47.49214" lon="6.72931">
        <ele>459</ele>
        <time>2014-03-30T08:52:09.125Z</time>
      </trkpt>
      <trkpt lat="47.49216" lon="6.72933">
        <ele>457</ele>
        <time>2014-03-30T08:52:14.203Z</time>
      </trkpt>
      <trkpt lat="47.49217" lon="6.72934">
        <ele>457</ele>
        <time>2014-03-30T08:52:19.127Z</time>
      </trkpt>
      <trkpt lat="47.49218" lon="6.72935">
        <ele>457</ele>
        <time>2014-03-30T08:52:24.207Z</time>
      </trkpt>
      <trkpt lat="47.49218" lon="6.72936">
        <ele>458</ele>
        <time>2014-03-30T08:52:29.124Z</time>
      </trkpt>
      <trkpt lat="47.49218" lon="6.72936">
        <ele>458</ele>
        <time>2014-03-30T08:52:34.206Z</time>
      </trkpt>
      <trkpt lat="47.49216" lon="6.72937">
        <ele>461</ele>
        <time>2014-03-30T08:52:39.137Z</time>
      </trkpt>
      <trkpt lat="47.49214" lon="6.72937">
        <ele>463</ele>
        <time>2014-03-30T08:52:44.207Z</time>
      </trkpt>
      <trkpt lat="47.49215" lon="6.72941">
        <ele>463</ele>
        <time>2014-03-30T08:52:49.213Z</time>
      </trkpt>
      <trkpt lat="47.49218" lon="6.72942">
        <ele>463</ele>
        <time>2014-03-30T08:52:54.126Z</time>
      </trkpt>
      <trkpt lat="47.4922" lon="6.72943">
        <ele>463</ele>
        <time>2014-03-30T08:52:59.207Z</time>
      </trkpt>
      <trkpt lat="47.4922" lon="6.72943">
        <ele>463</ele>
        <time>2014-03-30T08:53:04.131Z</time>
      </trkpt>
      <trkpt lat="47.49218" lon="6.72943">
        <ele>463</ele>
        <time>2014-03-30T08:53:09.218Z</time>
      </trkpt>
      <trkpt lat="47.49213" lon="6.72943">
        <ele>461</ele>
        <time>2014-03-30T08:53:14.138Z</time>
      </trkpt>
      <trkpt lat="47.49211" lon="6.72944">
        <ele>459</ele>
        <time>2014-03-30T08:53:19.210Z</time>
      </trkpt>
      <trkpt lat="47.49208" lon="6.72946">
        <ele>459</ele>
        <time>2014-03-30T08:53:24.129Z</time>
      </trkpt>
      <trkpt lat="47.49207" lon="6.72949">
        <ele>457</ele>
        <time>2014-03-30T08:53:29.209Z</time>
      </trkpt>
      <trkpt lat="47.49207" lon="6.72951">
        <ele>456</ele>
        <time>2014-03-30T08:53:34.135Z</time>
      </trkpt>
      <trkpt lat="47.49209" lon="6.72951">
        <ele>452</ele>
        <time>2014-03-30T08:53:39.203Z</time>
      </trkpt>
      <trkpt lat="47.4921" lon="6.72949">
        <ele>450</ele>
        <time>2014-03-30T08:53:44.124Z</time>
      </trkpt>
      <trkpt lat="47.4921" lon="6.72947">
        <ele>451</ele>
        <time>2014-03-30T08:53:49.397Z</time>
      </trkpt>
      <trkpt lat="47.49215" lon="6.72938">
        <ele>449</ele>
        <time>2014-03-30T08:53:54.203Z</time>
      </trkpt>
      <trkpt lat="47.49221" lon="6.72923">
        <ele>446</ele>
        <time>2014-03-30T08:53:59.133Z</time>
      </trkpt>
      <trkpt lat="47.49226" lon="6.72901">
        <ele>447</ele>
        <time>2014-03-30T08:54:04.124Z</time>
      </trkpt>
      <trkpt lat="47.49232" lon="6.72884">
        <ele>448</ele>
        <time>2014-03-30T08:54:09.204Z</time>
      </trkpt>
      <trkpt lat="47.49242" lon="6.72865">
        <ele>448</ele>
        <time>2014-03-30T08:54:14.132Z</time>
      </trkpt>
      <trkpt lat="47.49255" lon="6.72844">
        <ele>449</ele>
        <time>2014-03-30T08:54:19.206Z</time>
      </trkpt>
      <trkpt lat="47.49272" lon="6.72819">
        <ele>449</ele>
        <time>2014-03-30T08:54:24.132Z</time>
      </trkpt>
      <trkpt lat="47.49287" lon="6.72799">
        <ele>448</ele>
        <time>2014-03-30T08:54:29.205Z</time>
      </trkpt>
      <trkpt lat="47.49303" lon="6.72785">
        <ele>446</ele>
        <time>2014-03-30T08:54:34.135Z</time>
      </trkpt>
      <trkpt lat="47.49309" lon="6.72774">
        <ele>447</ele>
        <time>2014-03-30T08:54:39.183Z</time>
      </trkpt>
      <trkpt lat="47.49314" lon="6.72753">
        <ele>449</ele>
        <time>2014-03-30T08:54:44.131Z</time>
      </trkpt>
      <trkpt lat="47.49317" lon="6.72729">
        <ele>451</ele>
        <time>2014-03-30T08:54:49.193Z</time>
      </trkpt>
      <trkpt lat="47.4932" lon="6.72706">
        <ele>452</ele>
        <time>2014-03-30T08:54:54.106Z</time>
      </trkpt>
      <trkpt lat="47.49319" lon="6.72683">
        <ele>454</ele>
        <time>2014-03-30T08:54:59.200Z</time>
      </trkpt>
      <trkpt lat="47.49319" lon="6.72641">
        <ele>456</ele>
        <time>2014-03-30T08:55:09.207Z</time>
      </trkpt>
      <trkpt lat="47.4932" lon="6.72621">
        <ele>457</ele>
        <time>2014-03-30T08:55:14.129Z</time>
      </trkpt>
      <trkpt lat="47.4932" lon="6.72603">
        <ele>456</ele>
        <time>2014-03-30T08:55:19.177Z</time>
      </trkpt>
      <trkpt lat="47.49322" lon="6.72585">
        <ele>459</ele>
        <time>2014-03-30T08:55:24.133Z</time>
      </trkpt>
      <trkpt lat="47.49326" lon="6.72572">
        <ele>459</ele>
        <time>2014-03-30T08:55:29.206Z</time>
      </trkpt>
      <trkpt lat="47.49329" lon="6.72556">
        <ele>459</ele>
        <time>2014-03-30T08:55:34.136Z</time>
      </trkpt>
      <trkpt lat="47.49333" lon="6.72541">
        <ele>460</ele>
        <time>2014-03-30T08:55:39.205Z</time>
      </trkpt>
      <trkpt lat="47.49331" lon="6.72526">
        <ele>462</ele>
        <time>2014-03-30T08:55:44.129Z</time>
      </trkpt>
      <trkpt lat="47.49329" lon="6.7251">
        <ele>465</ele>
        <time>2014-03-30T08:55:49.206Z</time>
      </trkpt>
      <trkpt lat="47.4933" lon="6.72497">
        <ele>465</ele>
        <time>2014-03-30T08:55:54.135Z</time>
      </trkpt>
      <trkpt lat="47.49331" lon="6.72482">
        <ele>464</ele>
        <time>2014-03-30T08:55:59.206Z</time>
      </trkpt>
      <trkpt lat="47.4933" lon="6.72465">
        <ele>466</ele>
        <time>2014-03-30T08:56:04.128Z</time>
      </trkpt>
      <trkpt lat="47.49332" lon="6.72452">
        <ele>467</ele>
        <time>2014-03-30T08:56:09.206Z</time>
      </trkpt>
      <trkpt lat="47.49334" lon="6.72436">
        <ele>466</ele>
        <time>2014-03-30T08:56:14.130Z</time>
      </trkpt>
      <trkpt lat="47.49332" lon="6.72424">
        <ele>467</ele>
        <time>2014-03-30T08:56:19.208Z</time>
      </trkpt>
      <trkpt lat="47.49331" lon="6.72412">
        <ele>467</ele>
        <time>2014-03-30T08:56:24.133Z</time>
      </trkpt>
      <trkpt lat="47.49329" lon="6.72397">
        <ele>468</ele>
        <time>2014-03-30T08:56:29.205Z</time>
      </trkpt>
      <trkpt lat="47.49333" lon="6.72386">
        <ele>466</ele>
        <time>2014-03-30T08:56:34.139Z</time>
      </trkpt>
      <trkpt lat="47.49329" lon="6.72365">
        <ele>466</ele>
        <time>2014-03-30T08:56:39.205Z</time>
      </trkpt>
      <trkpt lat="47.49332" lon="6.72345">
        <ele>467</ele>
        <time>2014-03-30T08:56:44.136Z</time>
      </trkpt>
      <trkpt lat="47.49334" lon="6.72329">
        <ele>467</ele>
        <time>2014-03-30T08:56:49.207Z</time>
      </trkpt>
      <trkpt lat="47.49335" lon="6.72311">
        <ele>468</ele>
        <time>2014-03-30T08:56:54.129Z</time>
      </trkpt>
      <trkpt lat="47.49339" lon="6.72297">
        <ele>468</ele>
        <time>2014-03-30T08:56:59.127Z</time>
      </trkpt>
      <trkpt lat="47.49343" lon="6.72285">
        <ele>470</ele>
        <time>2014-03-30T08:57:04.204Z</time>
      </trkpt>
      <trkpt lat="47.49348" lon="6.72267">
        <ele>472</ele>
        <time>2014-03-30T08:57:09.129Z</time>
      </trkpt>
      <trkpt lat="47.49353" lon="6.72254">
        <ele>473</ele>
        <time>2014-03-30T08:57:14.208Z</time>
      </trkpt>
      <trkpt lat="47.49355" lon="6.7224">
        <ele>474</ele>
        <time>2014-03-30T08:57:19.130Z</time>
      </trkpt>
      <trkpt lat="47.49358" lon="6.72228">
        <ele>474</ele>
        <time>2014-03-30T08:57:24.208Z</time>
      </trkpt>
      <trkpt lat="47.49358" lon="6.72216">
        <ele>474</ele>
        <time>2014-03-30T08:57:29.126Z</time>
      </trkpt>
      <trkpt lat="47.4936" lon="6.72201">
        <ele>473</ele>
        <time>2014-03-30T08:57:34.204Z</time>
      </trkpt>
      <trkpt lat="47.49362" lon="6.72184">
        <ele>475</ele>
        <time>2014-03-30T08:57:39.128Z</time>
      </trkpt>
      <trkpt lat="47.49366" lon="6.72171">
        <ele>476</ele>
        <time>2014-03-30T08:57:44.207Z</time>
      </trkpt>
      <trkpt lat="47.49369" lon="6.72154">
        <ele>476</ele>
        <time>2014-03-30T08:57:49.129Z</time>
      </trkpt>
      <trkpt lat="47.49369" lon="6.72138">
        <ele>478</ele>
        <time>2014-03-30T08:57:54.213Z</time>
      </trkpt>
      <trkpt lat="47.49371" lon="6.72119">
        <ele>477</ele>
        <time>2014-03-30T08:57:59.130Z</time>
      </trkpt>
      <trkpt lat="47.49373" lon="6.72103">
        <ele>477</ele>
        <time>2014-03-30T08:58:04.198Z</time>
      </trkpt>
      <trkpt lat="47.49375" lon="6.72091">
        <ele>478</ele>
        <time>2014-03-30T08:58:09.135Z</time>
      </trkpt>
      <trkpt lat="47.49378" lon="6.72075">
        <ele>479</ele>
        <time>2014-03-30T08:58:14.206Z</time>
      </trkpt>
      <trkpt lat="47.49379" lon="6.72061">
        <ele>480</ele>
        <time>2014-03-30T08:58:19.137Z</time>
      </trkpt>
      <trkpt lat="47.49377" lon="6.72047">
        <ele>482</ele>
        <time>2014-03-30T08:58:24.208Z</time>
      </trkpt>
      <trkpt lat="47.4938" lon="6.72033">
        <ele>483</ele>
        <time>2014-03-30T08:58:29.138Z</time>
      </trkpt>
      <trkpt lat="47.49381" lon="6.72021">
        <ele>485</ele>
        <time>2014-03-30T08:58:34.210Z</time>
      </trkpt>
      <trkpt lat="47.49385" lon="6.7201">
        <ele>484</ele>
        <time>2014-03-30T08:58:39.127Z</time>
      </trkpt>
      <trkpt lat="47.49389" lon="6.71999">
        <ele>482</ele>
        <time>2014-03-30T08:58:44.205Z</time>
      </trkpt>
      <trkpt lat="47.49391" lon="6.71986">
        <ele>482</ele>
        <time>2014-03-30T08:58:49.136Z</time>
      </trkpt>
      <trkpt lat="47.49392" lon="6.71977">
        <ele>483</ele>
        <time>2014-03-30T08:58:54.205Z</time>
      </trkpt>
      <trkpt lat="47.494" lon="6.71922">
        <ele>490</ele>
        <time>2014-03-30T08:59:19.210Z</time>
      </trkpt>
      <trkpt lat="47.49405" lon="6.71909">
        <ele>490</ele>
        <time>2014-03-30T08:59:24.130Z</time>
      </trkpt>
      <trkpt lat="47.49406" lon="6.71899">
        <ele>490</ele>
        <time>2014-03-30T08:59:29.214Z</time>
      </trkpt>
      <trkpt lat="47.49407" lon="6.71887">
        <ele>490</ele>
        <time>2014-03-30T08:59:34.129Z</time>
      </trkpt>
      <trkpt lat="47.49407" lon="6.71877">
        <ele>490</ele>
        <time>2014-03-30T08:59:39.212Z</time>
      </trkpt>
      <trkpt lat="47.49409" lon="6.71865">
        <ele>491</ele>
        <time>2014-03-30T08:59:44.128Z</time>
      </trkpt>
      <trkpt lat="47.49411" lon="6.71855">
        <ele>491</ele>
        <time>2014-03-30T08:59:49.210Z</time>
      </trkpt>
      <trkpt lat="47.49413" lon="6.71845">
        <ele>491</ele>
        <time>2014-03-30T08:59:54.125Z</time>
      </trkpt>
      <trkpt lat="47.49429" lon="6.71779">
        <ele>495</ele>
        <time>2014-03-30T09:00:24.135Z</time>
      </trkpt>
      <trkpt lat="47.49429" lon="6.71763">
        <ele>496</ele>
        <time>2014-03-30T09:00:29.199Z</time>
      </trkpt>
      <trkpt lat="47.49429" lon="6.71746">
        <ele>498</ele>
        <time>2014-03-30T09:00:34.131Z</time>
      </trkpt>
      <trkpt lat="47.49431" lon="6.71734">
        <ele>499</ele>
        <time>2014-03-30T09:00:39.207Z</time>
      </trkpt>
      <trkpt lat="47.49429" lon="6.71721">
        <ele>502</ele>
        <time>2014-03-30T09:00:44.136Z</time>
      </trkpt>
      <trkpt lat="47.49429" lon="6.71705">
        <ele>504</ele>
        <time>2014-03-30T09:00:49.207Z</time>
      </trkpt>
      <trkpt lat="47.49427" lon="6.71687">
        <ele>505</ele>
        <time>2014-03-30T09:00:54.140Z</time>
      </trkpt>
      <trkpt lat="47.49429" lon="6.71674">
        <ele>503</ele>
        <time>2014-03-30T09:00:59.210Z</time>
      </trkpt>
      <trkpt lat="47.49427" lon="6.71645">
        <ele>505</ele>
        <time>2014-03-30T09:01:09.191Z</time>
      </trkpt>
      <trkpt lat="47.49427" lon="6.71626">
        <ele>506</ele>
        <time>2014-03-30T09:01:14.129Z</time>
      </trkpt>
      <trkpt lat="47.49425" lon="6.71609">
        <ele>507</ele>
        <time>2014-03-30T09:01:19.206Z</time>
      </trkpt>
      <trkpt lat="47.49425" lon="6.71609">
        <ele>507</ele>
        <time>2014-03-30T09:01:19.206Z</time>
      </trkpt>
      <trkpt lat="47.49422" lon="6.71578">
        <ele>510</ele>
        <time>2014-03-30T09:01:29.144Z</time>
      </trkpt>
      <trkpt lat="47.49421" lon="6.71558">
        <ele>510</ele>
        <time>2014-03-30T09:01:34.209Z</time>
      </trkpt>
      <trkpt lat="47.4942" lon="6.71539">
        <ele>512</ele>
        <time>2014-03-30T09:01:39.141Z</time>
      </trkpt>
      <trkpt lat="47.49421" lon="6.71517">
        <ele>512</ele>
        <time>2014-03-30T09:01:44.204Z</time>
      </trkpt>
      <trkpt lat="47.4942" lon="6.71501">
        <ele>513</ele>
        <time>2014-03-30T09:01:49.129Z</time>
      </trkpt>
      <trkpt lat="47.49421" lon="6.71481">
        <ele>513</ele>
        <time>2014-03-30T09:01:54.207Z</time>
      </trkpt>
      <trkpt lat="47.49415" lon="6.7146">
        <ele>514</ele>
        <time>2014-03-30T09:01:59.131Z</time>
      </trkpt>
      <trkpt lat="47.49414" lon="6.71439">
        <ele>513</ele>
        <time>2014-03-30T09:02:04.212Z</time>
      </trkpt>
      <trkpt lat="47.49408" lon="6.71415">
        <ele>516</ele>
        <time>2014-03-30T09:02:09.127Z</time>
      </trkpt>
      <trkpt lat="47.49403" lon="6.71391">
        <ele>515</ele>
        <time>2014-03-30T09:02:14.208Z</time>
      </trkpt>
      <trkpt lat="47.49401" lon="6.71367">
        <ele>515</ele>
        <time>2014-03-30T09:02:19.133Z</time>
      </trkpt>
      <trkpt lat="47.49396" lon="6.71334">
        <ele>514</ele>
        <time>2014-03-30T09:02:24.202Z</time>
      </trkpt>
      <trkpt lat="47.49394" lon="6.71301">
        <ele>511</ele>
        <time>2014-03-30T09:02:29.206Z</time>
      </trkpt>
      <trkpt lat="47.49398" lon="6.71278">
        <ele>510</ele>
        <time>2014-03-30T09:02:34.131Z</time>
      </trkpt>
      <trkpt lat="47.49397" lon="6.71264">
        <ele>514</ele>
        <time>2014-03-30T09:02:39.204Z</time>
      </trkpt>
      <trkpt lat="47.49392" lon="6.71252">
        <ele>513</ele>
        <time>2014-03-30T09:02:44.138Z</time>
      </trkpt>
      <trkpt lat="47.49387" lon="6.71238">
        <ele>514</ele>
        <time>2014-03-30T09:02:49.177Z</time>
      </trkpt>
      <trkpt lat="47.49382" lon="6.71218">
        <ele>513</ele>
        <time>2014-03-30T09:02:54.129Z</time>
      </trkpt>
      <trkpt lat="47.49381" lon="6.712">
        <ele>513</ele>
        <time>2014-03-30T09:02:59.209Z</time>
      </trkpt>
      <trkpt lat="47.49374" lon="6.71181">
        <ele>514</ele>
        <time>2014-03-30T09:03:04.137Z</time>
      </trkpt>
      <trkpt lat="47.49372" lon="6.71164">
        <ele>514</ele>
        <time>2014-03-30T09:03:09.207Z</time>
      </trkpt>
      <trkpt lat="47.49368" lon="6.71146">
        <ele>514</ele>
        <time>2014-03-30T09:03:14.134Z</time>
      </trkpt>
      <trkpt lat="47.49365" lon="6.71132">
        <ele>515</ele>
        <time>2014-03-30T09:03:19.202Z</time>
      </trkpt>
      <trkpt lat="47.49361" lon="6.71124">
        <ele>516</ele>
        <time>2014-03-30T09:03:24.129Z</time>
      </trkpt>
      <trkpt lat="47.49362" lon="6.71119">
        <ele>515</ele>
        <time>2014-03-30T09:03:29.185Z</time>
      </trkpt>
      <trkpt lat="47.49362" lon="6.71114">
        <ele>514</ele>
        <time>2014-03-30T09:03:34.139Z</time>
      </trkpt>
      <trkpt lat="47.49365" lon="6.71115">
        <ele>513</ele>
        <time>2014-03-30T09:03:39.209Z</time>
      </trkpt>
      <trkpt lat="47.49365" lon="6.71116">
        <ele>512</ele>
        <time>2014-03-30T09:03:44.125Z</time>
      </trkpt>
      <trkpt lat="47.49365" lon="6.71115">
        <ele>513</ele>
        <time>2014-03-30T09:03:49.206Z</time>
      </trkpt>
      <trkpt lat="47.49363" lon="6.71111">
        <ele>510</ele>
        <time>2014-03-30T09:03:54.124Z</time>
      </trkpt>
      <trkpt lat="47.49363" lon="6.71109">
        <ele>511</ele>
        <time>2014-03-30T09:03:59.209Z</time>
      </trkpt>
      <trkpt lat="47.49363" lon="6.71112">
        <ele>512</ele>
        <time>2014-03-30T09:04:04.133Z</time>
      </trkpt>
      <trkpt lat="47.49363" lon="6.71112">
        <ele>512</ele>
        <time>2014-03-30T09:04:09.211Z</time>
      </trkpt>
      <trkpt lat="47.49365" lon="6.71112">
        <ele>511</ele>
        <time>2014-03-30T09:04:14.127Z</time>
      </trkpt>
      <trkpt lat="47.49364" lon="6.71111">
        <ele>511</ele>
        <time>2014-03-30T09:04:19.205Z</time>
      </trkpt>
      <trkpt lat="47.49364" lon="6.7111">
        <ele>510</ele>
        <time>2014-03-30T09:04:24.125Z</time>
      </trkpt>
      <trkpt lat="47.49364" lon="6.7111">
        <ele>510</ele>
        <time>2014-03-30T09:04:29.623Z</time>
      </trkpt>
      <trkpt lat="47.49364" lon="6.71109">
        <ele>510</ele>
        <time>2014-03-30T09:04:34.131Z</time>
      </trkpt>
      <trkpt lat="47.49364" lon="6.71109">
        <ele>510</ele>
        <time>2014-03-30T09:04:39.205Z</time>
      </trkpt>
      <trkpt lat="47.49365" lon="6.7111">
        <ele>510</ele>
        <time>2014-03-30T09:04:44.126Z</time>
      </trkpt>
      <trkpt lat="47.49366" lon="6.71106">
        <ele>511</ele>
        <time>2014-03-30T09:04:49.175Z</time>
      </trkpt>
      <trkpt lat="47.49367" lon="6.71106">
        <ele>510</ele>
        <time>2014-03-30T09:04:54.128Z</time>
      </trkpt>
      <trkpt lat="47.49367" lon="6.71107">
        <ele>509</ele>
        <time>2014-03-30T09:04:59.205Z</time>
      </trkpt>
      <trkpt lat="47.49367" lon="6.71107">
        <ele>509</ele>
        <time>2014-03-30T09:05:04.132Z</time>
      </trkpt>
      <trkpt lat="47.49367" lon="6.71107">
        <ele>509</ele>
        <time>2014-03-30T09:05:09.211Z</time>
      </trkpt>
      <trkpt lat="47.49367" lon="6.71107">
        <ele>509</ele>
        <time>2014-03-30T09:05:14.140Z</time>
      </trkpt>
      <trkpt lat="47.49367" lon="6.71107">
        <ele>509</ele>
        <time>2014-03-30T09:05:19.208Z</time>
      </trkpt>
      <trkpt lat="47.49367" lon="6.71107">
        <ele>509</ele>
        <time>2014-03-30T09:05:24.137Z</time>
      </trkpt>
      <trkpt lat="47.49364" lon="6.71101">
        <ele>512</ele>
        <time>2014-03-30T09:05:29.205Z</time>
      </trkpt>
      <trkpt lat="47.49363" lon="6.71099">
        <ele>514</ele>
        <time>2014-03-30T09:05:34.126Z</time>
      </trkpt>
      <trkpt lat="47.49363" lon="6.71098">
        <ele>515</ele>
        <time>2014-03-30T09:05:39.205Z</time>
      </trkpt>
      <trkpt lat="47.49364" lon="6.71098">
        <ele>515</ele>
        <time>2014-03-30T09:05:44.133Z</time>
      </trkpt>
      <trkpt lat="47.49365" lon="6.71097">
        <ele>515</ele>
        <time>2014-03-30T09:05:49.206Z</time>
      </trkpt>
      <trkpt lat="47.49366" lon="6.71096">
        <ele>514</ele>
        <time>2014-03-30T09:05:54.138Z</time>
      </trkpt>
      <trkpt lat="47.49366" lon="6.71094">
        <ele>513</ele>
        <time>2014-03-30T09:05:59.208Z</time>
      </trkpt>
      <trkpt lat="47.49363" lon="6.71092">
        <ele>512</ele>
        <time>2014-03-30T09:06:04.133Z</time>
      </trkpt>
      <trkpt lat="47.49364" lon="6.71096">
        <ele>512</ele>
        <time>2014-03-30T09:06:09.199Z</time>
      </trkpt>
      <trkpt lat="47.49363" lon="6.71095">
        <ele>510</ele>
        <time>2014-03-30T09:06:14.139Z</time>
      </trkpt>
      <trkpt lat="47.49356" lon="6.71084">
        <ele>512</ele>
        <time>2014-03-30T09:06:19.205Z</time>
      </trkpt>
      <trkpt lat="47.4935" lon="6.71071">
        <ele>513</ele>
        <time>2014-03-30T09:06:24.124Z</time>
      </trkpt>
      <trkpt lat="47.49345" lon="6.71056">
        <ele>515</ele>
        <time>2014-03-30T09:06:29.205Z</time>
      </trkpt>
      <trkpt lat="47.49334" lon="6.71037">
        <ele>514</ele>
        <time>2014-03-30T09:06:34.128Z</time>
      </trkpt>
      <trkpt lat="47.49321" lon="6.71017">
        <ele>515</ele>
        <time>2014-03-30T09:06:39.206Z</time>
      </trkpt>
      <trkpt lat="47.49308" lon="6.70997">
        <ele>515</ele>
        <time>2014-03-30T09:06:44.129Z</time>
      </trkpt>
      <trkpt lat="47.493" lon="6.70972">
        <ele>516</ele>
        <time>2014-03-30T09:06:49.208Z</time>
      </trkpt>
      <trkpt lat="47.49284" lon="6.70954">
        <ele>514</ele>
        <time>2014-03-30T09:06:54.125Z</time>
      </trkpt>
      <trkpt lat="47.49278" lon="6.70938">
        <ele>515</ele>
        <time>2014-03-30T09:06:59.204Z</time>
      </trkpt>
      <trkpt lat="47.49268" lon="6.70919">
        <ele>516</ele>
        <time>2014-03-30T09:07:04.125Z</time>
      </trkpt>
      <trkpt lat="47.49255" lon="6.709">
        <ele>515</ele>
        <time>2014-03-30T09:07:09.206Z</time>
      </trkpt>
      <trkpt lat="47.49245" lon="6.70883">
        <ele>514</ele>
        <time>2014-03-30T09:07:14.125Z</time>
      </trkpt>
      <trkpt lat="47.49229" lon="6.70859">
        <ele>513</ele>
        <time>2014-03-30T09:07:19.208Z</time>
      </trkpt>
      <trkpt lat="47.49219" lon="6.70844">
        <ele>511</ele>
        <time>2014-03-30T09:07:24.125Z</time>
      </trkpt>
      <trkpt lat="47.49207" lon="6.70824">
        <ele>509</ele>
        <time>2014-03-30T09:07:29.188Z</time>
      </trkpt>
      <trkpt lat="47.4919" lon="6.70796">
        <ele>510</ele>
        <time>2014-03-30T09:07:34.212Z</time>
      </trkpt>
      <trkpt lat="47.49179" lon="6.70776">
        <ele>510</ele>
        <time>2014-03-30T09:07:39.124Z</time>
      </trkpt>
      <trkpt lat="47.49168" lon="6.70755">
        <ele>509</ele>
        <time>2014-03-30T09:07:44.208Z</time>
      </trkpt>
      <trkpt lat="47.49156" lon="6.70733">
        <ele>508</ele>
        <time>2014-03-30T09:07:49.135Z</time>
      </trkpt>
      <trkpt lat="47.49147" lon="6.7071">
        <ele>508</ele>
        <time>2014-03-30T09:07:54.203Z</time>
      </trkpt>
      <trkpt lat="47.49137" lon="6.70684">
        <ele>507</ele>
        <time>2014-03-30T09:07:59.128Z</time>
      </trkpt>
      <trkpt lat="47.49126" lon="6.70657">
        <ele>509</ele>
        <time>2014-03-30T09:08:04.201Z</time>
      </trkpt>
      <trkpt lat="47.49115" lon="6.70628">
        <ele>510</ele>
        <time>2014-03-30T09:08:09.136Z</time>
      </trkpt>
      <trkpt lat="47.49106" lon="6.706">
        <ele>511</ele>
        <time>2014-03-30T09:08:14.202Z</time>
      </trkpt>
      <trkpt lat="47.49097" lon="6.70578">
        <ele>511</ele>
        <time>2014-03-30T09:08:19.138Z</time>
      </trkpt>
      <trkpt lat="47.49081" lon="6.70545">
        <ele>510</ele>
        <time>2014-03-30T09:08:24.204Z</time>
      </trkpt>
      <trkpt lat="47.49065" lon="6.70506">
        <ele>509</ele>
        <time>2014-03-30T09:08:29.133Z</time>
      </trkpt>
      <trkpt lat="47.49056" lon="6.70471">
        <ele>509</ele>
        <time>2014-03-30T09:08:34.202Z</time>
      </trkpt>
      <trkpt lat="47.49044" lon="6.70439">
        <ele>510</ele>
        <time>2014-03-30T09:08:39.209Z</time>
      </trkpt>
      <trkpt lat="47.49034" lon="6.70406">
        <ele>510</ele>
        <time>2014-03-30T09:08:44.136Z</time>
      </trkpt>
      <trkpt lat="47.49023" lon="6.70372">
        <ele>509</ele>
        <time>2014-03-30T09:08:49.207Z</time>
      </trkpt>
      <trkpt lat="47.49019" lon="6.7034">
        <ele>507</ele>
        <time>2014-03-30T09:08:54.136Z</time>
      </trkpt>
      <trkpt lat="47.49006" lon="6.70302">
        <ele>507</ele>
        <time>2014-03-30T09:08:59.208Z</time>
      </trkpt>
      <trkpt lat="47.49" lon="6.70264">
        <ele>507</ele>
        <time>2014-03-30T09:09:04.125Z</time>
      </trkpt>
      <trkpt lat="47.48991" lon="6.70219">
        <ele>507</ele>
        <time>2014-03-30T09:09:09.210Z</time>
      </trkpt>
      <trkpt lat="47.48983" lon="6.70175">
        <ele>505</ele>
        <time>2014-03-30T09:09:14.137Z</time>
      </trkpt>
      <trkpt lat="47.48967" lon="6.70119">
        <ele>501</ele>
        <time>2014-03-30T09:09:19.208Z</time>
      </trkpt>
      <trkpt lat="47.48952" lon="6.70071">
        <ele>499</ele>
        <time>2014-03-30T09:09:24.131Z</time>
      </trkpt>
      <trkpt lat="47.48926" lon="6.70026">
        <ele>497</ele>
        <time>2014-03-30T09:09:29.175Z</time>
      </trkpt>
      <trkpt lat="47.48897" lon="6.69978">
        <ele>493</ele>
        <time>2014-03-30T09:09:34.125Z</time>
      </trkpt>
      <trkpt lat="47.4887" lon="6.69923">
        <ele>490</ele>
        <time>2014-03-30T09:09:39.213Z</time>
      </trkpt>
      <trkpt lat="47.48809" lon="6.69809">
        <ele>480</ele>
        <time>2014-03-30T09:09:49.206Z</time>
      </trkpt>
      <trkpt lat="47.4878" lon="6.69765">
        <ele>477</ele>
        <time>2014-03-30T09:09:54.131Z</time>
      </trkpt>
      <trkpt lat="47.48754" lon="6.69725">
        <ele>474</ele>
        <time>2014-03-30T09:09:59.206Z</time>
      </trkpt>
      <trkpt lat="47.48726" lon="6.69678">
        <ele>469</ele>
        <time>2014-03-30T09:10:04.134Z</time>
      </trkpt>
      <trkpt lat="47.48688" lon="6.6963">
        <ele>463</ele>
        <time>2014-03-30T09:10:09.206Z</time>
      </trkpt>
      <trkpt lat="47.48654" lon="6.69575">
        <ele>460</ele>
        <time>2014-03-30T09:10:14.124Z</time>
      </trkpt>
      <trkpt lat="47.48623" lon="6.69528">
        <ele>455</ele>
        <time>2014-03-30T09:10:19.206Z</time>
      </trkpt>
      <trkpt lat="47.4859" lon="6.6949">
        <ele>453</ele>
        <time>2014-03-30T09:10:24.123Z</time>
      </trkpt>
      <trkpt lat="47.48562" lon="6.69445">
        <ele>450</ele>
        <time>2014-03-30T09:10:29.206Z</time>
      </trkpt>
      <trkpt lat="47.48533" lon="6.694">
        <ele>447</ele>
        <time>2014-03-30T09:10:34.126Z</time>
      </trkpt>
      <trkpt lat="47.48501" lon="6.6936">
        <ele>443</ele>
        <time>2014-03-30T09:10:39.189Z</time>
      </trkpt>
      <trkpt lat="47.48468" lon="6.69328">
        <ele>440</ele>
        <time>2014-03-30T09:10:44.122Z</time>
      </trkpt>
      <trkpt lat="47.4844" lon="6.69285">
        <ele>438</ele>
        <time>2014-03-30T09:10:49.203Z</time>
      </trkpt>
      <trkpt lat="47.48412" lon="6.6925">
        <ele>435</ele>
        <time>2014-03-30T09:10:54.134Z</time>
      </trkpt>
      <trkpt lat="47.48386" lon="6.69222">
        <ele>434</ele>
        <time>2014-03-30T09:10:59.205Z</time>
      </trkpt>
      <trkpt lat="47.48353" lon="6.69215">
        <ele>431</ele>
        <time>2014-03-30T09:11:04.139Z</time>
      </trkpt>
      <trkpt lat="47.4833" lon="6.69199">
        <ele>430</ele>
        <time>2014-03-30T09:11:09.203Z</time>
      </trkpt>
      <trkpt lat="47.48304" lon="6.69205">
        <ele>428</ele>
        <time>2014-03-30T09:11:14.137Z</time>
      </trkpt>
      <trkpt lat="47.4828" lon="6.69229">
        <ele>425</ele>
        <time>2014-03-30T09:11:19.206Z</time>
      </trkpt>
      <trkpt lat="47.48254" lon="6.69213">
        <ele>420</ele>
        <time>2014-03-30T09:11:24.133Z</time>
      </trkpt>
      <trkpt lat="47.48237" lon="6.69173">
        <ele>417</ele>
        <time>2014-03-30T09:11:29.214Z</time>
      </trkpt>
      <trkpt lat="47.48224" lon="6.69139">
        <ele>416</ele>
        <time>2014-03-30T09:11:34.128Z</time>
      </trkpt>
      <trkpt lat="47.48213" lon="6.69112">
        <ele>415</ele>
        <time>2014-03-30T09:11:39.209Z</time>
      </trkpt>
      <trkpt lat="47.48213" lon="6.69108">
        <ele>417</ele>
        <time>2014-03-30T09:11:44.127Z</time>
      </trkpt>
      <trkpt lat="47.48215" lon="6.69107">
        <ele>417</ele>
        <time>2014-03-30T09:11:49.177Z</time>
      </trkpt>
      <trkpt lat="47.48215" lon="6.69106">
        <ele>418</ele>
        <time>2014-03-30T09:11:54.139Z</time>
      </trkpt>
      <trkpt lat="47.48215" lon="6.69106">
        <ele>418</ele>
        <time>2014-03-30T09:11:59.205Z</time>
      </trkpt>
      <trkpt lat="47.48215" lon="6.69106">
        <ele>418</ele>
        <time>2014-03-30T09:12:04.127Z</time>
      </trkpt>
      <trkpt lat="47.48215" lon="6.69106">
        <ele>418</ele>
        <time>2014-03-30T09:12:09.210Z</time>
      </trkpt>
      <trkpt lat="47.48214" lon="6.69105">
        <ele>418</ele>
        <time>2014-03-30T09:12:14.121Z</time>
      </trkpt>
      <trkpt lat="47.48215" lon="6.69105">
        <ele>418</ele>
        <time>2014-03-30T09:12:19.212Z</time>
      </trkpt>
      <trkpt lat="47.48215" lon="6.69105">
        <ele>418</ele>
        <time>2014-03-30T09:12:24.123Z</time>
      </trkpt>
      <trkpt lat="47.48216" lon="6.69106">
        <ele>418</ele>
        <time>2014-03-30T09:12:29.211Z</time>
      </trkpt>
      <trkpt lat="47.48216" lon="6.69103">
        <ele>418</ele>
        <time>2014-03-30T09:12:34.125Z</time>
      </trkpt>
      <trkpt lat="47.48214" lon="6.69094">
        <ele>418</ele>
        <time>2014-03-30T09:12:39.207Z</time>
      </trkpt>
      <trkpt lat="47.48216" lon="6.69077">
        <ele>416</ele>
        <time>2014-03-30T09:12:44.126Z</time>
      </trkpt>
      <trkpt lat="47.4822" lon="6.69064">
        <ele>416</ele>
        <time>2014-03-30T09:12:49.178Z</time>
      </trkpt>
      <trkpt lat="47.48228" lon="6.69048">
        <ele>416</ele>
        <time>2014-03-30T09:12:54.126Z</time>
      </trkpt>
      <trkpt lat="47.48242" lon="6.69033">
        <ele>415</ele>
        <time>2014-03-30T09:12:59.209Z</time>
      </trkpt>
      <trkpt lat="47.48257" lon="6.69019">
        <ele>416</ele>
        <time>2014-03-30T09:13:04.124Z</time>
      </trkpt>
      <trkpt lat="47.48271" lon="6.69008">
        <ele>417</ele>
        <time>2014-03-30T09:13:09.203Z</time>
      </trkpt>
      <trkpt lat="47.48278" lon="6.69011">
        <ele>417</ele>
        <time>2014-03-30T09:13:14.126Z</time>
      </trkpt>
      <trkpt lat="47.48287" lon="6.69015">
        <ele>416</ele>
        <time>2014-03-30T09:13:19.204Z</time>
      </trkpt>
      <trkpt lat="47.48302" lon="6.69011">
        <ele>416</ele>
        <time>2014-03-30T09:13:24.123Z</time>
      </trkpt>
      <trkpt lat="47.48321" lon="6.69013">
        <ele>414</ele>
        <time>2014-03-30T09:13:29.211Z</time>
      </trkpt>
      <trkpt lat="47.48333" lon="6.69016">
        <ele>413</ele>
        <time>2014-03-30T09:13:34.135Z</time>
      </trkpt>
      <trkpt lat="47.48346" lon="6.6902">
        <ele>413</ele>
        <time>2014-03-30T09:13:39.206Z</time>
      </trkpt>
      <trkpt lat="47.48359" lon="6.69019">
        <ele>413</ele>
        <time>2014-03-30T09:13:44.133Z</time>
      </trkpt>
      <trkpt lat="47.48374" lon="6.69009">
        <ele>414</ele>
        <time>2014-03-30T09:13:49.207Z</time>
      </trkpt>
      <trkpt lat="47.48385" lon="6.68986">
        <ele>413</ele>
        <time>2014-03-30T09:13:54.123Z</time>
      </trkpt>
      <trkpt lat="47.48394" lon="6.68966">
        <ele>411</ele>
        <time>2014-03-30T09:13:59.204Z</time>
      </trkpt>
      <trkpt lat="47.48403" lon="6.68947">
        <ele>410</ele>
        <time>2014-03-30T09:14:04.130Z</time>
      </trkpt>
      <trkpt lat="47.48415" lon="6.68928">
        <ele>408</ele>
        <time>2014-03-30T09:14:09.121Z</time>
      </trkpt>
      <trkpt lat="47.48424" lon="6.68907">
        <ele>408</ele>
        <time>2014-03-30T09:14:14.203Z</time>
      </trkpt>
      <trkpt lat="47.48433" lon="6.68882">
        <ele>406</ele>
        <time>2014-03-30T09:14:19.133Z</time>
      </trkpt>
      <trkpt lat="47.48444" lon="6.68849">
        <ele>405</ele>
        <time>2014-03-30T09:14:24.199Z</time>
      </trkpt>
      <trkpt lat="47.48453" lon="6.68808">
        <ele>404</ele>
        <time>2014-03-30T09:14:29.122Z</time>
      </trkpt>
      <trkpt lat="47.4846" lon="6.68763">
        <ele>404</ele>
        <time>2014-03-30T09:14:34.210Z</time>
      </trkpt>
      <trkpt lat="47.48486" lon="6.68752">
        <ele>405</ele>
        <time>2014-03-30T09:14:39.122Z</time>
      </trkpt>
      <trkpt lat="47.48511" lon="6.68733">
        <ele>405</ele>
        <time>2014-03-30T09:14:44.210Z</time>
      </trkpt>
      <trkpt lat="47.48522" lon="6.687">
        <ele>405</ele>
        <time>2014-03-30T09:14:49.121Z</time>
      </trkpt>
      <trkpt lat="47.48525" lon="6.68677">
        <ele>406</ele>
        <time>2014-03-30T09:14:54.284Z</time>
      </trkpt>
      <trkpt lat="47.48557" lon="6.68674">
        <ele>405</ele>
        <time>2014-03-30T09:14:59.121Z</time>
      </trkpt>
      <trkpt lat="47.48565" lon="6.68666">
        <ele>400</ele>
        <time>2014-03-30T09:15:04.202Z</time>
      </trkpt>
      <trkpt lat="47.48567" lon="6.68655">
        <ele>398</ele>
        <time>2014-03-30T09:15:09.125Z</time>
      </trkpt>
      <trkpt lat="47.48568" lon="6.68641">
        <ele>398</ele>
        <time>2014-03-30T09:15:14.172Z</time>
      </trkpt>
      <trkpt lat="47.48571" lon="6.6863">
        <ele>400</ele>
        <time>2014-03-30T09:15:19.119Z</time>
      </trkpt>
      <trkpt lat="47.48579" lon="6.68625">
        <ele>400</ele>
        <time>2014-03-30T09:15:24.206Z</time>
      </trkpt>
      <trkpt lat="47.48584" lon="6.68618">
        <ele>400</ele>
        <time>2014-03-30T09:15:29.118Z</time>
      </trkpt>
      <trkpt lat="47.48591" lon="6.68604">
        <ele>399</ele>
        <time>2014-03-30T09:15:34.204Z</time>
      </trkpt>
      <trkpt lat="47.48595" lon="6.68588">
        <ele>400</ele>
        <time>2014-03-30T09:15:39.116Z</time>
      </trkpt>
      <trkpt lat="47.48594" lon="6.68573">
        <ele>400</ele>
        <time>2014-03-30T09:15:44.206Z</time>
      </trkpt>
      <trkpt lat="47.48593" lon="6.68561">
        <ele>402</ele>
        <time>2014-03-30T09:15:49.118Z</time>
      </trkpt>
      <trkpt lat="47.48591" lon="6.68545">
        <ele>402</ele>
        <time>2014-03-30T09:15:54.172Z</time>
      </trkpt>
      <trkpt lat="47.48591" lon="6.68529">
        <ele>405</ele>
        <time>2014-03-30T09:15:59.127Z</time>
      </trkpt>
      <trkpt lat="47.48588" lon="6.68513">
        <ele>407</ele>
        <time>2014-03-30T09:16:04.204Z</time>
      </trkpt>
      <trkpt lat="47.48586" lon="6.68498">
        <ele>411</ele>
        <time>2014-03-30T09:16:09.118Z</time>
      </trkpt>
      <trkpt lat="47.48585" lon="6.68488">
        <ele>413</ele>
        <time>2014-03-30T09:16:14.204Z</time>
      </trkpt>
      <trkpt lat="47.48583" lon="6.68483">
        <ele>413</ele>
        <time>2014-03-30T09:16:19.127Z</time>
      </trkpt>
      <trkpt lat="47.48579" lon="6.68474">
        <ele>414</ele>
        <time>2014-03-30T09:16:24.204Z</time>
      </trkpt>
      <trkpt lat="47.48576" lon="6.68461">
        <ele>413</ele>
        <time>2014-03-30T09:16:29.119Z</time>
      </trkpt>
      <trkpt lat="47.48575" lon="6.68446">
        <ele>413</ele>
        <time>2014-03-30T09:16:34.202Z</time>
      </trkpt>
      <trkpt lat="47.48571" lon="6.68435">
        <ele>412</ele>
        <time>2014-03-30T09:16:39.121Z</time>
      </trkpt>
      <trkpt lat="47.48568" lon="6.68422">
        <ele>411</ele>
        <time>2014-03-30T09:16:44.202Z</time>
      </trkpt>
      <trkpt lat="47.48558" lon="6.6841">
        <ele>412</ele>
        <time>2014-03-30T09:16:49.127Z</time>
      </trkpt>
      <trkpt lat="47.48547" lon="6.684">
        <ele>409</ele>
        <time>2014-03-30T09:16:54.207Z</time>
      </trkpt>
      <trkpt lat="47.48535" lon="6.68393">
        <ele>409</ele>
        <time>2014-03-30T09:16:59.087Z</time>
      </trkpt>
      <trkpt lat="47.48524" lon="6.68384">
        <ele>409</ele>
        <time>2014-03-30T09:17:04.180Z</time>
      </trkpt>
      <trkpt lat="47.48514" lon="6.68377">
        <ele>409</ele>
        <time>2014-03-30T09:17:09.127Z</time>
      </trkpt>
      <trkpt lat="47.48507" lon="6.68371">
        <ele>409</ele>
        <time>2014-03-30T09:17:14.204Z</time>
      </trkpt>
      <trkpt lat="47.48504" lon="6.68364">
        <ele>411</ele>
        <time>2014-03-30T09:17:19.127Z</time>
      </trkpt>
      <trkpt lat="47.48497" lon="6.68358">
        <ele>412</ele>
        <time>2014-03-30T09:17:24.168Z</time>
      </trkpt>
      <trkpt lat="47.48491" lon="6.68363">
        <ele>413</ele>
        <time>2014-03-30T09:17:29.159Z</time>
      </trkpt>
      <trkpt lat="47.48483" lon="6.68366">
        <ele>413</ele>
        <time>2014-03-30T09:17:34.094Z</time>
      </trkpt>
      <trkpt lat="47.48474" lon="6.68379">
        <ele>415</ele>
        <time>2014-03-30T09:17:44.119Z</time>
      </trkpt>
      <trkpt lat="47.48474" lon="6.68379">
        <ele>415</ele>
        <time>2014-03-30T09:17:44.119Z</time>
      </trkpt>
      <trkpt lat="47.48471" lon="6.684">
        <ele>416</ele>
        <time>2014-03-30T09:17:54.121Z</time>
      </trkpt>
      <trkpt lat="47.48467" lon="6.68408">
        <ele>417</ele>
        <time>2014-03-30T09:17:59.199Z</time>
      </trkpt>
      <trkpt lat="47.48464" lon="6.68416">
        <ele>419</ele>
        <time>2014-03-30T09:18:04.209Z</time>
      </trkpt>
      <trkpt lat="47.48461" lon="6.68425">
        <ele>420</ele>
        <time>2014-03-30T09:18:09.250Z</time>
      </trkpt>
      <trkpt lat="47.48454" lon="6.68429">
        <ele>420</ele>
        <time>2014-03-30T09:18:14.225Z</time>
      </trkpt>
      <trkpt lat="47.48446" lon="6.68438">
        <ele>421</ele>
        <time>2014-03-30T09:18:19.304Z</time>
      </trkpt>
      <trkpt lat="47.48442" lon="6.68444">
        <ele>423</ele>
        <time>2014-03-30T09:18:24.222Z</time>
      </trkpt>
      <trkpt lat="47.48439" lon="6.68451">
        <ele>425</ele>
        <time>2014-03-30T09:18:29.125Z</time>
      </trkpt>
      <trkpt lat="47.48437" lon="6.68457">
        <ele>426</ele>
        <time>2014-03-30T09:18:34.311Z</time>
      </trkpt>
      <trkpt lat="47.48433" lon="6.68463">
        <ele>426</ele>
        <time>2014-03-30T09:18:39.219Z</time>
      </trkpt>
      <trkpt lat="47.48425" lon="6.68466">
        <ele>427</ele>
        <time>2014-03-30T09:18:44.279Z</time>
      </trkpt>
      <trkpt lat="47.48419" lon="6.68471">
        <ele>427</ele>
        <time>2014-03-30T09:18:49.221Z</time>
      </trkpt>
      <trkpt lat="47.48416" lon="6.68477">
        <ele>429</ele>
        <time>2014-03-30T09:18:54.307Z</time>
      </trkpt>
      <trkpt lat="47.48409" lon="6.68483">
        <ele>429</ele>
        <time>2014-03-30T09:18:59.230Z</time>
      </trkpt>
      <trkpt lat="47.48406" lon="6.68488">
        <ele>430</ele>
        <time>2014-03-30T09:19:04.306Z</time>
      </trkpt>
      <trkpt lat="47.48404" lon="6.68487">
        <ele>429</ele>
        <time>2014-03-30T09:19:09.208Z</time>
      </trkpt>
      <trkpt lat="47.48399" lon="6.68487">
        <ele>430</ele>
        <time>2014-03-30T09:19:14.304Z</time>
      </trkpt>
      <trkpt lat="47.48395" lon="6.68486">
        <ele>432</ele>
        <time>2014-03-30T09:19:19.219Z</time>
      </trkpt>
      <trkpt lat="47.48387" lon="6.68489">
        <ele>433</ele>
        <time>2014-03-30T09:19:24.302Z</time>
      </trkpt>
      <trkpt lat="47.48383" lon="6.68487">
        <ele>435</ele>
        <time>2014-03-30T09:19:29.221Z</time>
      </trkpt>
      <trkpt lat="47.48377" lon="6.68485">
        <ele>436</ele>
        <time>2014-03-30T09:19:34.304Z</time>
      </trkpt>
      <trkpt lat="47.4837" lon="6.68482">
        <ele>435</ele>
        <time>2014-03-30T09:19:39.222Z</time>
      </trkpt>
      <trkpt lat="47.4836" lon="6.68479">
        <ele>437</ele>
        <time>2014-03-30T09:19:44.303Z</time>
      </trkpt>
      <trkpt lat="47.48357" lon="6.68479">
        <ele>438</ele>
        <time>2014-03-30T09:19:49.221Z</time>
      </trkpt>
      <trkpt lat="47.4835" lon="6.68477">
        <ele>440</ele>
        <time>2014-03-30T09:19:54.304Z</time>
      </trkpt>
      <trkpt lat="47.48345" lon="6.68479">
        <ele>442</ele>
        <time>2014-03-30T09:19:59.221Z</time>
      </trkpt>
      <trkpt lat="47.48342" lon="6.68479">
        <ele>442</ele>
        <time>2014-03-30T09:20:04.225Z</time>
      </trkpt>
      <trkpt lat="47.48344" lon="6.68471">
        <ele>442</ele>
        <time>2014-03-30T09:20:09.306Z</time>
      </trkpt>
      <trkpt lat="47.48345" lon="6.6847">
        <ele>442</ele>
        <time>2014-03-30T09:20:14.225Z</time>
      </trkpt>
      <trkpt lat="47.48345" lon="6.6847">
        <ele>442</ele>
        <time>2014-03-30T09:20:19.288Z</time>
      </trkpt>
      <trkpt lat="47.48348" lon="6.68472">
        <ele>443</ele>
        <time>2014-03-30T09:20:24.232Z</time>
      </trkpt>
      <trkpt lat="47.48348" lon="6.68472">
        <ele>444</ele>
        <time>2014-03-30T09:20:29.305Z</time>
      </trkpt>
      <trkpt lat="47.4835" lon="6.68476">
        <ele>445</ele>
        <time>2014-03-30T09:20:34.230Z</time>
      </trkpt>
      <trkpt lat="47.4835" lon="6.68476">
        <ele>445</ele>
        <time>2014-03-30T09:20:39.306Z</time>
      </trkpt>
      <trkpt lat="47.4835" lon="6.68476">
        <ele>445</ele>
        <time>2014-03-30T09:20:44.220Z</time>
      </trkpt>
      <trkpt lat="47.48352" lon="6.68477">
        <ele>444</ele>
        <time>2014-03-30T09:20:49.301Z</time>
      </trkpt>
      <trkpt lat="47.48357" lon="6.68477">
        <ele>443</ele>
        <time>2014-03-30T09:20:54.219Z</time>
      </trkpt>
      <trkpt lat="47.48359" lon="6.68477">
        <ele>442</ele>
        <time>2014-03-30T09:20:59.313Z</time>
      </trkpt>
      <trkpt lat="47.4836" lon="6.68478">
        <ele>442</ele>
        <time>2014-03-30T09:21:04.222Z</time>
      </trkpt>
      <trkpt lat="47.48362" lon="6.68478">
        <ele>441</ele>
        <time>2014-03-30T09:21:09.306Z</time>
      </trkpt>
      <trkpt lat="47.48369" lon="6.68479">
        <ele>440</ele>
        <time>2014-03-30T09:21:14.222Z</time>
      </trkpt>
      <trkpt lat="47.48372" lon="6.6848">
        <ele>438</ele>
        <time>2014-03-30T09:21:19.304Z</time>
      </trkpt>
      <trkpt lat="47.48369" lon="6.68482">
        <ele>438</ele>
        <time>2014-03-30T09:21:24.223Z</time>
      </trkpt>
      <trkpt lat="47.48369" lon="6.68482">
        <ele>438</ele>
        <time>2014-03-30T09:21:29.307Z</time>
      </trkpt>
      <trkpt lat="47.48368" lon="6.68481">
        <ele>439</ele>
        <time>2014-03-30T09:21:34.231Z</time>
      </trkpt>
      <trkpt lat="47.48367" lon="6.68481">
        <ele>439</ele>
        <time>2014-03-30T09:21:39.308Z</time>
      </trkpt>
      <trkpt lat="47.48367" lon="6.68481">
        <ele>439</ele>
        <time>2014-03-30T09:21:44.226Z</time>
      </trkpt>
      <trkpt lat="47.48367" lon="6.68481">
        <ele>439</ele>
        <time>2014-03-30T09:21:49.306Z</time>
      </trkpt>
      <trkpt lat="47.48367" lon="6.68481">
        <ele>439</ele>
        <time>2014-03-30T09:21:54.227Z</time>
      </trkpt>
      <trkpt lat="47.48367" lon="6.68481">
        <ele>439</ele>
        <time>2014-03-30T09:21:59.276Z</time>
      </trkpt>
      <trkpt lat="47.48367" lon="6.68481">
        <ele>439</ele>
        <time>2014-03-30T09:22:04.228Z</time>
      </trkpt>
      <trkpt lat="47.48367" lon="6.68481">
        <ele>440</ele>
        <time>2014-03-30T09:22:09.307Z</time>
      </trkpt>
      <trkpt lat="47.48367" lon="6.68481">
        <ele>440</ele>
        <time>2014-03-30T09:22:14.239Z</time>
      </trkpt>
      <trkpt lat="47.48366" lon="6.68481">
        <ele>440</ele>
        <time>2014-03-30T09:22:19.306Z</time>
      </trkpt>
      <trkpt lat="47.48366" lon="6.68482">
        <ele>441</ele>
        <time>2014-03-30T09:22:24.226Z</time>
      </trkpt>
      <trkpt lat="47.48365" lon="6.68482">
        <ele>440</ele>
        <time>2014-03-30T09:22:29.306Z</time>
      </trkpt>
      <trkpt lat="47.48365" lon="6.68482">
        <ele>440</ele>
        <time>2014-03-30T09:22:34.225Z</time>
      </trkpt>
      <trkpt lat="47.48364" lon="6.6848">
        <ele>440</ele>
        <time>2014-03-30T09:22:39.306Z</time>
      </trkpt>
      <trkpt lat="47.48366" lon="6.6848">
        <ele>442</ele>
        <time>2014-03-30T09:22:44.233Z</time>
      </trkpt>
      <trkpt lat="47.48367" lon="6.68478">
        <ele>443</ele>
        <time>2014-03-30T09:22:49.307Z</time>
      </trkpt>
      <trkpt lat="47.48365" lon="6.68475">
        <ele>443</ele>
        <time>2014-03-30T09:22:54.226Z</time>
      </trkpt>
      <trkpt lat="47.48361" lon="6.68471">
        <ele>446</ele>
        <time>2014-03-30T09:22:59.298Z</time>
      </trkpt>
      <trkpt lat="47.4836" lon="6.68467">
        <ele>446</ele>
        <time>2014-03-30T09:23:04.233Z</time>
      </trkpt>
      <trkpt lat="47.48361" lon="6.68472">
        <ele>447</ele>
        <time>2014-03-30T09:23:09.308Z</time>
      </trkpt>
      <trkpt lat="47.48362" lon="6.68473">
        <ele>447</ele>
        <time>2014-03-30T09:23:14.239Z</time>
      </trkpt>
      <trkpt lat="47.48365" lon="6.68477">
        <ele>447</ele>
        <time>2014-03-30T09:23:19.310Z</time>
      </trkpt>
      <trkpt lat="47.48365" lon="6.68477">
        <ele>447</ele>
        <time>2014-03-30T09:23:24.236Z</time>
      </trkpt>
      <trkpt lat="47.48365" lon="6.68478">
        <ele>446</ele>
        <time>2014-03-30T09:23:29.284Z</time>
      </trkpt>
      <trkpt lat="47.4836" lon="6.68478">
        <ele>446</ele>
        <time>2014-03-30T09:23:34.228Z</time>
      </trkpt>
      <trkpt lat="47.48355" lon="6.68481">
        <ele>445</ele>
        <time>2014-03-30T09:23:39.306Z</time>
      </trkpt>
      <trkpt lat="47.48354" lon="6.68482">
        <ele>446</ele>
        <time>2014-03-30T09:23:44.231Z</time>
      </trkpt>
      <trkpt lat="47.48352" lon="6.68483">
        <ele>447</ele>
        <time>2014-03-30T09:23:49.307Z</time>
      </trkpt>
      <trkpt lat="47.48348" lon="6.68481">
        <ele>448</ele>
        <time>2014-03-30T09:23:54.226Z</time>
      </trkpt>
      <trkpt lat="47.48349" lon="6.68474">
        <ele>448</ele>
        <time>2014-03-30T09:23:59.305Z</time>
      </trkpt>
      <trkpt lat="47.4835" lon="6.6847">
        <ele>448</ele>
        <time>2014-03-30T09:24:04.235Z</time>
      </trkpt>
      <trkpt lat="47.48353" lon="6.68466">
        <ele>447</ele>
        <time>2014-03-30T09:24:09.306Z</time>
      </trkpt>
      <trkpt lat="47.48359" lon="6.68457">
        <ele>445</ele>
        <time>2014-03-30T09:24:14.235Z</time>
      </trkpt>
      <trkpt lat="47.48365" lon="6.68446">
        <ele>444</ele>
        <time>2014-03-30T09:24:19.308Z</time>
      </trkpt>
      <trkpt lat="47.48375" lon="6.68433">
        <ele>444</ele>
        <time>2014-03-30T09:24:24.227Z</time>
      </trkpt>
      <trkpt lat="47.4838" lon="6.68422">
        <ele>446</ele>
        <time>2014-03-30T09:24:29.306Z</time>
      </trkpt>
      <trkpt lat="47.4838" lon="6.6841">
        <ele>449</ele>
        <time>2014-03-30T09:24:34.239Z</time>
      </trkpt>
      <trkpt lat="47.48382" lon="6.68398">
        <ele>451</ele>
        <time>2014-03-30T09:24:39.278Z</time>
      </trkpt>
      <trkpt lat="47.48383" lon="6.68387">
        <ele>452</ele>
        <time>2014-03-30T09:24:44.234Z</time>
      </trkpt>
      <trkpt lat="47.48386" lon="6.68376">
        <ele>453</ele>
        <time>2014-03-30T09:24:49.307Z</time>
      </trkpt>
      <trkpt lat="47.48385" lon="6.68364">
        <ele>454</ele>
        <time>2014-03-30T09:24:54.229Z</time>
      </trkpt>
      <trkpt lat="47.48385" lon="6.68352">
        <ele>456</ele>
        <time>2014-03-30T09:24:59.306Z</time>
      </trkpt>
      <trkpt lat="47.48387" lon="6.68344">
        <ele>458</ele>
        <time>2014-03-30T09:25:04.232Z</time>
      </trkpt>
      <trkpt lat="47.48387" lon="6.68334">
        <ele>458</ele>
        <time>2014-03-30T09:25:09.308Z</time>
      </trkpt>
      <trkpt lat="47.48388" lon="6.68323">
        <ele>459</ele>
        <time>2014-03-30T09:25:14.226Z</time>
      </trkpt>
      <trkpt lat="47.48392" lon="6.68314">
        <ele>457</ele>
        <time>2014-03-30T09:25:19.309Z</time>
      </trkpt>
      <trkpt lat="47.48391" lon="6.68304">
        <ele>459</ele>
        <time>2014-03-30T09:25:24.235Z</time>
      </trkpt>
      <trkpt lat="47.48389" lon="6.68291">
        <ele>460</ele>
        <time>2014-03-30T09:25:29.293Z</time>
      </trkpt>
      <trkpt lat="47.4839" lon="6.68282">
        <ele>461</ele>
        <time>2014-03-30T09:25:34.222Z</time>
      </trkpt>
      <trkpt lat="47.48391" lon="6.68272">
        <ele>461</ele>
        <time>2014-03-30T09:25:39.304Z</time>
      </trkpt>
      <trkpt lat="47.48387" lon="6.68264">
        <ele>462</ele>
        <time>2014-03-30T09:25:44.222Z</time>
      </trkpt>
      <trkpt lat="47.48382" lon="6.68261">
        <ele>463</ele>
        <time>2014-03-30T09:25:49.312Z</time>
      </trkpt>
      <trkpt lat="47.48386" lon="6.6825">
        <ele>463</ele>
        <time>2014-03-30T09:25:54.226Z</time>
      </trkpt>
      <trkpt lat="47.48391" lon="6.68242">
        <ele>463</ele>
        <time>2014-03-30T09:25:59.307Z</time>
      </trkpt>
      <trkpt lat="47.48384" lon="6.68235">
        <ele>462</ele>
        <time>2014-03-30T09:26:04.227Z</time>
      </trkpt>
      <trkpt lat="47.48377" lon="6.68232">
        <ele>463</ele>
        <time>2014-03-30T09:26:09.300Z</time>
      </trkpt>
      <trkpt lat="47.48373" lon="6.68228">
        <ele>464</ele>
        <time>2014-03-30T09:26:14.226Z</time>
      </trkpt>
      <trkpt lat="47.48368" lon="6.68222">
        <ele>465</ele>
        <time>2014-03-30T09:26:19.309Z</time>
      </trkpt>
      <trkpt lat="47.48364" lon="6.68214">
        <ele>466</ele>
        <time>2014-03-30T09:26:24.309Z</time>
      </trkpt>
      <trkpt lat="47.48361" lon="6.68206">
        <ele>467</ele>
        <time>2014-03-30T09:26:29.240Z</time>
      </trkpt>
      <trkpt lat="47.48356" lon="6.68199">
        <ele>468</ele>
        <time>2014-03-30T09:26:34.308Z</time>
      </trkpt>
      <trkpt lat="47.48357" lon="6.68194">
        <ele>468</ele>
        <time>2014-03-30T09:26:39.241Z</time>
      </trkpt>
      <trkpt lat="47.48359" lon="6.68188">
        <ele>469</ele>
        <time>2014-03-30T09:26:44.306Z</time>
      </trkpt>
      <trkpt lat="47.48359" lon="6.68179">
        <ele>470</ele>
        <time>2014-03-30T09:26:49.204Z</time>
      </trkpt>
      <trkpt lat="47.48362" lon="6.68162">
        <ele>469</ele>
        <time>2014-03-30T09:26:59.246Z</time>
      </trkpt>
      <trkpt lat="47.48363" lon="6.68154">
        <ele>471</ele>
        <time>2014-03-30T09:27:04.307Z</time>
      </trkpt>
      <trkpt lat="47.48363" lon="6.68154">
        <ele>471</ele>
        <time>2014-03-30T09:27:04.307Z</time>
      </trkpt>
      <trkpt lat="47.48365" lon="6.68137">
        <ele>474</ele>
        <time>2014-03-30T09:27:14.306Z</time>
      </trkpt>
      <trkpt lat="47.48365" lon="6.6813">
        <ele>476</ele>
        <time>2014-03-30T09:27:19.243Z</time>
      </trkpt>
      <trkpt lat="47.48367" lon="6.68123">
        <ele>477</ele>
        <time>2014-03-30T09:27:24.307Z</time>
      </trkpt>
      <trkpt lat="47.48369" lon="6.68114">
        <ele>478</ele>
        <time>2014-03-30T09:27:29.228Z</time>
      </trkpt>
      <trkpt lat="47.48373" lon="6.68103">
        <ele>478</ele>
        <time>2014-03-30T09:27:34.305Z</time>
      </trkpt>
      <trkpt lat="47.48377" lon="6.68095">
        <ele>478</ele>
        <time>2014-03-30T09:27:39.227Z</time>
      </trkpt>
      <trkpt lat="47.4838" lon="6.68087">
        <ele>478</ele>
        <time>2014-03-30T09:27:44.300Z</time>
      </trkpt>
      <trkpt lat="47.4838" lon="6.68078">
        <ele>479</ele>
        <time>2014-03-30T09:27:49.228Z</time>
      </trkpt>
      <trkpt lat="47.4838" lon="6.68071">
        <ele>481</ele>
        <time>2014-03-30T09:27:54.308Z</time>
      </trkpt>
      <trkpt lat="47.48379" lon="6.68064">
        <ele>483</ele>
        <time>2014-03-30T09:27:59.235Z</time>
      </trkpt>
      <trkpt lat="47.48375" lon="6.6806">
        <ele>484</ele>
        <time>2014-03-30T09:28:04.308Z</time>
      </trkpt>
      <trkpt lat="47.48374" lon="6.68058">
        <ele>483</ele>
        <time>2014-03-30T09:28:09.236Z</time>
      </trkpt>
      <trkpt lat="47.48373" lon="6.68056">
        <ele>483</ele>
        <time>2014-03-30T09:28:14.286Z</time>
      </trkpt>
      <trkpt lat="47.4837" lon="6.68049">
        <ele>481</ele>
        <time>2014-03-30T09:28:19.243Z</time>
      </trkpt>
      <trkpt lat="47.4837" lon="6.68049">
        <ele>482</ele>
        <time>2014-03-30T09:28:24.210Z</time>
      </trkpt>
      <trkpt lat="47.4837" lon="6.68047">
        <ele>481</ele>
        <time>2014-03-30T09:28:29.312Z</time>
      </trkpt>
      <trkpt lat="47.4837" lon="6.68049">
        <ele>481</ele>
        <time>2014-03-30T09:28:34.248Z</time>
      </trkpt>
      <trkpt lat="47.4837" lon="6.68049">
        <ele>481</ele>
        <time>2014-03-30T09:28:39.311Z</time>
      </trkpt>
      <trkpt lat="47.48373" lon="6.6805">
        <ele>479</ele>
        <time>2014-03-30T09:28:44.239Z</time>
      </trkpt>
      <trkpt lat="47.48377" lon="6.68051">
        <ele>481</ele>
        <time>2014-03-30T09:28:49.310Z</time>
      </trkpt>
      <trkpt lat="47.48376" lon="6.68051">
        <ele>482</ele>
        <time>2014-03-30T09:28:54.238Z</time>
      </trkpt>
      <trkpt lat="47.48375" lon="6.6805">
        <ele>482</ele>
        <time>2014-03-30T09:28:59.309Z</time>
      </trkpt>
      <trkpt lat="47.48375" lon="6.68052">
        <ele>482</ele>
        <time>2014-03-30T09:29:04.246Z</time>
      </trkpt>
      <trkpt lat="47.48375" lon="6.68052">
        <ele>482</ele>
        <time>2014-03-30T09:29:09.309Z</time>
      </trkpt>
      <trkpt lat="47.48375" lon="6.68052">
        <ele>482</ele>
        <time>2014-03-30T09:29:14.246Z</time>
      </trkpt>
      <trkpt lat="47.48375" lon="6.68052">
        <ele>482</ele>
        <time>2014-03-30T09:29:19.301Z</time>
      </trkpt>
      <trkpt lat="47.4837" lon="6.68055">
        <ele>482</ele>
        <time>2014-03-30T09:29:24.240Z</time>
      </trkpt>
      <trkpt lat="47.48364" lon="6.68057">
        <ele>482</ele>
        <time>2014-03-30T09:29:29.310Z</time>
      </trkpt>
      <trkpt lat="47.48352" lon="6.68062">
        <ele>481</ele>
        <time>2014-03-30T09:29:34.235Z</time>
      </trkpt>
      <trkpt lat="47.48337" lon="6.68065">
        <ele>480</ele>
        <time>2014-03-30T09:29:39.307Z</time>
      </trkpt>
      <trkpt lat="47.48319" lon="6.68062">
        <ele>480</ele>
        <time>2014-03-30T09:29:44.235Z</time>
      </trkpt>
      <trkpt lat="47.48301" lon="6.68051">
        <ele>479</ele>
        <time>2014-03-30T09:29:49.308Z</time>
      </trkpt>
      <trkpt lat="47.48283" lon="6.68036">
        <ele>478</ele>
        <time>2014-03-30T09:29:54.241Z</time>
      </trkpt>
      <trkpt lat="47.48267" lon="6.68017">
        <ele>477</ele>
        <time>2014-03-30T09:29:59.311Z</time>
      </trkpt>
      <trkpt lat="47.48244" lon="6.68011">
        <ele>478</ele>
        <time>2014-03-30T09:30:04.310Z</time>
      </trkpt>
      <trkpt lat="47.48222" lon="6.68009">
        <ele>477</ele>
        <time>2014-03-30T09:30:09.232Z</time>
      </trkpt>
      <trkpt lat="47.48203" lon="6.68">
        <ele>475</ele>
        <time>2014-03-30T09:30:14.309Z</time>
      </trkpt>
      <trkpt lat="47.48182" lon="6.67988">
        <ele>473</ele>
        <time>2014-03-30T09:30:19.230Z</time>
      </trkpt>
      <trkpt lat="47.48162" lon="6.67977">
        <ele>472</ele>
        <time>2014-03-30T09:30:24.307Z</time>
      </trkpt>
      <trkpt lat="47.48146" lon="6.67964">
        <ele>472</ele>
        <time>2014-03-30T09:30:29.428Z</time>
      </trkpt>
      <trkpt lat="47.48129" lon="6.67958">
        <ele>471</ele>
        <time>2014-03-30T09:30:34.306Z</time>
      </trkpt>
      <trkpt lat="47.48119" lon="6.67948">
        <ele>469</ele>
        <time>2014-03-30T09:30:39.234Z</time>
      </trkpt>
      <trkpt lat="47.48116" lon="6.67923">
        <ele>467</ele>
        <time>2014-03-30T09:30:44.308Z</time>
      </trkpt>
      <trkpt lat="47.4811" lon="6.67903">
        <ele>466</ele>
        <time>2014-03-30T09:30:49.221Z</time>
      </trkpt>
      <trkpt lat="47.4811" lon="6.67885">
        <ele>466</ele>
        <time>2014-03-30T09:30:54.297Z</time>
      </trkpt>
      <trkpt lat="47.48109" lon="6.67861">
        <ele>465</ele>
        <time>2014-03-30T09:30:59.222Z</time>
      </trkpt>
      <trkpt lat="47.48093" lon="6.67835">
        <ele>464</ele>
        <time>2014-03-30T09:31:04.307Z</time>
      </trkpt>
      <trkpt lat="47.48079" lon="6.67812">
        <ele>461</ele>
        <time>2014-03-30T09:31:09.228Z</time>
      </trkpt>
      <trkpt lat="47.48078" lon="6.67793">
        <ele>458</ele>
        <time>2014-03-30T09:31:14.308Z</time>
      </trkpt>
      <trkpt lat="47.48079" lon="6.6778">
        <ele>455</ele>
        <time>2014-03-30T09:31:19.231Z</time>
      </trkpt>
      <trkpt lat="47.4808" lon="6.67768">
        <ele>453</ele>
        <time>2014-03-30T09:31:24.281Z</time>
      </trkpt>
      <trkpt lat="47.48079" lon="6.67753">
        <ele>454</ele>
        <time>2014-03-30T09:31:29.227Z</time>
      </trkpt>
      <trkpt lat="47.48081" lon="6.67737">
        <ele>455</ele>
        <time>2014-03-30T09:31:34.219Z</time>
      </trkpt>
      <trkpt lat="47.48085" lon="6.67723">
        <ele>456</ele>
        <time>2014-03-30T09:31:39.308Z</time>
      </trkpt>
      <trkpt lat="47.48087" lon="6.67705">
        <ele>454</ele>
        <time>2014-03-30T09:31:44.222Z</time>
      </trkpt>
      <trkpt lat="47.48089" lon="6.67686">
        <ele>454</ele>
        <time>2014-03-30T09:31:49.307Z</time>
      </trkpt>
      <trkpt lat="47.48093" lon="6.67664">
        <ele>455</ele>
        <time>2014-03-30T09:31:54.223Z</time>
      </trkpt>
      <trkpt lat="47.48096" lon="6.67642">
        <ele>455</ele>
        <time>2014-03-30T09:31:59.308Z</time>
      </trkpt>
      <trkpt lat="47.481" lon="6.6762">
        <ele>453</ele>
        <time>2014-03-30T09:32:04.224Z</time>
      </trkpt>
      <trkpt lat="47.48105" lon="6.67603">
        <ele>452</ele>
        <time>2014-03-30T09:32:09.303Z</time>
      </trkpt>
      <trkpt lat="47.4811" lon="6.67582">
        <ele>452</ele>
        <time>2014-03-30T09:32:14.238Z</time>
      </trkpt>
      <trkpt lat="47.48117" lon="6.67562">
        <ele>452</ele>
        <time>2014-03-30T09:32:19.303Z</time>
      </trkpt>
      <trkpt lat="47.48122" lon="6.67543">
        <ele>452</ele>
        <time>2014-03-30T09:32:24.226Z</time>
      </trkpt>
      <trkpt lat="47.48129" lon="6.67526">
        <ele>454</ele>
        <time>2014-03-30T09:32:29.298Z</time>
      </trkpt>
      <trkpt lat="47.48133" lon="6.67506">
        <ele>454</ele>
        <time>2014-03-30T09:32:34.214Z</time>
      </trkpt>
      <trkpt lat="47.48137" lon="6.67487">
        <ele>453</ele>
        <time>2014-03-30T09:32:39.295Z</time>
      </trkpt>
      <trkpt lat="47.48144" lon="6.67469">
        <ele>453</ele>
        <time>2014-03-30T09:32:44.311Z</time>
      </trkpt>
      <trkpt lat="47.48151" lon="6.67455">
        <ele>453</ele>
        <time>2014-03-30T09:32:49.223Z</time>
      </trkpt>
      <trkpt lat="47.48155" lon="6.67451">
        <ele>454</ele>
        <time>2014-03-30T09:32:54.306Z</time>
      </trkpt>
      <trkpt lat="47.48163" lon="6.67439">
        <ele>454</ele>
        <time>2014-03-30T09:32:59.235Z</time>
      </trkpt>
      <trkpt lat="47.48171" lon="6.67426">
        <ele>455</ele>
        <time>2014-03-30T09:33:04.274Z</time>
      </trkpt>
      <trkpt lat="47.48179" lon="6.67412">
        <ele>456</ele>
        <time>2014-03-30T09:33:09.199Z</time>
      </trkpt>
      <trkpt lat="47.48185" lon="6.67397">
        <ele>457</ele>
        <time>2014-03-30T09:33:14.306Z</time>
      </trkpt>
      <trkpt lat="47.48191" lon="6.67382">
        <ele>457</ele>
        <time>2014-03-30T09:33:19.242Z</time>
      </trkpt>
      <trkpt lat="47.48197" lon="6.67365">
        <ele>458</ele>
        <time>2014-03-30T09:33:24.307Z</time>
      </trkpt>
      <trkpt lat="47.48203" lon="6.6735">
        <ele>459</ele>
        <time>2014-03-30T09:33:29.227Z</time>
      </trkpt>
      <trkpt lat="47.48209" lon="6.67334">
        <ele>459</ele>
        <time>2014-03-30T09:33:34.306Z</time>
      </trkpt>
      <trkpt lat="47.48213" lon="6.67316">
        <ele>459</ele>
        <time>2014-03-30T09:33:39.306Z</time>
      </trkpt>
      <trkpt lat="47.48218" lon="6.67299">
        <ele>460</ele>
        <time>2014-03-30T09:33:44.234Z</time>
      </trkpt>
      <trkpt lat="47.48224" lon="6.67281">
        <ele>460</ele>
        <time>2014-03-30T09:33:49.307Z</time>
      </trkpt>
      <trkpt lat="47.4823" lon="6.67262">
        <ele>460</ele>
        <time>2014-03-30T09:33:54.234Z</time>
      </trkpt>
      <trkpt lat="47.48248" lon="6.67176">
        <ele>462</ele>
        <time>2014-03-30T09:34:14.218Z</time>
      </trkpt>
      <trkpt lat="47.48252" lon="6.6715">
        <ele>462</ele>
        <time>2014-03-30T09:34:19.311Z</time>
      </trkpt>
      <trkpt lat="47.48257" lon="6.67123">
        <ele>463</ele>
        <time>2014-03-30T09:34:24.227Z</time>
      </trkpt>
      <trkpt lat="47.4826" lon="6.67097">
        <ele>464</ele>
        <time>2014-03-30T09:34:29.312Z</time>
      </trkpt>
      <trkpt lat="47.48263" lon="6.67075">
        <ele>463</ele>
        <time>2014-03-30T09:34:34.225Z</time>
      </trkpt>
      <trkpt lat="47.48267" lon="6.67056">
        <ele>463</ele>
        <time>2014-03-30T09:34:39.315Z</time>
      </trkpt>
      <trkpt lat="47.48271" lon="6.67036">
        <ele>463</ele>
        <time>2014-03-30T09:34:44.242Z</time>
      </trkpt>
      <trkpt lat="47.48276" lon="6.67014">
        <ele>463</ele>
        <time>2014-03-30T09:34:49.309Z</time>
      </trkpt>
      <trkpt lat="47.48282" lon="6.66991">
        <ele>463</ele>
        <time>2014-03-30T09:34:54.226Z</time>
      </trkpt>
      <trkpt lat="47.48289" lon="6.66965">
        <ele>462</ele>
        <time>2014-03-30T09:34:59.322Z</time>
      </trkpt>
      <trkpt lat="47.48297" lon="6.66939">
        <ele>462</ele>
        <time>2014-03-30T09:35:04.309Z</time>
      </trkpt>
      <trkpt lat="47.48305" lon="6.66911">
        <ele>462</ele>
        <time>2014-03-30T09:35:09.227Z</time>
      </trkpt>
      <trkpt lat="47.48313" lon="6.66884">
        <ele>462</ele>
        <time>2014-03-30T09:35:14.309Z</time>
      </trkpt>
      <trkpt lat="47.48322" lon="6.66855">
        <ele>461</ele>
        <time>2014-03-30T09:35:19.236Z</time>
      </trkpt>
      <trkpt lat="47.48331" lon="6.66826">
        <ele>461</ele>
        <time>2014-03-30T09:35:24.313Z</time>
      </trkpt>
      <trkpt lat="47.48339" lon="6.66803">
        <ele>461</ele>
        <time>2014-03-30T09:35:29.233Z</time>
      </trkpt>
      <trkpt lat="47.48347" lon="6.66782">
        <ele>461</ele>
        <time>2014-03-30T09:35:34.303Z</time>
      </trkpt>
      <trkpt lat="47.48358" lon="6.66759">
        <ele>461</ele>
        <time>2014-03-30T09:35:39.237Z</time>
      </trkpt>
      <trkpt lat="47.48371" lon="6.66739">
        <ele>461</ele>
        <time>2014-03-30T09:35:44.307Z</time>
      </trkpt>
      <trkpt lat="47.48388" lon="6.66721">
        <ele>462</ele>
        <time>2014-03-30T09:35:49.234Z</time>
      </trkpt>
      <trkpt lat="47.48407" lon="6.6671">
        <ele>463</ele>
        <time>2014-03-30T09:35:54.298Z</time>
      </trkpt>
      <trkpt lat="47.48554" lon="6.66735">
        <ele>463</ele>
        <time>2014-03-30T09:36:30.235Z</time>
      </trkpt>
      <trkpt lat="47.48576" lon="6.66715">
        <ele>462</ele>
        <time>2014-03-30T09:36:34.310Z</time>
      </trkpt>
      <trkpt lat="47.48595" lon="6.66692">
        <ele>461</ele>
        <time>2014-03-30T09:36:39.240Z</time>
      </trkpt>
      <trkpt lat="47.48613" lon="6.66672">
        <ele>463</ele>
        <time>2014-03-30T09:36:44.312Z</time>
      </trkpt>
      <trkpt lat="47.48629" lon="6.66656">
        <ele>463</ele>
        <time>2014-03-30T09:36:49.234Z</time>
      </trkpt>
      <trkpt lat="47.48642" lon="6.6664">
        <ele>464</ele>
        <time>2014-03-30T09:36:54.308Z</time>
      </trkpt>
      <trkpt lat="47.48655" lon="6.66626">
        <ele>465</ele>
        <time>2014-03-30T09:36:59.242Z</time>
      </trkpt>
      <trkpt lat="47.48668" lon="6.66613">
        <ele>466</ele>
        <time>2014-03-30T09:37:04.310Z</time>
      </trkpt>
      <trkpt lat="47.48681" lon="6.66604">
        <ele>466</ele>
        <time>2014-03-30T09:37:09.231Z</time>
      </trkpt>
      <trkpt lat="47.48695" lon="6.66598">
        <ele>467</ele>
        <time>2014-03-30T09:37:14.301Z</time>
      </trkpt>
      <trkpt lat="47.48704" lon="6.66591">
        <ele>468</ele>
        <time>2014-03-30T09:37:19.241Z</time>
      </trkpt>
      <trkpt lat="47.48718" lon="6.6658">
        <ele>469</ele>
        <time>2014-03-30T09:37:24.308Z</time>
      </trkpt>
      <trkpt lat="47.48731" lon="6.66569">
        <ele>469</ele>
        <time>2014-03-30T09:37:29.245Z</time>
      </trkpt>
      <trkpt lat="47.48745" lon="6.66557">
        <ele>470</ele>
        <time>2014-03-30T09:37:34.309Z</time>
      </trkpt>
      <trkpt lat="47.48758" lon="6.66544">
        <ele>471</ele>
        <time>2014-03-30T09:37:39.235Z</time>
      </trkpt>
      <trkpt lat="47.48771" lon="6.66532">
        <ele>471</ele>
        <time>2014-03-30T09:37:44.311Z</time>
      </trkpt>
      <trkpt lat="47.48787" lon="6.66519">
        <ele>471</ele>
        <time>2014-03-30T09:37:49.243Z</time>
      </trkpt>
      <trkpt lat="47.48804" lon="6.66505">
        <ele>473</ele>
        <time>2014-03-30T09:37:54.310Z</time>
      </trkpt>
      <trkpt lat="47.4882" lon="6.66495">
        <ele>473</ele>
        <time>2014-03-30T09:37:59.223Z</time>
      </trkpt>
      <trkpt lat="47.48838" lon="6.66493">
        <ele>473</ele>
        <time>2014-03-30T09:38:04.277Z</time>
      </trkpt>
      <trkpt lat="47.48855" lon="6.66492">
        <ele>473</ele>
        <time>2014-03-30T09:38:09.240Z</time>
      </trkpt>
      <trkpt lat="47.48878" lon="6.66491">
        <ele>474</ele>
        <time>2014-03-30T09:38:14.313Z</time>
      </trkpt>
      <trkpt lat="47.48901" lon="6.66483">
        <ele>473</ele>
        <time>2014-03-30T09:38:19.242Z</time>
      </trkpt>
      <trkpt lat="47.48922" lon="6.66469">
        <ele>473</ele>
        <time>2014-03-30T09:38:24.310Z</time>
      </trkpt>
      <trkpt lat="47.48944" lon="6.66454">
        <ele>472</ele>
        <time>2014-03-30T09:38:29.237Z</time>
      </trkpt>
      <trkpt lat="47.48966" lon="6.66446">
        <ele>472</ele>
        <time>2014-03-30T09:38:34.311Z</time>
      </trkpt>
      <trkpt lat="47.48991" lon="6.66448">
        <ele>471</ele>
        <time>2014-03-30T09:38:39.234Z</time>
      </trkpt>
      <trkpt lat="47.49015" lon="6.66464">
        <ele>472</ele>
        <time>2014-03-30T09:38:44.311Z</time>
      </trkpt>
      <trkpt lat="47.49035" lon="6.66487">
        <ele>475</ele>
        <time>2014-03-30T09:38:49.234Z</time>
      </trkpt>
      <trkpt lat="47.49048" lon="6.66512">
        <ele>476</ele>
        <time>2014-03-30T09:38:54.311Z</time>
      </trkpt>
      <trkpt lat="47.49063" lon="6.66534">
        <ele>477</ele>
        <time>2014-03-30T09:38:59.217Z</time>
      </trkpt>
      <trkpt lat="47.49082" lon="6.66545">
        <ele>476</ele>
        <time>2014-03-30T09:39:04.314Z</time>
      </trkpt>
      <trkpt lat="47.491" lon="6.66549">
        <ele>477</ele>
        <time>2014-03-30T09:39:09.233Z</time>
      </trkpt>
      <trkpt lat="47.4912" lon="6.66553">
        <ele>477</ele>
        <time>2014-03-30T09:39:14.286Z</time>
      </trkpt>
      <trkpt lat="47.49139" lon="6.66557">
        <ele>477</ele>
        <time>2014-03-30T09:39:19.236Z</time>
      </trkpt>
      <trkpt lat="47.49158" lon="6.66562">
        <ele>479</ele>
        <time>2014-03-30T09:39:24.321Z</time>
      </trkpt>
      <trkpt lat="47.49176" lon="6.66568">
        <ele>480</ele>
        <time>2014-03-30T09:39:29.236Z</time>
      </trkpt>
      <trkpt lat="47.49213" lon="6.66574">
        <ele>480</ele>
        <time>2014-03-30T09:39:39.238Z</time>
      </trkpt>
      <trkpt lat="47.49231" lon="6.66576">
        <ele>480</ele>
        <time>2014-03-30T09:39:44.311Z</time>
      </trkpt>
      <trkpt lat="47.49249" lon="6.66581">
        <ele>480</ele>
        <time>2014-03-30T09:39:49.237Z</time>
      </trkpt>
      <trkpt lat="47.49261" lon="6.66582">
        <ele>481</ele>
        <time>2014-03-30T09:39:54.282Z</time>
      </trkpt>
      <trkpt lat="47.49275" lon="6.66578">
        <ele>481</ele>
        <time>2014-03-30T09:39:59.239Z</time>
      </trkpt>
      <trkpt lat="47.49292" lon="6.66572">
        <ele>480</ele>
        <time>2014-03-30T09:40:04.310Z</time>
      </trkpt>
      <trkpt lat="47.4931" lon="6.66563">
        <ele>480</ele>
        <time>2014-03-30T09:40:09.250Z</time>
      </trkpt>
      <trkpt lat="47.49326" lon="6.66552">
        <ele>480</ele>
        <time>2014-03-30T09:40:14.296Z</time>
      </trkpt>
      <trkpt lat="47.49344" lon="6.6654">
        <ele>481</ele>
        <time>2014-03-30T09:40:19.249Z</time>
      </trkpt>
      <trkpt lat="47.49358" lon="6.66525">
        <ele>481</ele>
        <time>2014-03-30T09:40:24.301Z</time>
      </trkpt>
      <trkpt lat="47.49373" lon="6.66515">
        <ele>483</ele>
        <time>2014-03-30T09:40:29.233Z</time>
      </trkpt>
      <trkpt lat="47.49386" lon="6.66507">
        <ele>483</ele>
        <time>2014-03-30T09:40:34.309Z</time>
      </trkpt>
      <trkpt lat="47.49401" lon="6.66491">
        <ele>484</ele>
        <time>2014-03-30T09:40:39.246Z</time>
      </trkpt>
      <trkpt lat="47.49418" lon="6.6648">
        <ele>484</ele>
        <time>2014-03-30T09:40:44.312Z</time>
      </trkpt>
      <trkpt lat="47.49433" lon="6.66475">
        <ele>484</ele>
        <time>2014-03-30T09:40:49.234Z</time>
      </trkpt>
      <trkpt lat="47.49451" lon="6.66467">
        <ele>484</ele>
        <time>2014-03-30T09:40:54.262Z</time>
      </trkpt>
      <trkpt lat="47.49468" lon="6.66455">
        <ele>486</ele>
        <time>2014-03-30T09:40:59.236Z</time>
      </trkpt>
      <trkpt lat="47.49482" lon="6.66444">
        <ele>486</ele>
        <time>2014-03-30T09:41:04.307Z</time>
      </trkpt>
      <trkpt lat="47.49496" lon="6.66431">
        <ele>486</ele>
        <time>2014-03-30T09:41:09.233Z</time>
      </trkpt>
      <trkpt lat="47.4951" lon="6.6642">
        <ele>486</ele>
        <time>2014-03-30T09:41:14.317Z</time>
      </trkpt>
      <trkpt lat="47.49521" lon="6.66411">
        <ele>488</ele>
        <time>2014-03-30T09:41:19.234Z</time>
      </trkpt>
      <trkpt lat="47.49537" lon="6.66401">
        <ele>489</ele>
        <time>2014-03-30T09:41:24.309Z</time>
      </trkpt>
      <trkpt lat="47.49552" lon="6.66389">
        <ele>489</ele>
        <time>2014-03-30T09:41:29.241Z</time>
      </trkpt>
      <trkpt lat="47.49565" lon="6.66374">
        <ele>489</ele>
        <time>2014-03-30T09:41:34.245Z</time>
      </trkpt>
      <trkpt lat="47.49578" lon="6.66357">
        <ele>489</ele>
        <time>2014-03-30T09:41:39.313Z</time>
      </trkpt>
      <trkpt lat="47.49589" lon="6.66338">
        <ele>489</ele>
        <time>2014-03-30T09:41:44.234Z</time>
      </trkpt>
      <trkpt lat="47.49602" lon="6.66323">
        <ele>489</ele>
        <time>2014-03-30T09:41:49.314Z</time>
      </trkpt>
      <trkpt lat="47.49613" lon="6.66305">
        <ele>490</ele>
        <time>2014-03-30T09:41:54.204Z</time>
      </trkpt>
      <trkpt lat="47.49623" lon="6.66284">
        <ele>490</ele>
        <time>2014-03-30T09:41:59.315Z</time>
      </trkpt>
      <trkpt lat="47.49633" lon="6.66263">
        <ele>490</ele>
        <time>2014-03-30T09:42:04.238Z</time>
      </trkpt>
      <trkpt lat="47.49645" lon="6.66242">
        <ele>490</ele>
        <time>2014-03-30T09:42:09.309Z</time>
      </trkpt>
      <trkpt lat="47.49659" lon="6.66221">
        <ele>491</ele>
        <time>2014-03-30T09:42:14.246Z</time>
      </trkpt>
      <trkpt lat="47.49669" lon="6.662">
        <ele>491</ele>
        <time>2014-03-30T09:42:19.312Z</time>
      </trkpt>
      <trkpt lat="47.49675" lon="6.66173">
        <ele>491</ele>
        <time>2014-03-30T09:42:24.249Z</time>
      </trkpt>
      <trkpt lat="47.49681" lon="6.66147">
        <ele>491</ele>
        <time>2014-03-30T09:42:29.309Z</time>
      </trkpt>
      <trkpt lat="47.49695" lon="6.66121">
        <ele>491</ele>
        <time>2014-03-30T09:42:34.237Z</time>
      </trkpt>
      <trkpt lat="47.4971" lon="6.66097">
        <ele>491</ele>
        <time>2014-03-30T09:42:39.311Z</time>
      </trkpt>
      <trkpt lat="47.49723" lon="6.66074">
        <ele>491</ele>
        <time>2014-03-30T09:42:44.238Z</time>
      </trkpt>
      <trkpt lat="47.49733" lon="6.66055">
        <ele>491</ele>
        <time>2014-03-30T09:42:49.309Z</time>
      </trkpt>
      <trkpt lat="47.49743" lon="6.6604">
        <ele>491</ele>
        <time>2014-03-30T09:42:54.203Z</time>
      </trkpt>
      <trkpt lat="47.49752" lon="6.66021">
        <ele>489</ele>
        <time>2014-03-30T09:42:59.307Z</time>
      </trkpt>
      <trkpt lat="47.49763" lon="6.65997">
        <ele>489</ele>
        <time>2014-03-30T09:43:04.238Z</time>
      </trkpt>
      <trkpt lat="47.49775" lon="6.65973">
        <ele>489</ele>
        <time>2014-03-30T09:43:09.310Z</time>
      </trkpt>
      <trkpt lat="47.49791" lon="6.65952">
        <ele>489</ele>
        <time>2014-03-30T09:43:14.308Z</time>
      </trkpt>
      <trkpt lat="47.49809" lon="6.65929">
        <ele>488</ele>
        <time>2014-03-30T09:43:19.243Z</time>
      </trkpt>
      <trkpt lat="47.49819" lon="6.6589">
        <ele>488</ele>
        <time>2014-03-30T09:43:24.310Z</time>
      </trkpt>
      <trkpt lat="47.49825" lon="6.6585">
        <ele>488</ele>
        <time>2014-03-30T09:43:29.236Z</time>
      </trkpt>
      <trkpt lat="47.49832" lon="6.65814">
        <ele>487</ele>
        <time>2014-03-30T09:43:34.297Z</time>
      </trkpt>
      <trkpt lat="47.49841" lon="6.65777">
        <ele>486</ele>
        <time>2014-03-30T09:43:39.237Z</time>
      </trkpt>
      <trkpt lat="47.49853" lon="6.65742">
        <ele>486</ele>
        <time>2014-03-30T09:43:44.309Z</time>
      </trkpt>
      <trkpt lat="47.49865" lon="6.65708">
        <ele>485</ele>
        <time>2014-03-30T09:43:49.234Z</time>
      </trkpt>
      <trkpt lat="47.49874" lon="6.65667">
        <ele>484</ele>
        <time>2014-03-30T09:43:54.314Z</time>
      </trkpt>
      <trkpt lat="47.49882" lon="6.65626">
        <ele>485</ele>
        <time>2014-03-30T09:43:59.236Z</time>
      </trkpt>
      <trkpt lat="47.49893" lon="6.65587">
        <ele>484</ele>
        <time>2014-03-30T09:44:04.294Z</time>
      </trkpt>
      <trkpt lat="47.49908" lon="6.6555">
        <ele>484</ele>
        <time>2014-03-30T09:44:09.236Z</time>
      </trkpt>
      <trkpt lat="47.49925" lon="6.65518">
        <ele>484</ele>
        <time>2014-03-30T09:44:14.312Z</time>
      </trkpt>
      <trkpt lat="47.4994" lon="6.65485">
        <ele>484</ele>
        <time>2014-03-30T09:44:19.250Z</time>
      </trkpt>
      <trkpt lat="47.49956" lon="6.65454">
        <ele>483</ele>
        <time>2014-03-30T09:44:24.311Z</time>
      </trkpt>
      <trkpt lat="47.49976" lon="6.65423">
        <ele>482</ele>
        <time>2014-03-30T09:44:29.248Z</time>
      </trkpt>
      <trkpt lat="47.49995" lon="6.65392">
        <ele>482</ele>
        <time>2014-03-30T09:44:34.312Z</time>
      </trkpt>
      <trkpt lat="47.50016" lon="6.65363">
        <ele>482</ele>
        <time>2014-03-30T09:44:39.237Z</time>
      </trkpt>
      <trkpt lat="47.50038" lon="6.65336">
        <ele>482</ele>
        <time>2014-03-30T09:44:44.311Z</time>
      </trkpt>
      <trkpt lat="47.50061" lon="6.6531">
        <ele>482</ele>
        <time>2014-03-30T09:44:49.246Z</time>
      </trkpt>
      <trkpt lat="47.50083" lon="6.65282">
        <ele>481</ele>
        <time>2014-03-30T09:44:54.316Z</time>
      </trkpt>
      <trkpt lat="47.50107" lon="6.65254">
        <ele>481</ele>
        <time>2014-03-30T09:44:59.236Z</time>
      </trkpt>
      <trkpt lat="47.50132" lon="6.65223">
        <ele>479</ele>
        <time>2014-03-30T09:45:04.256Z</time>
      </trkpt>
      <trkpt lat="47.50157" lon="6.65195">
        <ele>478</ele>
        <time>2014-03-30T09:45:09.301Z</time>
      </trkpt>
      <trkpt lat="47.5018" lon="6.65172">
        <ele>476</ele>
        <time>2014-03-30T09:45:14.243Z</time>
      </trkpt>
      <trkpt lat="47.50202" lon="6.65145">
        <ele>474</ele>
        <time>2014-03-30T09:45:19.309Z</time>
      </trkpt>
      <trkpt lat="47.50224" lon="6.65118">
        <ele>474</ele>
        <time>2014-03-30T09:45:24.245Z</time>
      </trkpt>
      <trkpt lat="47.50243" lon="6.65091">
        <ele>474</ele>
        <time>2014-03-30T09:45:29.307Z</time>
      </trkpt>
      <trkpt lat="47.50267" lon="6.65063">
        <ele>473</ele>
        <time>2014-03-30T09:45:34.239Z</time>
      </trkpt>
      <trkpt lat="47.50275" lon="6.65027">
        <ele>473</ele>
        <time>2014-03-30T09:45:39.309Z</time>
      </trkpt>
      <trkpt lat="47.50286" lon="6.64985">
        <ele>473</ele>
        <time>2014-03-30T09:45:44.239Z</time>
      </trkpt>
      <trkpt lat="47.50302" lon="6.6495">
        <ele>475</ele>
        <time>2014-03-30T09:45:49.311Z</time>
      </trkpt>
      <trkpt lat="47.50322" lon="6.64921">
        <ele>475</ele>
        <time>2014-03-30T09:45:54.248Z</time>
      </trkpt>
      <trkpt lat="47.50344" lon="6.64895">
        <ele>476</ele>
        <time>2014-03-30T09:45:59.313Z</time>
      </trkpt>
      <trkpt lat="47.50366" lon="6.6487">
        <ele>476</ele>
        <time>2014-03-30T09:46:04.250Z</time>
      </trkpt>
      <trkpt lat="47.50389" lon="6.64849">
        <ele>477</ele>
        <time>2014-03-30T09:46:09.310Z</time>
      </trkpt>
      <trkpt lat="47.50412" lon="6.64831">
        <ele>476</ele>
        <time>2014-03-30T09:46:14.247Z</time>
      </trkpt>
      <trkpt lat="47.50432" lon="6.64815">
        <ele>475</ele>
        <time>2014-03-30T09:46:19.315Z</time>
      </trkpt>
      <trkpt lat="47.50453" lon="6.64794">
        <ele>475</ele>
        <time>2014-03-30T09:46:24.247Z</time>
      </trkpt>
      <trkpt lat="47.50468" lon="6.64791">
        <ele>474</ele>
        <time>2014-03-30T09:46:29.312Z</time>
      </trkpt>
      <trkpt lat="47.5047" lon="6.64794">
        <ele>475</ele>
        <time>2014-03-30T09:46:34.248Z</time>
      </trkpt>
      <trkpt lat="47.50473" lon="6.64799">
        <ele>473</ele>
        <time>2014-03-30T09:46:39.309Z</time>
      </trkpt>
      <trkpt lat="47.50474" lon="6.64799">
        <ele>473</ele>
        <time>2014-03-30T09:46:44.249Z</time>
      </trkpt>
      <trkpt lat="47.50474" lon="6.648">
        <ele>474</ele>
        <time>2014-03-30T09:46:49.312Z</time>
      </trkpt>
      <trkpt lat="47.50473" lon="6.64804">
        <ele>475</ele>
        <time>2014-03-30T09:46:54.257Z</time>
      </trkpt>
      <trkpt lat="47.50474" lon="6.64811">
        <ele>475</ele>
        <time>2014-03-30T09:46:59.313Z</time>
      </trkpt>
      <trkpt lat="47.50474" lon="6.64812">
        <ele>476</ele>
        <time>2014-03-30T09:47:04.244Z</time>
      </trkpt>
      <trkpt lat="47.50474" lon="6.6481">
        <ele>476</ele>
        <time>2014-03-30T09:47:09.306Z</time>
      </trkpt>
      <trkpt lat="47.50474" lon="6.6481">
        <ele>476</ele>
        <time>2014-03-30T09:47:14.244Z</time>
      </trkpt>
      <trkpt lat="47.50474" lon="6.6481">
        <ele>476</ele>
        <time>2014-03-30T09:47:19.311Z</time>
      </trkpt>
      <trkpt lat="47.50474" lon="6.64812">
        <ele>477</ele>
        <time>2014-03-30T09:47:24.242Z</time>
      </trkpt>
      <trkpt lat="47.50474" lon="6.64812">
        <ele>477</ele>
        <time>2014-03-30T09:47:29.305Z</time>
      </trkpt>
      <trkpt lat="47.50474" lon="6.64812">
        <ele>477</ele>
        <time>2014-03-30T09:47:34.246Z</time>
      </trkpt>
      <trkpt lat="47.50474" lon="6.64812">
        <ele>477</ele>
        <time>2014-03-30T09:47:39.311Z</time>
      </trkpt>
      <trkpt lat="47.50473" lon="6.64812">
        <ele>478</ele>
        <time>2014-03-30T09:47:44.238Z</time>
      </trkpt>
      <trkpt lat="47.50473" lon="6.64814">
        <ele>478</ele>
        <time>2014-03-30T09:47:49.309Z</time>
      </trkpt>
      <trkpt lat="47.50473" lon="6.64814">
        <ele>478</ele>
        <time>2014-03-30T09:47:54.249Z</time>
      </trkpt>
      <trkpt lat="47.50473" lon="6.64814">
        <ele>478</ele>
        <time>2014-03-30T09:48:04.245Z</time>
      </trkpt>
      <trkpt lat="47.50474" lon="6.64816">
        <ele>478</ele>
        <time>2014-03-30T09:48:09.313Z</time>
      </trkpt>
      <trkpt lat="47.50474" lon="6.64829">
        <ele>477</ele>
        <time>2014-03-30T09:48:14.239Z</time>
      </trkpt>
      <trkpt lat="47.50477" lon="6.64848">
        <ele>477</ele>
        <time>2014-03-30T09:48:19.425Z</time>
      </trkpt>
      <trkpt lat="47.50479" lon="6.64871">
        <ele>478</ele>
        <time>2014-03-30T09:48:24.238Z</time>
      </trkpt>
      <trkpt lat="47.50486" lon="6.64891">
        <ele>477</ele>
        <time>2014-03-30T09:48:29.308Z</time>
      </trkpt>
      <trkpt lat="47.50505" lon="6.64917">
        <ele>477</ele>
        <time>2014-03-30T09:48:34.245Z</time>
      </trkpt>
      <trkpt lat="47.5053" lon="6.64929">
        <ele>473</ele>
        <time>2014-03-30T09:48:39.313Z</time>
      </trkpt>
      <trkpt lat="47.50549" lon="6.64961">
        <ele>472</ele>
        <time>2014-03-30T09:48:44.247Z</time>
      </trkpt>
      <trkpt lat="47.50562" lon="6.64998">
        <ele>470</ele>
        <time>2014-03-30T09:48:49.238Z</time>
      </trkpt>
      <trkpt lat="47.50591" lon="6.65016">
        <ele>466</ele>
        <time>2014-03-30T09:48:54.308Z</time>
      </trkpt>
      <trkpt lat="47.50626" lon="6.65023">
        <ele>461</ele>
        <time>2014-03-30T09:48:59.240Z</time>
      </trkpt>
      <trkpt lat="47.50654" lon="6.65048">
        <ele>456</ele>
        <time>2014-03-30T09:49:04.279Z</time>
      </trkpt>
      <trkpt lat="47.50672" lon="6.65079">
        <ele>455</ele>
        <time>2014-03-30T09:49:09.237Z</time>
      </trkpt>
      <trkpt lat="47.50687" lon="6.65109">
        <ele>452</ele>
        <time>2014-03-30T09:49:14.310Z</time>
      </trkpt>
      <trkpt lat="47.50707" lon="6.65119">
        <ele>448</ele>
        <time>2014-03-30T09:49:19.237Z</time>
      </trkpt>
      <trkpt lat="47.50724" lon="6.65136">
        <ele>445</ele>
        <time>2014-03-30T09:49:24.301Z</time>
      </trkpt>
      <trkpt lat="47.50739" lon="6.65152">
        <ele>443</ele>
        <time>2014-03-30T09:49:29.240Z</time>
      </trkpt>
      <trkpt lat="47.50751" lon="6.65179">
        <ele>441</ele>
        <time>2014-03-30T09:49:34.309Z</time>
      </trkpt>
      <trkpt lat="47.5077" lon="6.65207">
        <ele>438</ele>
        <time>2014-03-30T09:49:39.236Z</time>
      </trkpt>
      <trkpt lat="47.50786" lon="6.65221">
        <ele>436</ele>
        <time>2014-03-30T09:49:44.307Z</time>
      </trkpt>
      <trkpt lat="47.50801" lon="6.6522">
        <ele>434</ele>
        <time>2014-03-30T09:49:49.228Z</time>
      </trkpt>
      <trkpt lat="47.50814" lon="6.65209">
        <ele>433</ele>
        <time>2014-03-30T09:49:54.295Z</time>
      </trkpt>
      <trkpt lat="47.50829" lon="6.65198">
        <ele>432</ele>
        <time>2014-03-30T09:49:59.230Z</time>
      </trkpt>
      <trkpt lat="47.50845" lon="6.65186">
        <ele>431</ele>
        <time>2014-03-30T09:50:04.305Z</time>
      </trkpt>
      <trkpt lat="47.50861" lon="6.65171">
        <ele>431</ele>
        <time>2014-03-30T09:50:09.227Z</time>
      </trkpt>
      <trkpt lat="47.50876" lon="6.65155">
        <ele>430</ele>
        <time>2014-03-30T09:50:14.310Z</time>
      </trkpt>
      <trkpt lat="47.5089" lon="6.65133">
        <ele>430</ele>
        <time>2014-03-30T09:50:19.233Z</time>
      </trkpt>
      <trkpt lat="47.50906" lon="6.65114">
        <ele>430</ele>
        <time>2014-03-30T09:50:24.282Z</time>
      </trkpt>
      <trkpt lat="47.50925" lon="6.65102">
        <ele>429</ele>
        <time>2014-03-30T09:50:29.229Z</time>
      </trkpt>
      <trkpt lat="47.50951" lon="6.65091">
        <ele>430</ele>
        <time>2014-03-30T09:50:34.306Z</time>
      </trkpt>
      <trkpt lat="47.50973" lon="6.65079">
        <ele>431</ele>
        <time>2014-03-30T09:50:39.230Z</time>
      </trkpt>
      <trkpt lat="47.50992" lon="6.65063">
        <ele>432</ele>
        <time>2014-03-30T09:50:44.300Z</time>
      </trkpt>
      <trkpt lat="47.51016" lon="6.65049">
        <ele>431</ele>
        <time>2014-03-30T09:50:49.230Z</time>
      </trkpt>
      <trkpt lat="47.51033" lon="6.65036">
        <ele>431</ele>
        <time>2014-03-30T09:50:54.310Z</time>
      </trkpt>
      <trkpt lat="47.51047" lon="6.65025">
        <ele>432</ele>
        <time>2014-03-30T09:50:59.229Z</time>
      </trkpt>
      <trkpt lat="47.51069" lon="6.65008">
        <ele>430</ele>
        <time>2014-03-30T09:51:04.242Z</time>
      </trkpt>
      <trkpt lat="47.51092" lon="6.6499">
        <ele>429</ele>
        <time>2014-03-30T09:51:09.709Z</time>
      </trkpt>
      <trkpt lat="47.51113" lon="6.6496">
        <ele>427</ele>
        <time>2014-03-30T09:51:14.309Z</time>
      </trkpt>
      <trkpt lat="47.51131" lon="6.64933">
        <ele>426</ele>
        <time>2014-03-30T09:51:19.227Z</time>
      </trkpt>
      <trkpt lat="47.51145" lon="6.64914">
        <ele>426</ele>
        <time>2014-03-30T09:51:24.309Z</time>
      </trkpt>
      <trkpt lat="47.5116" lon="6.64889">
        <ele>426</ele>
        <time>2014-03-30T09:51:29.233Z</time>
      </trkpt>
      <trkpt lat="47.51175" lon="6.64869">
        <ele>426</ele>
        <time>2014-03-30T09:51:34.291Z</time>
      </trkpt>
      <trkpt lat="47.51191" lon="6.64872">
        <ele>427</ele>
        <time>2014-03-30T09:51:39.231Z</time>
      </trkpt>
      <trkpt lat="47.51208" lon="6.64876">
        <ele>428</ele>
        <time>2014-03-30T09:51:44.311Z</time>
      </trkpt>
      <trkpt lat="47.51234" lon="6.64876">
        <ele>429</ele>
        <time>2014-03-30T09:51:49.241Z</time>
      </trkpt>
      <trkpt lat="47.51254" lon="6.64868">
        <ele>428</ele>
        <time>2014-03-30T09:51:54.311Z</time>
      </trkpt>
      <trkpt lat="47.51268" lon="6.64869">
        <ele>429</ele>
        <time>2014-03-30T09:51:59.239Z</time>
      </trkpt>
      <trkpt lat="47.51284" lon="6.64884">
        <ele>428</ele>
        <time>2014-03-30T09:52:04.307Z</time>
      </trkpt>
      <trkpt lat="47.51293" lon="6.64905">
        <ele>428</ele>
        <time>2014-03-30T09:52:09.235Z</time>
      </trkpt>
      <trkpt lat="47.513" lon="6.64922">
        <ele>428</ele>
        <time>2014-03-30T09:52:14.204Z</time>
      </trkpt>
      <trkpt lat="47.51319" lon="6.64948">
        <ele>431</ele>
        <time>2014-03-30T09:52:24.233Z</time>
      </trkpt>
      <trkpt lat="47.51319" lon="6.64948">
        <ele>431</ele>
        <time>2014-03-30T09:52:24.233Z</time>
      </trkpt>
      <trkpt lat="47.51346" lon="6.64977">
        <ele>431</ele>
        <time>2014-03-30T09:52:34.225Z</time>
      </trkpt>
      <trkpt lat="47.51358" lon="6.64992">
        <ele>433</ele>
        <time>2014-03-30T09:52:39.310Z</time>
      </trkpt>
      <trkpt lat="47.51369" lon="6.65014">
        <ele>434</ele>
        <time>2014-03-30T09:52:44.251Z</time>
      </trkpt>
      <trkpt lat="47.51379" lon="6.65033">
        <ele>434</ele>
        <time>2014-03-30T09:52:49.310Z</time>
      </trkpt>
      <trkpt lat="47.51388" lon="6.65052">
        <ele>435</ele>
        <time>2014-03-30T09:52:54.233Z</time>
      </trkpt>
      <trkpt lat="47.51399" lon="6.6507">
        <ele>436</ele>
        <time>2014-03-30T09:52:59.309Z</time>
      </trkpt>
      <trkpt lat="47.51411" lon="6.65085">
        <ele>437</ele>
        <time>2014-03-30T09:53:04.242Z</time>
      </trkpt>
      <trkpt lat="47.51423" lon="6.65099">
        <ele>438</ele>
        <time>2014-03-30T09:53:09.309Z</time>
      </trkpt>
      <trkpt lat="47.51437" lon="6.65118">
        <ele>438</ele>
        <time>2014-03-30T09:53:14.243Z</time>
      </trkpt>
      <trkpt lat="47.51445" lon="6.65129">
        <ele>440</ele>
        <time>2014-03-30T09:53:19.309Z</time>
      </trkpt>
      <trkpt lat="47.51445" lon="6.65132">
        <ele>440</ele>
        <time>2014-03-30T09:53:24.236Z</time>
      </trkpt>
      <trkpt lat="47.51445" lon="6.65135">
        <ele>441</ele>
        <time>2014-03-30T09:53:29.308Z</time>
      </trkpt>
      <trkpt lat="47.51453" lon="6.6514">
        <ele>441</ele>
        <time>2014-03-30T09:53:34.203Z</time>
      </trkpt>
      <trkpt lat="47.51463" lon="6.65149">
        <ele>441</ele>
        <time>2014-03-30T09:53:39.310Z</time>
      </trkpt>
      <trkpt lat="47.51479" lon="6.65164">
        <ele>441</ele>
        <time>2014-03-30T09:53:44.249Z</time>
      </trkpt>
      <trkpt lat="47.51497" lon="6.65183">
        <ele>441</ele>
        <time>2014-03-30T09:53:49.310Z</time>
      </trkpt>
      <trkpt lat="47.51515" lon="6.65206">
        <ele>439</ele>
        <time>2014-03-30T09:53:54.238Z</time>
      </trkpt>
      <trkpt lat="47.51531" lon="6.6523">
        <ele>439</ele>
        <time>2014-03-30T09:53:59.313Z</time>
      </trkpt>
      <trkpt lat="47.51546" lon="6.65254">
        <ele>439</ele>
        <time>2014-03-30T09:54:04.237Z</time>
      </trkpt>
      <trkpt lat="47.51562" lon="6.65278">
        <ele>438</ele>
        <time>2014-03-30T09:54:09.309Z</time>
      </trkpt>
      <trkpt lat="47.51579" lon="6.65296">
        <ele>437</ele>
        <time>2014-03-30T09:54:14.250Z</time>
      </trkpt>
      <trkpt lat="47.51595" lon="6.65319">
        <ele>437</ele>
        <time>2014-03-30T09:54:19.312Z</time>
      </trkpt>
      <trkpt lat="47.51616" lon="6.65344">
        <ele>437</ele>
        <time>2014-03-30T09:54:24.251Z</time>
      </trkpt>
      <trkpt lat="47.51636" lon="6.65369">
        <ele>436</ele>
        <time>2014-03-30T09:54:29.314Z</time>
      </trkpt>
      <trkpt lat="47.51656" lon="6.65392">
        <ele>436</ele>
        <time>2014-03-30T09:54:34.244Z</time>
      </trkpt>
      <trkpt lat="47.51675" lon="6.65416">
        <ele>436</ele>
        <time>2014-03-30T09:54:39.302Z</time>
      </trkpt>
      <trkpt lat="47.51695" lon="6.65441">
        <ele>435</ele>
        <time>2014-03-30T09:54:44.245Z</time>
      </trkpt>
      <trkpt lat="47.51714" lon="6.65465">
        <ele>435</ele>
        <time>2014-03-30T09:54:49.310Z</time>
      </trkpt>
      <trkpt lat="47.51735" lon="6.65488">
        <ele>432</ele>
        <time>2014-03-30T09:54:54.250Z</time>
      </trkpt>
      <trkpt lat="47.51758" lon="6.65511">
        <ele>432</ele>
        <time>2014-03-30T09:54:59.314Z</time>
      </trkpt>
      <trkpt lat="47.51783" lon="6.65528">
        <ele>431</ele>
        <time>2014-03-30T09:55:04.250Z</time>
      </trkpt>
      <trkpt lat="47.51809" lon="6.65543">
        <ele>431</ele>
        <time>2014-03-30T09:55:09.310Z</time>
      </trkpt>
      <trkpt lat="47.51836" lon="6.65558">
        <ele>430</ele>
        <time>2014-03-30T09:55:14.240Z</time>
      </trkpt>
      <trkpt lat="47.5186" lon="6.65578">
        <ele>430</ele>
        <time>2014-03-30T09:55:19.312Z</time>
      </trkpt>
      <trkpt lat="47.51881" lon="6.65602">
        <ele>429</ele>
        <time>2014-03-30T09:55:24.238Z</time>
      </trkpt>
      <trkpt lat="47.51899" lon="6.65629">
        <ele>430</ele>
        <time>2014-03-30T09:55:29.312Z</time>
      </trkpt>
      <trkpt lat="47.51916" lon="6.65653">
        <ele>431</ele>
        <time>2014-03-30T09:55:34.245Z</time>
      </trkpt>
      <trkpt lat="47.51932" lon="6.65674">
        <ele>431</ele>
        <time>2014-03-30T09:55:39.317Z</time>
      </trkpt>
      <trkpt lat="47.51951" lon="6.65697">
        <ele>432</ele>
        <time>2014-03-30T09:55:44.247Z</time>
      </trkpt>
      <trkpt lat="47.51969" lon="6.65715">
        <ele>432</ele>
        <time>2014-03-30T09:55:49.310Z</time>
      </trkpt>
      <trkpt lat="47.51988" lon="6.65733">
        <ele>434</ele>
        <time>2014-03-30T09:55:54.241Z</time>
      </trkpt>
      <trkpt lat="47.52006" lon="6.65745">
        <ele>434</ele>
        <time>2014-03-30T09:55:59.310Z</time>
      </trkpt>
      <trkpt lat="47.52027" lon="6.6575">
        <ele>434</ele>
        <time>2014-03-30T09:56:04.245Z</time>
      </trkpt>
      <trkpt lat="47.52045" lon="6.65762">
        <ele>434</ele>
        <time>2014-03-30T09:56:09.315Z</time>
      </trkpt>
      <trkpt lat="47.52056" lon="6.6579">
        <ele>435</ele>
        <time>2014-03-30T09:56:14.251Z</time>
      </trkpt>
      <trkpt lat="47.52067" lon="6.65817">
        <ele>435</ele>
        <time>2014-03-30T09:56:19.310Z</time>
      </trkpt>
      <trkpt lat="47.52078" lon="6.65842">
        <ele>436</ele>
        <time>2014-03-30T09:56:24.246Z</time>
      </trkpt>
      <trkpt lat="47.52083" lon="6.65868">
        <ele>437</ele>
        <time>2014-03-30T09:56:29.311Z</time>
      </trkpt>
      <trkpt lat="47.52073" lon="6.65888">
        <ele>437</ele>
        <time>2014-03-30T09:56:34.243Z</time>
      </trkpt>
      <trkpt lat="47.52064" lon="6.65913">
        <ele>437</ele>
        <time>2014-03-30T09:56:39.315Z</time>
      </trkpt>
      <trkpt lat="47.52066" lon="6.65941">
        <ele>439</ele>
        <time>2014-03-30T09:56:44.244Z</time>
      </trkpt>
      <trkpt lat="47.52075" lon="6.65965">
        <ele>439</ele>
        <time>2014-03-30T09:56:49.313Z</time>
      </trkpt>
      <trkpt lat="47.52086" lon="6.65988">
        <ele>440</ele>
        <time>2014-03-30T09:56:54.240Z</time>
      </trkpt>
      <trkpt lat="47.52098" lon="6.66013">
        <ele>440</ele>
        <time>2014-03-30T09:56:59.312Z</time>
      </trkpt>
      <trkpt lat="47.52109" lon="6.66039">
        <ele>441</ele>
        <time>2014-03-30T09:57:04.243Z</time>
      </trkpt>
      <trkpt lat="47.52099" lon="6.66059">
        <ele>441</ele>
        <time>2014-03-30T09:57:09.310Z</time>
      </trkpt>
      <trkpt lat="47.52082" lon="6.66071">
        <ele>444</ele>
        <time>2014-03-30T09:57:14.240Z</time>
      </trkpt>
      <trkpt lat="47.52081" lon="6.66091">
        <ele>446</ele>
        <time>2014-03-30T09:57:19.312Z</time>
      </trkpt>
      <trkpt lat="47.52089" lon="6.66113">
        <ele>444</ele>
        <time>2014-03-30T09:57:24.240Z</time>
      </trkpt>
      <trkpt lat="47.52095" lon="6.66134">
        <ele>445</ele>
        <time>2014-03-30T09:57:29.312Z</time>
      </trkpt>
      <trkpt lat="47.52098" lon="6.66158">
        <ele>446</ele>
        <time>2014-03-30T09:57:34.254Z</time>
      </trkpt>
      <trkpt lat="47.52105" lon="6.66182">
        <ele>448</ele>
        <time>2014-03-30T09:57:39.314Z</time>
      </trkpt>
      <trkpt lat="47.52114" lon="6.66204">
        <ele>449</ele>
        <time>2014-03-30T09:57:44.242Z</time>
      </trkpt>
      <trkpt lat="47.52126" lon="6.66228">
        <ele>448</ele>
        <time>2014-03-30T09:57:49.309Z</time>
      </trkpt>
      <trkpt lat="47.52139" lon="6.66255">
        <ele>449</ele>
        <time>2014-03-30T09:57:54.250Z</time>
      </trkpt>
      <trkpt lat="47.52133" lon="6.66281">
        <ele>448</ele>
        <time>2014-03-30T09:57:59.312Z</time>
      </trkpt>
      <trkpt lat="47.52116" lon="6.66302">
        <ele>447</ele>
        <time>2014-03-30T09:58:04.250Z</time>
      </trkpt>
      <trkpt lat="47.52103" lon="6.66328">
        <ele>447</ele>
        <time>2014-03-30T09:58:09.310Z</time>
      </trkpt>
      <trkpt lat="47.52106" lon="6.66363">
        <ele>447</ele>
        <time>2014-03-30T09:58:14.261Z</time>
      </trkpt>
      <trkpt lat="47.52111" lon="6.66398">
        <ele>447</ele>
        <time>2014-03-30T09:58:19.311Z</time>
      </trkpt>
      <trkpt lat="47.52115" lon="6.66432">
        <ele>448</ele>
        <time>2014-03-30T09:58:24.241Z</time>
      </trkpt>
      <trkpt lat="47.52116" lon="6.66466">
        <ele>448</ele>
        <time>2014-03-30T09:58:29.314Z</time>
      </trkpt>
      <trkpt lat="47.52115" lon="6.66501">
        <ele>448</ele>
        <time>2014-03-30T09:58:34.248Z</time>
      </trkpt>
      <trkpt lat="47.52113" lon="6.66533">
        <ele>449</ele>
        <time>2014-03-30T09:58:39.313Z</time>
      </trkpt>
      <trkpt lat="47.52111" lon="6.66567">
        <ele>450</ele>
        <time>2014-03-30T09:58:44.246Z</time>
      </trkpt>
      <trkpt lat="47.5211" lon="6.66598">
        <ele>450</ele>
        <time>2014-03-30T09:58:49.315Z</time>
      </trkpt>
      <trkpt lat="47.52109" lon="6.66634">
        <ele>449</ele>
        <time>2014-03-30T09:58:54.252Z</time>
      </trkpt>
      <trkpt lat="47.5211" lon="6.66671">
        <ele>449</ele>
        <time>2014-03-30T09:58:59.317Z</time>
      </trkpt>
      <trkpt lat="47.52109" lon="6.66712">
        <ele>449</ele>
        <time>2014-03-30T09:59:04.251Z</time>
      </trkpt>
      <trkpt lat="47.52108" lon="6.66752">
        <ele>449</ele>
        <time>2014-03-30T09:59:09.313Z</time>
      </trkpt>
      <trkpt lat="47.52106" lon="6.66793">
        <ele>449</ele>
        <time>2014-03-30T09:59:14.241Z</time>
      </trkpt>
      <trkpt lat="47.52108" lon="6.6684">
        <ele>448</ele>
        <time>2014-03-30T09:59:19.312Z</time>
      </trkpt>
      <trkpt lat="47.5211" lon="6.66887">
        <ele>447</ele>
        <time>2014-03-30T09:59:24.250Z</time>
      </trkpt>
      <trkpt lat="47.52112" lon="6.66933">
        <ele>446</ele>
        <time>2014-03-30T09:59:29.313Z</time>
      </trkpt>
      <trkpt lat="47.52114" lon="6.66977">
        <ele>446</ele>
        <time>2014-03-30T09:59:34.301Z</time>
      </trkpt>
      <trkpt lat="47.52122" lon="6.67019">
        <ele>445</ele>
        <time>2014-03-30T09:59:39.251Z</time>
      </trkpt>
      <trkpt lat="47.52131" lon="6.67062">
        <ele>445</ele>
        <time>2014-03-30T09:59:44.312Z</time>
      </trkpt>
      <trkpt lat="47.52139" lon="6.67106">
        <ele>445</ele>
        <time>2014-03-30T09:59:49.248Z</time>
      </trkpt>
      <trkpt lat="47.52156" lon="6.67188">
        <ele>445</ele>
        <time>2014-03-30T09:59:59.312Z</time>
      </trkpt>
      <trkpt lat="47.52164" lon="6.67227">
        <ele>445</ele>
        <time>2014-03-30T10:00:04.251Z</time>
      </trkpt>
      <trkpt lat="47.52171" lon="6.67265">
        <ele>444</ele>
        <time>2014-03-30T10:00:09.303Z</time>
      </trkpt>
      <trkpt lat="47.52173" lon="6.67306">
        <ele>445</ele>
        <time>2014-03-30T10:00:14.244Z</time>
      </trkpt>
      <trkpt lat="47.52175" lon="6.67349">
        <ele>444</ele>
        <time>2014-03-30T10:00:19.310Z</time>
      </trkpt>
      <trkpt lat="47.52184" lon="6.67393">
        <ele>443</ele>
        <time>2014-03-30T10:00:24.241Z</time>
      </trkpt>
      <trkpt lat="47.52197" lon="6.6743">
        <ele>442</ele>
        <time>2014-03-30T10:00:29.311Z</time>
      </trkpt>
      <trkpt lat="47.52206" lon="6.67462">
        <ele>441</ele>
        <time>2014-03-30T10:00:34.245Z</time>
      </trkpt>
      <trkpt lat="47.52209" lon="6.67496">
        <ele>442</ele>
        <time>2014-03-30T10:00:39.317Z</time>
      </trkpt>
      <trkpt lat="47.52209" lon="6.67534">
        <ele>443</ele>
        <time>2014-03-30T10:00:44.239Z</time>
      </trkpt>
      <trkpt lat="47.52207" lon="6.67574">
        <ele>443</ele>
        <time>2014-03-30T10:00:49.246Z</time>
      </trkpt>
      <trkpt lat="47.52206" lon="6.67616">
        <ele>443</ele>
        <time>2014-03-30T10:00:54.314Z</time>
      </trkpt>
      <trkpt lat="47.52204" lon="6.67659">
        <ele>443</ele>
        <time>2014-03-30T10:00:59.218Z</time>
      </trkpt>
      <trkpt lat="47.52202" lon="6.67705">
        <ele>442</ele>
        <time>2014-03-30T10:01:04.314Z</time>
      </trkpt>
      <trkpt lat="47.52199" lon="6.67753">
        <ele>441</ele>
        <time>2014-03-30T10:01:09.256Z</time>
      </trkpt>
      <trkpt lat="47.52196" lon="6.678">
        <ele>440</ele>
        <time>2014-03-30T10:01:14.316Z</time>
      </trkpt>
      <trkpt lat="47.52193" lon="6.67843">
        <ele>439</ele>
        <time>2014-03-30T10:01:19.258Z</time>
      </trkpt>
      <trkpt lat="47.52189" lon="6.67886">
        <ele>439</ele>
        <time>2014-03-30T10:01:24.312Z</time>
      </trkpt>
      <trkpt lat="47.52186" lon="6.67929">
        <ele>439</ele>
        <time>2014-03-30T10:01:29.314Z</time>
      </trkpt>
      <trkpt lat="47.52183" lon="6.67972">
        <ele>437</ele>
        <time>2014-03-30T10:01:34.241Z</time>
      </trkpt>
      <trkpt lat="47.52179" lon="6.68014">
        <ele>437</ele>
        <time>2014-03-30T10:01:39.284Z</time>
      </trkpt>
      <trkpt lat="47.52176" lon="6.68057">
        <ele>437</ele>
        <time>2014-03-30T10:01:44.250Z</time>
      </trkpt>
      <trkpt lat="47.52172" lon="6.68099">
        <ele>436</ele>
        <time>2014-03-30T10:01:49.302Z</time>
      </trkpt>
      <trkpt lat="47.52165" lon="6.68136">
        <ele>436</ele>
        <time>2014-03-30T10:01:54.244Z</time>
      </trkpt>
      <trkpt lat="47.52159" lon="6.68178">
        <ele>435</ele>
        <time>2014-03-30T10:01:59.313Z</time>
      </trkpt>
      <trkpt lat="47.52163" lon="6.68223">
        <ele>433</ele>
        <time>2014-03-30T10:02:04.252Z</time>
      </trkpt>
      <trkpt lat="47.52176" lon="6.6827">
        <ele>432</ele>
        <time>2014-03-30T10:02:09.313Z</time>
      </trkpt>
      <trkpt lat="47.52185" lon="6.6831">
        <ele>431</ele>
        <time>2014-03-30T10:02:14.245Z</time>
      </trkpt>
      <trkpt lat="47.52192" lon="6.68343">
        <ele>430</ele>
        <time>2014-03-30T10:02:19.314Z</time>
      </trkpt>
      <trkpt lat="47.52199" lon="6.68374">
        <ele>429</ele>
        <time>2014-03-30T10:02:24.251Z</time>
      </trkpt>
      <trkpt lat="47.52205" lon="6.68407">
        <ele>429</ele>
        <time>2014-03-30T10:02:29.244Z</time>
      </trkpt>
      <trkpt lat="47.52212" lon="6.68443">
        <ele>429</ele>
        <time>2014-03-30T10:02:34.304Z</time>
      </trkpt>
      <trkpt lat="47.52221" lon="6.6848">
        <ele>429</ele>
        <time>2014-03-30T10:02:39.242Z</time>
      </trkpt>
      <trkpt lat="47.52228" lon="6.68514">
        <ele>429</ele>
        <time>2014-03-30T10:02:44.312Z</time>
      </trkpt>
      <trkpt lat="47.52239" lon="6.68541">
        <ele>428</ele>
        <time>2014-03-30T10:02:49.247Z</time>
      </trkpt>
      <trkpt lat="47.52253" lon="6.68563">
        <ele>428</ele>
        <time>2014-03-30T10:02:54.313Z</time>
      </trkpt>
      <trkpt lat="47.52269" lon="6.68571">
        <ele>428</ele>
        <time>2014-03-30T10:02:59.241Z</time>
      </trkpt>
      <trkpt lat="47.52279" lon="6.68571">
        <ele>428</ele>
        <time>2014-03-30T10:03:04.311Z</time>
      </trkpt>
      <trkpt lat="47.52291" lon="6.68569">
        <ele>429</ele>
        <time>2014-03-30T10:03:09.240Z</time>
      </trkpt>
      <trkpt lat="47.52303" lon="6.68564">
        <ele>430</ele>
        <time>2014-03-30T10:03:14.349Z</time>
      </trkpt>
      <trkpt lat="47.52318" lon="6.68561">
        <ele>430</ele>
        <time>2014-03-30T10:03:19.252Z</time>
      </trkpt>
      <trkpt lat="47.52333" lon="6.68556">
        <ele>432</ele>
        <time>2014-03-30T10:03:24.320Z</time>
      </trkpt>
      <trkpt lat="47.52348" lon="6.68552">
        <ele>434</ele>
        <time>2014-03-30T10:03:29.246Z</time>
      </trkpt>
      <trkpt lat="47.52361" lon="6.68552">
        <ele>435</ele>
        <time>2014-03-30T10:03:34.310Z</time>
      </trkpt>
      <trkpt lat="47.52372" lon="6.68569">
        <ele>436</ele>
        <time>2014-03-30T10:03:39.242Z</time>
      </trkpt>
      <trkpt lat="47.52373" lon="6.68588">
        <ele>437</ele>
        <time>2014-03-30T10:03:44.289Z</time>
      </trkpt>
      <trkpt lat="47.52366" lon="6.68611">
        <ele>439</ele>
        <time>2014-03-30T10:03:49.240Z</time>
      </trkpt>
      <trkpt lat="47.52358" lon="6.68635">
        <ele>440</ele>
        <time>2014-03-30T10:03:54.311Z</time>
      </trkpt>
      <trkpt lat="47.5235" lon="6.68659">
        <ele>442</ele>
        <time>2014-03-30T10:03:59.237Z</time>
      </trkpt>
      <trkpt lat="47.52347" lon="6.68685">
        <ele>442</ele>
        <time>2014-03-30T10:04:04.315Z</time>
      </trkpt>
      <trkpt lat="47.52354" lon="6.6871">
        <ele>443</ele>
        <time>2014-03-30T10:04:09.245Z</time>
      </trkpt>
      <trkpt lat="47.52363" lon="6.68734">
        <ele>442</ele>
        <time>2014-03-30T10:04:14.309Z</time>
      </trkpt>
      <trkpt lat="47.5237" lon="6.68762">
        <ele>441</ele>
        <time>2014-03-30T10:04:19.247Z</time>
      </trkpt>
      <trkpt lat="47.52381" lon="6.68793">
        <ele>441</ele>
        <time>2014-03-30T10:04:24.313Z</time>
      </trkpt>
      <trkpt lat="47.52395" lon="6.68824">
        <ele>441</ele>
        <time>2014-03-30T10:04:29.248Z</time>
      </trkpt>
      <trkpt lat="47.52408" lon="6.68851">
        <ele>440</ele>
        <time>2014-03-30T10:04:34.309Z</time>
      </trkpt>
      <trkpt lat="47.52427" lon="6.68885">
        <ele>439</ele>
        <time>2014-03-30T10:04:39.244Z</time>
      </trkpt>
      <trkpt lat="47.52449" lon="6.68922">
        <ele>438</ele>
        <time>2014-03-30T10:04:44.314Z</time>
      </trkpt>
      <trkpt lat="47.5247" lon="6.68957">
        <ele>435</ele>
        <time>2014-03-30T10:04:49.248Z</time>
      </trkpt>
      <trkpt lat="47.52494" lon="6.68987">
        <ele>433</ele>
        <time>2014-03-30T10:04:54.314Z</time>
      </trkpt>
      <trkpt lat="47.52519" lon="6.69015">
        <ele>431</ele>
        <time>2014-03-30T10:04:59.242Z</time>
      </trkpt>
      <trkpt lat="47.52546" lon="6.69051">
        <ele>429</ele>
        <time>2014-03-30T10:05:04.314Z</time>
      </trkpt>
      <trkpt lat="47.52567" lon="6.69093">
        <ele>427</ele>
        <time>2014-03-30T10:05:09.243Z</time>
      </trkpt>
      <trkpt lat="47.5258" lon="6.69142">
        <ele>425</ele>
        <time>2014-03-30T10:05:14.310Z</time>
      </trkpt>
      <trkpt lat="47.52587" lon="6.69192">
        <ele>424</ele>
        <time>2014-03-30T10:05:19.251Z</time>
      </trkpt>
      <trkpt lat="47.52591" lon="6.69236">
        <ele>423</ele>
        <time>2014-03-30T10:05:24.243Z</time>
      </trkpt>
      <trkpt lat="47.52597" lon="6.69279">
        <ele>422</ele>
        <time>2014-03-30T10:05:29.215Z</time>
      </trkpt>
      <trkpt lat="47.52596" lon="6.69326">
        <ele>422</ele>
        <time>2014-03-30T10:05:34.313Z</time>
      </trkpt>
      <trkpt lat="47.5259" lon="6.69374">
        <ele>422</ele>
        <time>2014-03-30T10:05:39.248Z</time>
      </trkpt>
      <trkpt lat="47.52592" lon="6.6943">
        <ele>421</ele>
        <time>2014-03-30T10:05:44.314Z</time>
      </trkpt>
      <trkpt lat="47.52594" lon="6.69466">
        <ele>421</ele>
        <time>2014-03-30T10:05:49.214Z</time>
      </trkpt>
      <trkpt lat="47.52605" lon="6.69482">
        <ele>421</ele>
        <time>2014-03-30T10:05:54.242Z</time>
      </trkpt>
      <trkpt lat="47.52627" lon="6.69491">
        <ele>421</ele>
        <time>2014-03-30T10:05:59.315Z</time>
      </trkpt>
      <trkpt lat="47.52627" lon="6.69527">
        <ele>420</ele>
        <time>2014-03-30T10:06:04.241Z</time>
      </trkpt>
      <trkpt lat="47.52621" lon="6.6957">
        <ele>418</ele>
        <time>2014-03-30T10:06:09.318Z</time>
      </trkpt>
      <trkpt lat="47.52618" lon="6.69611">
        <ele>418</ele>
        <time>2014-03-30T10:06:14.253Z</time>
      </trkpt>
      <trkpt lat="47.52623" lon="6.69645">
        <ele>418</ele>
        <time>2014-03-30T10:06:19.311Z</time>
      </trkpt>
      <trkpt lat="47.5262" lon="6.69674">
        <ele>418</ele>
        <time>2014-03-30T10:06:24.242Z</time>
      </trkpt>
      <trkpt lat="47.52613" lon="6.697">
        <ele>418</ele>
        <time>2014-03-30T10:06:29.314Z</time>
      </trkpt>
      <trkpt lat="47.52596" lon="6.69717">
        <ele>417</ele>
        <time>2014-03-30T10:06:34.256Z</time>
      </trkpt>
      <trkpt lat="47.52575" lon="6.69716">
        <ele>415</ele>
        <time>2014-03-30T10:06:39.315Z</time>
      </trkpt>
      <trkpt lat="47.52553" lon="6.69709">
        <ele>413</ele>
        <time>2014-03-30T10:06:44.261Z</time>
      </trkpt>
      <trkpt lat="47.52531" lon="6.69696">
        <ele>413</ele>
        <time>2014-03-30T10:06:49.312Z</time>
      </trkpt>
      <trkpt lat="47.52506" lon="6.69683">
        <ele>413</ele>
        <time>2014-03-30T10:06:54.215Z</time>
      </trkpt>
      <trkpt lat="47.52459" lon="6.69688">
        <ele>415</ele>
        <time>2014-03-30T10:07:04.247Z</time>
      </trkpt>
      <trkpt lat="47.52434" lon="6.69696">
        <ele>416</ele>
        <time>2014-03-30T10:07:09.300Z</time>
      </trkpt>
      <trkpt lat="47.5241" lon="6.69704">
        <ele>416</ele>
        <time>2014-03-30T10:07:14.231Z</time>
      </trkpt>
      <trkpt lat="47.52386" lon="6.69709">
        <ele>418</ele>
        <time>2014-03-30T10:07:19.311Z</time>
      </trkpt>
      <trkpt lat="47.52369" lon="6.69722">
        <ele>419</ele>
        <time>2014-03-30T10:07:24.245Z</time>
      </trkpt>
      <trkpt lat="47.52354" lon="6.69745">
        <ele>418</ele>
        <time>2014-03-30T10:07:29.319Z</time>
      </trkpt>
      <trkpt lat="47.52339" lon="6.69771">
        <ele>419</ele>
        <time>2014-03-30T10:07:34.249Z</time>
      </trkpt>
      <trkpt lat="47.52326" lon="6.69797">
        <ele>419</ele>
        <time>2014-03-30T10:07:39.312Z</time>
      </trkpt>
      <trkpt lat="47.52311" lon="6.69824">
        <ele>421</ele>
        <time>2014-03-30T10:07:44.244Z</time>
      </trkpt>
      <trkpt lat="47.52298" lon="6.69855">
        <ele>422</ele>
        <time>2014-03-30T10:07:49.313Z</time>
      </trkpt>
      <trkpt lat="47.52283" lon="6.69886">
        <ele>421</ele>
        <time>2014-03-30T10:07:54.243Z</time>
      </trkpt>
      <trkpt lat="47.52271" lon="6.69919">
        <ele>421</ele>
        <time>2014-03-30T10:07:59.316Z</time>
      </trkpt>
      <trkpt lat="47.52256" lon="6.69958">
        <ele>420</ele>
        <time>2014-03-30T10:08:04.286Z</time>
      </trkpt>
      <trkpt lat="47.5224" lon="6.70002">
        <ele>418</ele>
        <time>2014-03-30T10:08:09.244Z</time>
      </trkpt>
      <trkpt lat="47.52224" lon="6.70047">
        <ele>418</ele>
        <time>2014-03-30T10:08:14.316Z</time>
      </trkpt>
      <trkpt lat="47.52213" lon="6.7009">
        <ele>416</ele>
        <time>2014-03-30T10:08:19.256Z</time>
      </trkpt>
      <trkpt lat="47.52202" lon="6.70133">
        <ele>415</ele>
        <time>2014-03-30T10:08:24.316Z</time>
      </trkpt>
      <trkpt lat="47.52191" lon="6.70172">
        <ele>415</ele>
        <time>2014-03-30T10:08:29.257Z</time>
      </trkpt>
      <trkpt lat="47.52182" lon="6.70204">
        <ele>415</ele>
        <time>2014-03-30T10:08:34.311Z</time>
      </trkpt>
      <trkpt lat="47.52173" lon="6.7023">
        <ele>416</ele>
        <time>2014-03-30T10:08:39.249Z</time>
      </trkpt>
      <trkpt lat="47.52167" lon="6.70256">
        <ele>417</ele>
        <time>2014-03-30T10:08:44.312Z</time>
      </trkpt>
      <trkpt lat="47.52161" lon="6.70279">
        <ele>417</ele>
        <time>2014-03-30T10:08:49.251Z</time>
      </trkpt>
      <trkpt lat="47.52155" lon="6.70303">
        <ele>417</ele>
        <time>2014-03-30T10:08:54.315Z</time>
      </trkpt>
      <trkpt lat="47.52149" lon="6.70326">
        <ele>418</ele>
        <time>2014-03-30T10:08:59.301Z</time>
      </trkpt>
      <trkpt lat="47.52143" lon="6.7035">
        <ele>418</ele>
        <time>2014-03-30T10:09:04.244Z</time>
      </trkpt>
      <trkpt lat="47.52134" lon="6.70375">
        <ele>418</ele>
        <time>2014-03-30T10:09:09.320Z</time>
      </trkpt>
      <trkpt lat="47.52127" lon="6.70399">
        <ele>419</ele>
        <time>2014-03-30T10:09:14.259Z</time>
      </trkpt>
      <trkpt lat="47.5212" lon="6.70424">
        <ele>419</ele>
        <time>2014-03-30T10:09:19.303Z</time>
      </trkpt>
      <trkpt lat="47.52111" lon="6.70449">
        <ele>419</ele>
        <time>2014-03-30T10:09:24.249Z</time>
      </trkpt>
      <trkpt lat="47.52103" lon="6.70474">
        <ele>419</ele>
        <time>2014-03-30T10:09:29.314Z</time>
      </trkpt>
      <trkpt lat="47.52095" lon="6.70498">
        <ele>420</ele>
        <time>2014-03-30T10:09:34.245Z</time>
      </trkpt>
      <trkpt lat="47.52088" lon="6.70524">
        <ele>420</ele>
        <time>2014-03-30T10:09:39.318Z</time>
      </trkpt>
      <trkpt lat="47.52079" lon="6.70549">
        <ele>421</ele>
        <time>2014-03-30T10:09:44.315Z</time>
      </trkpt>
      <trkpt lat="47.5207" lon="6.70574">
        <ele>421</ele>
        <time>2014-03-30T10:09:49.253Z</time>
      </trkpt>
      <trkpt lat="47.52062" lon="6.70596">
        <ele>421</ele>
        <time>2014-03-30T10:09:54.311Z</time>
      </trkpt>
      <trkpt lat="47.52053" lon="6.70619">
        <ele>420</ele>
        <time>2014-03-30T10:09:59.248Z</time>
      </trkpt>
      <trkpt lat="47.52044" lon="6.70646">
        <ele>420</ele>
        <time>2014-03-30T10:10:04.313Z</time>
      </trkpt>
      <trkpt lat="47.52038" lon="6.70672">
        <ele>423</ele>
        <time>2014-03-30T10:10:09.250Z</time>
      </trkpt>
      <trkpt lat="47.52033" lon="6.70696">
        <ele>425</ele>
        <time>2014-03-30T10:10:14.314Z</time>
      </trkpt>
      <trkpt lat="47.52027" lon="6.7072">
        <ele>427</ele>
        <time>2014-03-30T10:10:19.259Z</time>
      </trkpt>
      <trkpt lat="47.5202" lon="6.70745">
        <ele>429</ele>
        <time>2014-03-30T10:10:24.301Z</time>
      </trkpt>
      <trkpt lat="47.52013" lon="6.70772">
        <ele>429</ele>
        <time>2014-03-30T10:10:29.245Z</time>
      </trkpt>
      <trkpt lat="47.52004" lon="6.708">
        <ele>430</ele>
        <time>2014-03-30T10:10:34.313Z</time>
      </trkpt>
      <trkpt lat="47.51995" lon="6.70824">
        <ele>430</ele>
        <time>2014-03-30T10:10:39.244Z</time>
      </trkpt>
      <trkpt lat="47.51987" lon="6.70847">
        <ele>432</ele>
        <time>2014-03-30T10:10:44.322Z</time>
      </trkpt>
      <trkpt lat="47.51981" lon="6.70869">
        <ele>432</ele>
        <time>2014-03-30T10:10:49.257Z</time>
      </trkpt>
      <trkpt lat="47.51982" lon="6.7089">
        <ele>432</ele>
        <time>2014-03-30T10:10:54.317Z</time>
      </trkpt>
      <trkpt lat="47.51986" lon="6.70913">
        <ele>432</ele>
        <time>2014-03-30T10:10:59.244Z</time>
      </trkpt>
      <trkpt lat="47.51998" lon="6.7093">
        <ele>434</ele>
        <time>2014-03-30T10:11:04.243Z</time>
      </trkpt>
      <trkpt lat="47.52012" lon="6.70947">
        <ele>434</ele>
        <time>2014-03-30T10:11:09.304Z</time>
      </trkpt>
      <trkpt lat="47.52025" lon="6.70962">
        <ele>434</ele>
        <time>2014-03-30T10:11:14.242Z</time>
      </trkpt>
      <trkpt lat="47.52037" lon="6.70977">
        <ele>435</ele>
        <time>2014-03-30T10:11:19.313Z</time>
      </trkpt>
      <trkpt lat="47.52046" lon="6.70986">
        <ele>434</ele>
        <time>2014-03-30T10:11:24.249Z</time>
      </trkpt>
      <trkpt lat="47.52061" lon="6.70997">
        <ele>434</ele>
        <time>2014-03-30T10:11:29.311Z</time>
      </trkpt>
      <trkpt lat="47.52077" lon="6.71012">
        <ele>434</ele>
        <time>2014-03-30T10:11:34.251Z</time>
      </trkpt>
      <trkpt lat="47.52094" lon="6.71028">
        <ele>433</ele>
        <time>2014-03-30T10:11:39.314Z</time>
      </trkpt>
      <trkpt lat="47.52108" lon="6.71042">
        <ele>433</ele>
        <time>2014-03-30T10:11:44.241Z</time>
      </trkpt>
      <trkpt lat="47.52126" lon="6.71054">
        <ele>434</ele>
        <time>2014-03-30T10:11:49.313Z</time>
      </trkpt>
      <trkpt lat="47.52143" lon="6.71068">
        <ele>435</ele>
        <time>2014-03-30T10:11:54.240Z</time>
      </trkpt>
      <trkpt lat="47.52162" lon="6.71084">
        <ele>434</ele>
        <time>2014-03-30T10:11:59.312Z</time>
      </trkpt>
      <trkpt lat="47.5218" lon="6.711">
        <ele>434</ele>
        <time>2014-03-30T10:12:04.267Z</time>
      </trkpt>
      <trkpt lat="47.52194" lon="6.71123">
        <ele>434</ele>
        <time>2014-03-30T10:12:09.239Z</time>
      </trkpt>
      <trkpt lat="47.52209" lon="6.71146">
        <ele>434</ele>
        <time>2014-03-30T10:12:14.313Z</time>
      </trkpt>
      <trkpt lat="47.52224" lon="6.71163">
        <ele>435</ele>
        <time>2014-03-30T10:12:19.251Z</time>
      </trkpt>
      <trkpt lat="47.52237" lon="6.71179">
        <ele>436</ele>
        <time>2014-03-30T10:12:24.315Z</time>
      </trkpt>
      <trkpt lat="47.52246" lon="6.71197">
        <ele>436</ele>
        <time>2014-03-30T10:12:29.244Z</time>
      </trkpt>
      <trkpt lat="47.52255" lon="6.71214">
        <ele>437</ele>
        <time>2014-03-30T10:12:34.312Z</time>
      </trkpt>
      <trkpt lat="47.52255" lon="6.71231">
        <ele>437</ele>
        <time>2014-03-30T10:12:39.250Z</time>
      </trkpt>
      <trkpt lat="47.52245" lon="6.71241">
        <ele>438</ele>
        <time>2014-03-30T10:12:44.318Z</time>
      </trkpt>
      <trkpt lat="47.52234" lon="6.71251">
        <ele>440</ele>
        <time>2014-03-30T10:12:49.259Z</time>
      </trkpt>
      <trkpt lat="47.52225" lon="6.71259">
        <ele>441</ele>
        <time>2014-03-30T10:12:54.248Z</time>
      </trkpt>
      <trkpt lat="47.52214" lon="6.71265">
        <ele>443</ele>
        <time>2014-03-30T10:12:59.256Z</time>
      </trkpt>
      <trkpt lat="47.52207" lon="6.71274">
        <ele>444</ele>
        <time>2014-03-30T10:13:04.316Z</time>
      </trkpt>
      <trkpt lat="47.52201" lon="6.71283">
        <ele>445</ele>
        <time>2014-03-30T10:13:09.251Z</time>
      </trkpt>
      <trkpt lat="47.52194" lon="6.7129">
        <ele>444</ele>
        <time>2014-03-30T10:13:14.250Z</time>
      </trkpt>
      <trkpt lat="47.52187" lon="6.71297">
        <ele>443</ele>
        <time>2014-03-30T10:13:19.315Z</time>
      </trkpt>
      <trkpt lat="47.5218" lon="6.71303">
        <ele>443</ele>
        <time>2014-03-30T10:13:24.251Z</time>
      </trkpt>
      <trkpt lat="47.52173" lon="6.7131">
        <ele>443</ele>
        <time>2014-03-30T10:13:29.317Z</time>
      </trkpt>
      <trkpt lat="47.52167" lon="6.71318">
        <ele>445</ele>
        <time>2014-03-30T10:13:34.247Z</time>
      </trkpt>
      <trkpt lat="47.52157" lon="6.71329">
        <ele>447</ele>
        <time>2014-03-30T10:13:39.248Z</time>
      </trkpt>
      <trkpt lat="47.52151" lon="6.71339">
        <ele>449</ele>
        <time>2014-03-30T10:13:44.322Z</time>
      </trkpt>
      <trkpt lat="47.52147" lon="6.71348">
        <ele>449</ele>
        <time>2014-03-30T10:13:49.260Z</time>
      </trkpt>
      <trkpt lat="47.52146" lon="6.7136">
        <ele>449</ele>
        <time>2014-03-30T10:13:54.249Z</time>
      </trkpt>
      <trkpt lat="47.52145" lon="6.71377">
        <ele>450</ele>
        <time>2014-03-30T10:13:59.251Z</time>
      </trkpt>
      <trkpt lat="47.52149" lon="6.71392">
        <ele>451</ele>
        <time>2014-03-30T10:14:04.316Z</time>
      </trkpt>
      <trkpt lat="47.52153" lon="6.71405">
        <ele>452</ele>
        <time>2014-03-30T10:14:09.250Z</time>
      </trkpt>
      <trkpt lat="47.52158" lon="6.71419">
        <ele>453</ele>
        <time>2014-03-30T10:14:14.246Z</time>
      </trkpt>
      <trkpt lat="47.52161" lon="6.71435">
        <ele>454</ele>
        <time>2014-03-30T10:14:19.314Z</time>
      </trkpt>
      <trkpt lat="47.52163" lon="6.71451">
        <ele>455</ele>
        <time>2014-03-30T10:14:24.253Z</time>
      </trkpt>
      <trkpt lat="47.52165" lon="6.71469">
        <ele>455</ele>
        <time>2014-03-30T10:14:29.318Z</time>
      </trkpt>
      <trkpt lat="47.52165" lon="6.71488">
        <ele>457</ele>
        <time>2014-03-30T10:14:34.250Z</time>
      </trkpt>
      <trkpt lat="47.52166" lon="6.71508">
        <ele>459</ele>
        <time>2014-03-30T10:14:39.316Z</time>
      </trkpt>
      <trkpt lat="47.52166" lon="6.71526">
        <ele>461</ele>
        <time>2014-03-30T10:14:44.251Z</time>
      </trkpt>
      <trkpt lat="47.52165" lon="6.71545">
        <ele>463</ele>
        <time>2014-03-30T10:14:49.308Z</time>
      </trkpt>
      <trkpt lat="47.52164" lon="6.71565">
        <ele>464</ele>
        <time>2014-03-30T10:14:54.248Z</time>
      </trkpt>
      <trkpt lat="47.52165" lon="6.71581">
        <ele>464</ele>
        <time>2014-03-30T10:14:59.249Z</time>
      </trkpt>
      <trkpt lat="47.52162" lon="6.71591">
        <ele>465</ele>
        <time>2014-03-30T10:15:04.316Z</time>
      </trkpt>
      <trkpt lat="47.52161" lon="6.71598">
        <ele>466</ele>
        <time>2014-03-30T10:15:09.251Z</time>
      </trkpt>
      <trkpt lat="47.52155" lon="6.71596">
        <ele>464</ele>
        <time>2014-03-30T10:15:14.249Z</time>
      </trkpt>
      <trkpt lat="47.52144" lon="6.71598">
        <ele>464</ele>
        <time>2014-03-30T10:15:19.223Z</time>
      </trkpt>
      <trkpt lat="47.52122" lon="6.71607">
        <ele>465</ele>
        <time>2014-03-30T10:15:29.252Z</time>
      </trkpt>
      <trkpt lat="47.52112" lon="6.71618">
        <ele>466</ele>
        <time>2014-03-30T10:15:34.318Z</time>
      </trkpt>
      <trkpt lat="47.52103" lon="6.71632">
        <ele>467</ele>
        <time>2014-03-30T10:15:39.256Z</time>
      </trkpt>
      <trkpt lat="47.52094" lon="6.71645">
        <ele>468</ele>
        <time>2014-03-30T10:15:44.313Z</time>
      </trkpt>
      <trkpt lat="47.52084" lon="6.71654">
        <ele>468</ele>
        <time>2014-03-30T10:15:49.248Z</time>
      </trkpt>
      <trkpt lat="47.52074" lon="6.71668">
        <ele>469</ele>
        <time>2014-03-30T10:15:54.248Z</time>
      </trkpt>
      <trkpt lat="47.52065" lon="6.71682">
        <ele>469</ele>
        <time>2014-03-30T10:15:59.318Z</time>
      </trkpt>
      <trkpt lat="47.52058" lon="6.71694">
        <ele>470</ele>
        <time>2014-03-30T10:16:04.249Z</time>
      </trkpt>
      <trkpt lat="47.52056" lon="6.717">
        <ele>469</ele>
        <time>2014-03-30T10:16:09.250Z</time>
      </trkpt>
      <trkpt lat="47.52054" lon="6.71706">
        <ele>470</ele>
        <time>2014-03-30T10:16:14.313Z</time>
      </trkpt>
      <trkpt lat="47.52049" lon="6.71717">
        <ele>471</ele>
        <time>2014-03-30T10:16:19.249Z</time>
      </trkpt>
      <trkpt lat="47.52042" lon="6.71736">
        <ele>470</ele>
        <time>2014-03-30T10:16:24.250Z</time>
      </trkpt>
      <trkpt lat="47.52034" lon="6.71759">
        <ele>469</ele>
        <time>2014-03-30T10:16:29.252Z</time>
      </trkpt>
      <trkpt lat="47.5203" lon="6.718">
        <ele>468</ele>
        <time>2014-03-30T10:16:34.313Z</time>
      </trkpt>
      <trkpt lat="47.52031" lon="6.71849">
        <ele>467</ele>
        <time>2014-03-30T10:16:39.249Z</time>
      </trkpt>
      <trkpt lat="47.52028" lon="6.71904">
        <ele>465</ele>
        <time>2014-03-30T10:16:44.250Z</time>
      </trkpt>
      <trkpt lat="47.52028" lon="6.7196">
        <ele>465</ele>
        <time>2014-03-30T10:16:49.304Z</time>
      </trkpt>
      <trkpt lat="47.52034" lon="6.72014">
        <ele>464</ele>
        <time>2014-03-30T10:16:54.248Z</time>
      </trkpt>
      <trkpt lat="47.52034" lon="6.72066">
        <ele>463</ele>
        <time>2014-03-30T10:16:59.325Z</time>
      </trkpt>
      <trkpt lat="47.52017" lon="6.72149">
        <ele>460</ele>
        <time>2014-03-30T10:17:04.247Z</time>
      </trkpt>
      <trkpt lat="47.51996" lon="6.72215">
        <ele>452</ele>
        <time>2014-03-30T10:17:09.258Z</time>
      </trkpt>
      <trkpt lat="47.51955" lon="6.72217">
        <ele>448</ele>
        <time>2014-03-30T10:17:14.309Z</time>
      </trkpt>
      <trkpt lat="47.5192" lon="6.72203">
        <ele>449</ele>
        <time>2014-03-30T10:17:19.281Z</time>
      </trkpt>
      <trkpt lat="47.51902" lon="6.72214">
        <ele>447</ele>
        <time>2014-03-30T10:17:24.261Z</time>
      </trkpt>
      <trkpt lat="47.51888" lon="6.72213">
        <ele>448</ele>
        <time>2014-03-30T10:17:29.310Z</time>
      </trkpt>
      <trkpt lat="47.51873" lon="6.72218">
        <ele>450</ele>
        <time>2014-03-30T10:17:34.249Z</time>
      </trkpt>
      <trkpt lat="47.51865" lon="6.72211">
        <ele>450</ele>
        <time>2014-03-30T10:17:39.313Z</time>
      </trkpt>
      <trkpt lat="47.51851" lon="6.72216">
        <ele>451</ele>
        <time>2014-03-30T10:17:44.217Z</time>
      </trkpt>
      <trkpt lat="47.51836" lon="6.7222">
        <ele>454</ele>
        <time>2014-03-30T10:17:49.309Z</time>
      </trkpt>
      <trkpt lat="47.51826" lon="6.72214">
        <ele>457</ele>
        <time>2014-03-30T10:17:54.246Z</time>
      </trkpt>
      <trkpt lat="47.51817" lon="6.72206">
        <ele>458</ele>
        <time>2014-03-30T10:17:59.314Z</time>
      </trkpt>
      <trkpt lat="47.51804" lon="6.72206">
        <ele>457</ele>
        <time>2014-03-30T10:18:04.242Z</time>
      </trkpt>
      <trkpt lat="47.51793" lon="6.72214">
        <ele>456</ele>
        <time>2014-03-30T10:18:09.311Z</time>
      </trkpt>
      <trkpt lat="47.51783" lon="6.72221">
        <ele>454</ele>
        <time>2014-03-30T10:18:14.240Z</time>
      </trkpt>
      <trkpt lat="47.51776" lon="6.7223">
        <ele>452</ele>
        <time>2014-03-30T10:18:19.311Z</time>
      </trkpt>
      <trkpt lat="47.51771" lon="6.72232">
        <ele>451</ele>
        <time>2014-03-30T10:18:24.244Z</time>
      </trkpt>
      <trkpt lat="47.51766" lon="6.72234">
        <ele>453</ele>
        <time>2014-03-30T10:18:29.320Z</time>
      </trkpt>
      <trkpt lat="47.51761" lon="6.72241">
        <ele>457</ele>
        <time>2014-03-30T10:18:34.250Z</time>
      </trkpt>
      <trkpt lat="47.51755" lon="6.72247">
        <ele>458</ele>
        <time>2014-03-30T10:18:39.316Z</time>
      </trkpt>
      <trkpt lat="47.51749" lon="6.72252">
        <ele>460</ele>
        <time>2014-03-30T10:18:44.246Z</time>
      </trkpt>
      <trkpt lat="47.51744" lon="6.72257">
        <ele>460</ele>
        <time>2014-03-30T10:18:49.310Z</time>
      </trkpt>
      <trkpt lat="47.51741" lon="6.72263">
        <ele>459</ele>
        <time>2014-03-30T10:18:54.245Z</time>
      </trkpt>
      <trkpt lat="47.51735" lon="6.72268">
        <ele>457</ele>
        <time>2014-03-30T10:18:59.250Z</time>
      </trkpt>
      <trkpt lat="47.5173" lon="6.72272">
        <ele>458</ele>
        <time>2014-03-30T10:19:04.317Z</time>
      </trkpt>
      <trkpt lat="47.51725" lon="6.72274">
        <ele>459</ele>
        <time>2014-03-30T10:19:09.253Z</time>
      </trkpt>
      <trkpt lat="47.51721" lon="6.72275">
        <ele>459</ele>
        <time>2014-03-30T10:19:14.311Z</time>
      </trkpt>
      <trkpt lat="47.51716" lon="6.72277">
        <ele>460</ele>
        <time>2014-03-30T10:19:19.259Z</time>
      </trkpt>
      <trkpt lat="47.51708" lon="6.72283">
        <ele>460</ele>
        <time>2014-03-30T10:19:24.301Z</time>
      </trkpt>
      <trkpt lat="47.51702" lon="6.7229">
        <ele>460</ele>
        <time>2014-03-30T10:19:29.265Z</time>
      </trkpt>
      <trkpt lat="47.51696" lon="6.72296">
        <ele>461</ele>
        <time>2014-03-30T10:19:34.318Z</time>
      </trkpt>
      <trkpt lat="47.51689" lon="6.72302">
        <ele>462</ele>
        <time>2014-03-30T10:19:39.250Z</time>
      </trkpt>
      <trkpt lat="47.51682" lon="6.72308">
        <ele>462</ele>
        <time>2014-03-30T10:19:44.316Z</time>
      </trkpt>
      <trkpt lat="47.51674" lon="6.72318">
        <ele>463</ele>
        <time>2014-03-30T10:19:49.436Z</time>
      </trkpt>
      <trkpt lat="47.51669" lon="6.72328">
        <ele>464</ele>
        <time>2014-03-30T10:19:54.243Z</time>
      </trkpt>
      <trkpt lat="47.51663" lon="6.72335">
        <ele>464</ele>
        <time>2014-03-30T10:19:59.247Z</time>
      </trkpt>
      <trkpt lat="47.51654" lon="6.7234">
        <ele>462</ele>
        <time>2014-03-30T10:20:04.318Z</time>
      </trkpt>
      <trkpt lat="47.51644" lon="6.72343">
        <ele>462</ele>
        <time>2014-03-30T10:20:09.247Z</time>
      </trkpt>
      <trkpt lat="47.51634" lon="6.72346">
        <ele>464</ele>
        <time>2014-03-30T10:20:14.319Z</time>
      </trkpt>
      <trkpt lat="47.51624" lon="6.72347">
        <ele>465</ele>
        <time>2014-03-30T10:20:19.247Z</time>
      </trkpt>
      <trkpt lat="47.51616" lon="6.7235">
        <ele>465</ele>
        <time>2014-03-30T10:20:24.280Z</time>
      </trkpt>
      <trkpt lat="47.51607" lon="6.72352">
        <ele>466</ele>
        <time>2014-03-30T10:20:29.241Z</time>
      </trkpt>
      <trkpt lat="47.51599" lon="6.72356">
        <ele>467</ele>
        <time>2014-03-30T10:20:34.310Z</time>
      </trkpt>
      <trkpt lat="47.51592" lon="6.7236">
        <ele>469</ele>
        <time>2014-03-30T10:20:39.245Z</time>
      </trkpt>
      <trkpt lat="47.51585" lon="6.72363">
        <ele>470</ele>
        <time>2014-03-30T10:20:44.312Z</time>
      </trkpt>
      <trkpt lat="47.51575" lon="6.72366">
        <ele>470</ele>
        <time>2014-03-30T10:20:49.248Z</time>
      </trkpt>
      <trkpt lat="47.51567" lon="6.7237">
        <ele>469</ele>
        <time>2014-03-30T10:20:54.311Z</time>
      </trkpt>
      <trkpt lat="47.51559" lon="6.72375">
        <ele>469</ele>
        <time>2014-03-30T10:20:59.245Z</time>
      </trkpt>
      <trkpt lat="47.51551" lon="6.72377">
        <ele>470</ele>
        <time>2014-03-30T10:21:04.314Z</time>
      </trkpt>
      <trkpt lat="47.51543" lon="6.72379">
        <ele>471</ele>
        <time>2014-03-30T10:21:09.324Z</time>
      </trkpt>
      <trkpt lat="47.51535" lon="6.72382">
        <ele>472</ele>
        <time>2014-03-30T10:21:14.253Z</time>
      </trkpt>
      <trkpt lat="47.51528" lon="6.72384">
        <ele>474</ele>
        <time>2014-03-30T10:21:19.254Z</time>
      </trkpt>
      <trkpt lat="47.5152" lon="6.72387">
        <ele>475</ele>
        <time>2014-03-30T10:21:24.270Z</time>
      </trkpt>
      <trkpt lat="47.51514" lon="6.72389">
        <ele>476</ele>
        <time>2014-03-30T10:21:29.315Z</time>
      </trkpt>
      <trkpt lat="47.51507" lon="6.72392">
        <ele>476</ele>
        <time>2014-03-30T10:21:34.298Z</time>
      </trkpt>
      <trkpt lat="47.515" lon="6.72394">
        <ele>478</ele>
        <time>2014-03-30T10:21:39.244Z</time>
      </trkpt>
      <trkpt lat="47.51494" lon="6.72395">
        <ele>478</ele>
        <time>2014-03-30T10:21:44.312Z</time>
      </trkpt>
      <trkpt lat="47.51488" lon="6.72397">
        <ele>479</ele>
        <time>2014-03-30T10:21:49.318Z</time>
      </trkpt>
      <trkpt lat="47.51481" lon="6.724">
        <ele>481</ele>
        <time>2014-03-30T10:21:54.396Z</time>
      </trkpt>
      <trkpt lat="47.51475" lon="6.72402">
        <ele>480</ele>
        <time>2014-03-30T10:21:59.317Z</time>
      </trkpt>
      <trkpt lat="47.51469" lon="6.72404">
        <ele>479</ele>
        <time>2014-03-30T10:22:04.252Z</time>
      </trkpt>
      <trkpt lat="47.51465" lon="6.72406">
        <ele>480</ele>
        <time>2014-03-30T10:22:09.310Z</time>
      </trkpt>
      <trkpt lat="47.51465" lon="6.72406">
        <ele>480</ele>
        <time>2014-03-30T10:22:14.260Z</time>
      </trkpt>
      <trkpt lat="47.51465" lon="6.72406">
        <ele>480</ele>
        <time>2014-03-30T10:22:19.314Z</time>
      </trkpt>
      <trkpt lat="47.51464" lon="6.72407">
        <ele>481</ele>
        <time>2014-03-30T10:22:24.244Z</time>
      </trkpt>
      <trkpt lat="47.51457" lon="6.72409">
        <ele>482</ele>
        <time>2014-03-30T10:22:29.300Z</time>
      </trkpt>
      <trkpt lat="47.5145" lon="6.72414">
        <ele>483</ele>
        <time>2014-03-30T10:22:34.310Z</time>
      </trkpt>
      <trkpt lat="47.51445" lon="6.72415">
        <ele>483</ele>
        <time>2014-03-30T10:22:39.247Z</time>
      </trkpt>
      <trkpt lat="47.51439" lon="6.72418">
        <ele>483</ele>
        <time>2014-03-30T10:22:44.249Z</time>
      </trkpt>
      <trkpt lat="47.51431" lon="6.72419">
        <ele>483</ele>
        <time>2014-03-30T10:22:49.312Z</time>
      </trkpt>
      <trkpt lat="47.51423" lon="6.72424">
        <ele>484</ele>
        <time>2014-03-30T10:22:54.251Z</time>
      </trkpt>
      <trkpt lat="47.51387" lon="6.72433">
        <ele>487</ele>
        <time>2014-03-30T10:23:19.317Z</time>
      </trkpt>
      <trkpt lat="47.51381" lon="6.72434">
        <ele>488</ele>
        <time>2014-03-30T10:23:24.243Z</time>
      </trkpt>
      <trkpt lat="47.51373" lon="6.72438">
        <ele>489</ele>
        <time>2014-03-30T10:23:29.232Z</time>
      </trkpt>
      <trkpt lat="47.51367" lon="6.72438">
        <ele>489</ele>
        <time>2014-03-30T10:23:34.317Z</time>
      </trkpt>
      <trkpt lat="47.51366" lon="6.7243">
        <ele>489</ele>
        <time>2014-03-30T10:23:39.245Z</time>
      </trkpt>
      <trkpt lat="47.51364" lon="6.72419">
        <ele>490</ele>
        <time>2014-03-30T10:23:44.313Z</time>
      </trkpt>
      <trkpt lat="47.51361" lon="6.72408">
        <ele>491</ele>
        <time>2014-03-30T10:23:49.247Z</time>
      </trkpt>
      <trkpt lat="47.51359" lon="6.724">
        <ele>492</ele>
        <time>2014-03-30T10:23:54.315Z</time>
      </trkpt>
      <trkpt lat="47.51357" lon="6.72385">
        <ele>492</ele>
        <time>2014-03-30T10:23:59.244Z</time>
      </trkpt>
      <trkpt lat="47.51355" lon="6.72372">
        <ele>493</ele>
        <time>2014-03-30T10:24:04.315Z</time>
      </trkpt>
      <trkpt lat="47.51351" lon="6.72354">
        <ele>493</ele>
        <time>2014-03-30T10:24:09.244Z</time>
      </trkpt>
      <trkpt lat="47.51347" lon="6.7234">
        <ele>494</ele>
        <time>2014-03-30T10:24:14.313Z</time>
      </trkpt>
      <trkpt lat="47.51346" lon="6.72326">
        <ele>494</ele>
        <time>2014-03-30T10:24:19.245Z</time>
      </trkpt>
      <trkpt lat="47.51344" lon="6.72314">
        <ele>494</ele>
        <time>2014-03-30T10:24:24.319Z</time>
      </trkpt>
      <trkpt lat="47.51342" lon="6.72299">
        <ele>495</ele>
        <time>2014-03-30T10:24:29.247Z</time>
      </trkpt>
      <trkpt lat="47.5134" lon="6.72281">
        <ele>496</ele>
        <time>2014-03-30T10:24:34.311Z</time>
      </trkpt>
      <trkpt lat="47.51339" lon="6.72266">
        <ele>497</ele>
        <time>2014-03-30T10:24:39.243Z</time>
      </trkpt>
      <trkpt lat="47.5134" lon="6.72248">
        <ele>497</ele>
        <time>2014-03-30T10:24:44.302Z</time>
      </trkpt>
      <trkpt lat="47.51341" lon="6.72227">
        <ele>497</ele>
        <time>2014-03-30T10:24:49.246Z</time>
      </trkpt>
      <trkpt lat="47.51341" lon="6.72208">
        <ele>497</ele>
        <time>2014-03-30T10:24:54.311Z</time>
      </trkpt>
      <trkpt lat="47.5134" lon="6.72194">
        <ele>497</ele>
        <time>2014-03-30T10:24:59.252Z</time>
      </trkpt>
      <trkpt lat="47.51339" lon="6.72181">
        <ele>497</ele>
        <time>2014-03-30T10:25:04.321Z</time>
      </trkpt>
      <trkpt lat="47.51336" lon="6.72164">
        <ele>497</ele>
        <time>2014-03-30T10:25:09.257Z</time>
      </trkpt>
      <trkpt lat="47.51333" lon="6.72145">
        <ele>500</ele>
        <time>2014-03-30T10:25:14.312Z</time>
      </trkpt>
      <trkpt lat="47.51336" lon="6.7213">
        <ele>501</ele>
        <time>2014-03-30T10:25:19.245Z</time>
      </trkpt>
      <trkpt lat="47.51333" lon="6.72122">
        <ele>500</ele>
        <time>2014-03-30T10:25:24.242Z</time>
      </trkpt>
      <trkpt lat="47.51328" lon="6.72127">
        <ele>496</ele>
        <time>2014-03-30T10:25:29.318Z</time>
      </trkpt>
      <trkpt lat="47.51325" lon="6.72129">
        <ele>495</ele>
        <time>2014-03-30T10:25:34.216Z</time>
      </trkpt>
      <trkpt lat="47.51321" lon="6.72134">
        <ele>497</ele>
        <time>2014-03-30T10:25:39.314Z</time>
      </trkpt>
      <trkpt lat="47.51321" lon="6.72134">
        <ele>497</ele>
        <time>2014-03-30T10:25:44.246Z</time>
      </trkpt>
      <trkpt lat="47.51321" lon="6.72134">
        <ele>497</ele>
        <time>2014-03-30T10:25:49.314Z</time>
      </trkpt>
      <trkpt lat="47.5132" lon="6.72132">
        <ele>499</ele>
        <time>2014-03-30T10:25:54.244Z</time>
      </trkpt>
      <trkpt lat="47.5132" lon="6.72132">
        <ele>499</ele>
        <time>2014-03-30T10:25:59.306Z</time>
      </trkpt>
      <trkpt lat="47.51318" lon="6.72135">
        <ele>501</ele>
        <time>2014-03-30T10:26:04.258Z</time>
      </trkpt>
      <trkpt lat="47.5132" lon="6.72132">
        <ele>501</ele>
        <time>2014-03-30T10:26:09.314Z</time>
      </trkpt>
      <trkpt lat="47.51326" lon="6.7213">
        <ele>498</ele>
        <time>2014-03-30T10:26:14.262Z</time>
      </trkpt>
      <trkpt lat="47.51333" lon="6.72135">
        <ele>497</ele>
        <time>2014-03-30T10:26:19.303Z</time>
      </trkpt>
      <trkpt lat="47.51335" lon="6.72146">
        <ele>497</ele>
        <time>2014-03-30T10:26:24.244Z</time>
      </trkpt>
      <trkpt lat="47.51336" lon="6.72159">
        <ele>496</ele>
        <time>2014-03-30T10:26:29.314Z</time>
      </trkpt>
      <trkpt lat="47.51338" lon="6.72176">
        <ele>496</ele>
        <time>2014-03-30T10:26:34.210Z</time>
      </trkpt>
      <trkpt lat="47.51341" lon="6.72202">
        <ele>496</ele>
        <time>2014-03-30T10:26:39.319Z</time>
      </trkpt>
      <trkpt lat="47.5134" lon="6.72226">
        <ele>496</ele>
        <time>2014-03-30T10:26:44.251Z</time>
      </trkpt>
      <trkpt lat="47.51338" lon="6.72248">
        <ele>496</ele>
        <time>2014-03-30T10:26:49.314Z</time>
      </trkpt>
      <trkpt lat="47.51339" lon="6.72266">
        <ele>495</ele>
        <time>2014-03-30T10:26:54.243Z</time>
      </trkpt>
      <trkpt lat="47.5134" lon="6.72287">
        <ele>494</ele>
        <time>2014-03-30T10:26:59.313Z</time>
      </trkpt>
      <trkpt lat="47.51342" lon="6.72308">
        <ele>493</ele>
        <time>2014-03-30T10:27:04.254Z</time>
      </trkpt>
      <trkpt lat="47.51344" lon="6.72329">
        <ele>493</ele>
        <time>2014-03-30T10:27:09.324Z</time>
      </trkpt>
      <trkpt lat="47.51346" lon="6.72349">
        <ele>492</ele>
        <time>2014-03-30T10:27:14.248Z</time>
      </trkpt>
      <trkpt lat="47.5135" lon="6.72371">
        <ele>489</ele>
        <time>2014-03-30T10:27:19.312Z</time>
      </trkpt>
      <trkpt lat="47.51354" lon="6.72394">
        <ele>490</ele>
        <time>2014-03-30T10:27:24.244Z</time>
      </trkpt>
      <trkpt lat="47.51361" lon="6.72417">
        <ele>488</ele>
        <time>2014-03-30T10:27:29.314Z</time>
      </trkpt>
      <trkpt lat="47.51365" lon="6.72435">
        <ele>488</ele>
        <time>2014-03-30T10:27:34.361Z</time>
      </trkpt>
      <trkpt lat="47.51366" lon="6.72439">
        <ele>489</ele>
        <time>2014-03-30T10:27:39.315Z</time>
      </trkpt>
      <trkpt lat="47.51366" lon="6.7244">
        <ele>490</ele>
        <time>2014-03-30T10:27:44.257Z</time>
      </trkpt>
      <trkpt lat="47.51364" lon="6.72441">
        <ele>490</ele>
        <time>2014-03-30T10:27:49.314Z</time>
      </trkpt>
      <trkpt lat="47.51364" lon="6.72442">
        <ele>491</ele>
        <time>2014-03-30T10:27:54.240Z</time>
      </trkpt>
      <trkpt lat="47.51365" lon="6.72448">
        <ele>492</ele>
        <time>2014-03-30T10:27:59.314Z</time>
      </trkpt>
      <trkpt lat="47.51372" lon="6.72465">
        <ele>491</ele>
        <time>2014-03-30T10:28:04.260Z</time>
      </trkpt>
      <trkpt lat="47.51377" lon="6.72492">
        <ele>492</ele>
        <time>2014-03-30T10:28:09.313Z</time>
      </trkpt>
      <trkpt lat="47.51382" lon="6.72513">
        <ele>491</ele>
        <time>2014-03-30T10:28:14.262Z</time>
      </trkpt>
      <trkpt lat="47.5138" lon="6.72519">
        <ele>490</ele>
        <time>2014-03-30T10:28:19.613Z</time>
      </trkpt>
      <trkpt lat="47.5138" lon="6.72518">
        <ele>491</ele>
        <time>2014-03-30T10:28:24.252Z</time>
      </trkpt>
      <trkpt lat="47.5138" lon="6.72518">
        <ele>491</ele>
        <time>2014-03-30T10:28:29.311Z</time>
      </trkpt>
      <trkpt lat="47.5138" lon="6.72518">
        <ele>490</ele>
        <time>2014-03-30T10:28:34.245Z</time>
      </trkpt>
      <trkpt lat="47.5138" lon="6.72519">
        <ele>490</ele>
        <time>2014-03-30T10:28:39.254Z</time>
      </trkpt>
      <trkpt lat="47.51381" lon="6.72518">
        <ele>490</ele>
        <time>2014-03-30T10:28:44.316Z</time>
      </trkpt>
      <trkpt lat="47.5138" lon="6.72517">
        <ele>490</ele>
        <time>2014-03-30T10:28:49.247Z</time>
      </trkpt>
      <trkpt lat="47.5138" lon="6.72517">
        <ele>491</ele>
        <time>2014-03-30T10:28:54.316Z</time>
      </trkpt>
      <trkpt lat="47.51379" lon="6.72516">
        <ele>492</ele>
        <time>2014-03-30T10:28:59.247Z</time>
      </trkpt>
      <trkpt lat="47.51381" lon="6.72518">
        <ele>492</ele>
        <time>2014-03-30T10:29:04.293Z</time>
      </trkpt>
      <trkpt lat="47.5138" lon="6.7251">
        <ele>493</ele>
        <time>2014-03-30T10:29:09.243Z</time>
      </trkpt>
      <trkpt lat="47.51373" lon="6.72485">
        <ele>492</ele>
        <time>2014-03-30T10:29:14.315Z</time>
      </trkpt>
      <trkpt lat="47.51367" lon="6.72458">
        <ele>492</ele>
        <time>2014-03-30T10:29:19.251Z</time>
      </trkpt>
      <trkpt lat="47.51361" lon="6.72437">
        <ele>493</ele>
        <time>2014-03-30T10:29:24.320Z</time>
      </trkpt>
      <trkpt lat="47.51357" lon="6.7241">
        <ele>494</ele>
        <time>2014-03-30T10:29:29.245Z</time>
      </trkpt>
      <trkpt lat="47.51353" lon="6.72383">
        <ele>495</ele>
        <time>2014-03-30T10:29:34.318Z</time>
      </trkpt>
      <trkpt lat="47.51348" lon="6.72359">
        <ele>495</ele>
        <time>2014-03-30T10:29:39.211Z</time>
      </trkpt>
      <trkpt lat="47.51345" lon="6.72337">
        <ele>495</ele>
        <time>2014-03-30T10:29:44.321Z</time>
      </trkpt>
      <trkpt lat="47.51343" lon="6.72314">
        <ele>495</ele>
        <time>2014-03-30T10:29:49.244Z</time>
      </trkpt>
      <trkpt lat="47.5134" lon="6.72291">
        <ele>495</ele>
        <time>2014-03-30T10:29:54.320Z</time>
      </trkpt>
      <trkpt lat="47.51338" lon="6.72266">
        <ele>496</ele>
        <time>2014-03-30T10:29:59.256Z</time>
      </trkpt>
      <trkpt lat="47.51336" lon="6.72239">
        <ele>498</ele>
        <time>2014-03-30T10:30:04.319Z</time>
      </trkpt>
      <trkpt lat="47.51337" lon="6.72192">
        <ele>496</ele>
        <time>2014-03-30T10:30:14.232Z</time>
      </trkpt>
      <trkpt lat="47.51337" lon="6.72172">
        <ele>497</ele>
        <time>2014-03-30T10:30:19.315Z</time>
      </trkpt>
      <trkpt lat="47.51334" lon="6.72148">
        <ele>497</ele>
        <time>2014-03-30T10:30:24.245Z</time>
      </trkpt>
      <trkpt lat="47.51335" lon="6.72128">
        <ele>497</ele>
        <time>2014-03-30T10:30:29.315Z</time>
      </trkpt>
      <trkpt lat="47.51329" lon="6.7213">
        <ele>495</ele>
        <time>2014-03-30T10:30:34.243Z</time>
      </trkpt>
      <trkpt lat="47.51322" lon="6.72132">
        <ele>495</ele>
        <time>2014-03-30T10:30:39.315Z</time>
      </trkpt>
      <trkpt lat="47.51312" lon="6.72135">
        <ele>496</ele>
        <time>2014-03-30T10:30:44.244Z</time>
      </trkpt>
      <trkpt lat="47.51304" lon="6.72136">
        <ele>496</ele>
        <time>2014-03-30T10:30:49.317Z</time>
      </trkpt>
      <trkpt lat="47.51295" lon="6.72142">
        <ele>495</ele>
        <time>2014-03-30T10:30:54.244Z</time>
      </trkpt>
      <trkpt lat="47.51289" lon="6.72142">
        <ele>495</ele>
        <time>2014-03-30T10:30:59.315Z</time>
      </trkpt>
      <trkpt lat="47.5128" lon="6.72147">
        <ele>495</ele>
        <time>2014-03-30T10:31:04.252Z</time>
      </trkpt>
      <trkpt lat="47.51271" lon="6.7215">
        <ele>497</ele>
        <time>2014-03-30T10:31:09.313Z</time>
      </trkpt>
      <trkpt lat="47.51261" lon="6.72153">
        <ele>497</ele>
        <time>2014-03-30T10:31:14.243Z</time>
      </trkpt>
      <trkpt lat="47.5125" lon="6.72162">
        <ele>498</ele>
        <time>2014-03-30T10:31:19.316Z</time>
      </trkpt>
      <trkpt lat="47.51241" lon="6.72169">
        <ele>499</ele>
        <time>2014-03-30T10:31:24.257Z</time>
      </trkpt>
      <trkpt lat="47.51235" lon="6.72177">
        <ele>499</ele>
        <time>2014-03-30T10:31:29.244Z</time>
      </trkpt>
      <trkpt lat="47.51226" lon="6.72192">
        <ele>499</ele>
        <time>2014-03-30T10:31:34.315Z</time>
      </trkpt>
      <trkpt lat="47.51224" lon="6.72223">
        <ele>500</ele>
        <time>2014-03-30T10:31:39.245Z</time>
      </trkpt>
      <trkpt lat="47.51229" lon="6.72253">
        <ele>500</ele>
        <time>2014-03-30T10:31:44.386Z</time>
      </trkpt>
      <trkpt lat="47.51228" lon="6.72286">
        <ele>500</ele>
        <time>2014-03-30T10:31:49.248Z</time>
      </trkpt>
      <trkpt lat="47.51223" lon="6.72325">
        <ele>499</ele>
        <time>2014-03-30T10:31:54.315Z</time>
      </trkpt>
      <trkpt lat="47.51166" lon="6.72501">
        <ele>497</ele>
        <time>2014-03-30T10:32:19.249Z</time>
      </trkpt>
      <trkpt lat="47.51175" lon="6.7252">
        <ele>495</ele>
        <time>2014-03-30T10:32:24.316Z</time>
      </trkpt>
      <trkpt lat="47.51168" lon="6.72542">
        <ele>496</ele>
        <time>2014-03-30T10:32:29.250Z</time>
      </trkpt>
      <trkpt lat="47.51164" lon="6.72547">
        <ele>497</ele>
        <time>2014-03-30T10:32:34.314Z</time>
      </trkpt>
      <trkpt lat="47.51164" lon="6.72546">
        <ele>496</ele>
        <time>2014-03-30T10:32:39.258Z</time>
      </trkpt>
      <trkpt lat="47.51162" lon="6.72545">
        <ele>495</ele>
        <time>2014-03-30T10:32:44.313Z</time>
      </trkpt>
      <trkpt lat="47.51162" lon="6.72545">
        <ele>495</ele>
        <time>2014-03-30T10:32:49.247Z</time>
      </trkpt>
      <trkpt lat="47.51162" lon="6.72545">
        <ele>495</ele>
        <time>2014-03-30T10:32:54.316Z</time>
      </trkpt>
      <trkpt lat="47.51162" lon="6.72545">
        <ele>496</ele>
        <time>2014-03-30T10:32:59.320Z</time>
      </trkpt>
      <trkpt lat="47.51157" lon="6.72546">
        <ele>496</ele>
        <time>2014-03-30T10:33:04.219Z</time>
      </trkpt>
      <trkpt lat="47.51143" lon="6.72572">
        <ele>496</ele>
        <time>2014-03-30T10:33:09.285Z</time>
      </trkpt>
      <trkpt lat="47.51112" lon="6.7261">
        <ele>495</ele>
        <time>2014-03-30T10:33:14.245Z</time>
      </trkpt>
      <trkpt lat="47.51079" lon="6.72637">
        <ele>495</ele>
        <time>2014-03-30T10:33:19.315Z</time>
      </trkpt>
      <trkpt lat="47.5105" lon="6.72663">
        <ele>496</ele>
        <time>2014-03-30T10:33:24.244Z</time>
      </trkpt>
      <trkpt lat="47.51032" lon="6.72678">
        <ele>496</ele>
        <time>2014-03-30T10:33:29.315Z</time>
      </trkpt>
      <trkpt lat="47.51018" lon="6.7269">
        <ele>497</ele>
        <time>2014-03-30T10:33:34.247Z</time>
      </trkpt>
      <trkpt lat="47.51006" lon="6.72702">
        <ele>498</ele>
        <time>2014-03-30T10:33:39.315Z</time>
      </trkpt>
      <trkpt lat="47.50995" lon="6.72707">
        <ele>498</ele>
        <time>2014-03-30T10:33:44.243Z</time>
      </trkpt>
      <trkpt lat="47.50982" lon="6.72718">
        <ele>498</ele>
        <time>2014-03-30T10:33:49.307Z</time>
      </trkpt>
      <trkpt lat="47.50968" lon="6.72734">
        <ele>497</ele>
        <time>2014-03-30T10:33:54.243Z</time>
      </trkpt>
      <trkpt lat="47.50955" lon="6.72749">
        <ele>496</ele>
        <time>2014-03-30T10:33:59.314Z</time>
      </trkpt>
      <trkpt lat="47.50947" lon="6.72771">
        <ele>496</ele>
        <time>2014-03-30T10:34:04.244Z</time>
      </trkpt>
      <trkpt lat="47.50937" lon="6.7279">
        <ele>495</ele>
        <time>2014-03-30T10:34:09.324Z</time>
      </trkpt>
      <trkpt lat="47.50927" lon="6.72815">
        <ele>493</ele>
        <time>2014-03-30T10:34:14.250Z</time>
      </trkpt>
      <trkpt lat="47.50918" lon="6.72841">
        <ele>490</ele>
        <time>2014-03-30T10:34:19.313Z</time>
      </trkpt>
      <trkpt lat="47.50911" lon="6.72872">
        <ele>490</ele>
        <time>2014-03-30T10:34:24.243Z</time>
      </trkpt>
      <trkpt lat="47.50901" lon="6.72905">
        <ele>491</ele>
        <time>2014-03-30T10:34:29.315Z</time>
      </trkpt>
      <trkpt lat="47.50896" lon="6.72936">
        <ele>493</ele>
        <time>2014-03-30T10:34:34.248Z</time>
      </trkpt>
      <trkpt lat="47.50888" lon="6.72969">
        <ele>494</ele>
        <time>2014-03-30T10:34:39.310Z</time>
      </trkpt>
      <trkpt lat="47.50878" lon="6.73005">
        <ele>494</ele>
        <time>2014-03-30T10:34:44.247Z</time>
      </trkpt>
      <trkpt lat="47.50868" lon="6.73052">
        <ele>495</ele>
        <time>2014-03-30T10:34:49.312Z</time>
      </trkpt>
      <trkpt lat="47.50866" lon="6.73095">
        <ele>492</ele>
        <time>2014-03-30T10:34:54.245Z</time>
      </trkpt>
      <trkpt lat="47.50665" lon="6.73476">
        <ele>461</ele>
        <time>2014-03-30T10:35:39.302Z</time>
      </trkpt>
      <trkpt lat="47.50651" lon="6.73502">
        <ele>456</ele>
        <time>2014-03-30T10:35:44.253Z</time>
      </trkpt>
      <trkpt lat="47.50645" lon="6.73532">
        <ele>451</ele>
        <time>2014-03-30T10:35:49.303Z</time>
      </trkpt>
      <trkpt lat="47.50628" lon="6.73543">
        <ele>448</ele>
        <time>2014-03-30T10:35:54.242Z</time>
      </trkpt>
      <trkpt lat="47.50622" lon="6.73565">
        <ele>443</ele>
        <time>2014-03-30T10:35:59.240Z</time>
      </trkpt>
      <trkpt lat="47.50624" lon="6.73572">
        <ele>442</ele>
        <time>2014-03-30T10:36:04.316Z</time>
      </trkpt>
      <trkpt lat="47.50625" lon="6.73573">
        <ele>441</ele>
        <time>2014-03-30T10:36:09.255Z</time>
      </trkpt>
      <trkpt lat="47.50625" lon="6.73573">
        <ele>441</ele>
        <time>2014-03-30T10:36:14.314Z</time>
      </trkpt>
      <trkpt lat="47.50624" lon="6.73572">
        <ele>440</ele>
        <time>2014-03-30T10:36:19.241Z</time>
      </trkpt>
      <trkpt lat="47.50623" lon="6.73574">
        <ele>439</ele>
        <time>2014-03-30T10:36:24.314Z</time>
      </trkpt>
      <trkpt lat="47.50623" lon="6.73574">
        <ele>440</ele>
        <time>2014-03-30T10:36:29.243Z</time>
      </trkpt>
      <trkpt lat="47.50623" lon="6.73574">
        <ele>440</ele>
        <time>2014-03-30T10:36:34.317Z</time>
      </trkpt>
      <trkpt lat="47.50623" lon="6.73574">
        <ele>440</ele>
        <time>2014-03-30T10:36:39.247Z</time>
      </trkpt>
      <trkpt lat="47.50623" lon="6.73574">
        <ele>439</ele>
        <time>2014-03-30T10:36:44.313Z</time>
      </trkpt>
      <trkpt lat="47.50623" lon="6.73574">
        <ele>439</ele>
        <time>2014-03-30T10:36:49.241Z</time>
      </trkpt>
      <trkpt lat="47.50623" lon="6.73574">
        <ele>440</ele>
        <time>2014-03-30T10:36:54.316Z</time>
      </trkpt>
      <trkpt lat="47.50623" lon="6.73574">
        <ele>440</ele>
        <time>2014-03-30T10:36:59.318Z</time>
      </trkpt>
      <trkpt lat="47.50623" lon="6.73574">
        <ele>440</ele>
        <time>2014-03-30T10:37:04.238Z</time>
      </trkpt>
      <trkpt lat="47.50623" lon="6.73574">
        <ele>440</ele>
        <time>2014-03-30T10:37:09.315Z</time>
      </trkpt>
      <trkpt lat="47.50623" lon="6.73574">
        <ele>439</ele>
        <time>2014-03-30T10:37:14.236Z</time>
      </trkpt>
      <trkpt lat="47.50622" lon="6.73575">
        <ele>439</ele>
        <time>2014-03-30T10:37:19.305Z</time>
      </trkpt>
      <trkpt lat="47.50622" lon="6.73575">
        <ele>439</ele>
        <time>2014-03-30T10:37:24.238Z</time>
      </trkpt>
      <trkpt lat="47.50622" lon="6.73574">
        <ele>439</ele>
        <time>2014-03-30T10:37:29.313Z</time>
      </trkpt>
      <trkpt lat="47.50621" lon="6.73578">
        <ele>438</ele>
        <time>2014-03-30T10:37:34.250Z</time>
      </trkpt>
      <trkpt lat="47.50621" lon="6.73578">
        <ele>438</ele>
        <time>2014-03-30T10:37:39.314Z</time>
      </trkpt>
      <trkpt lat="47.50621" lon="6.73578">
        <ele>438</ele>
        <time>2014-03-30T10:37:44.255Z</time>
      </trkpt>
      <trkpt lat="47.50621" lon="6.73578">
        <ele>438</ele>
        <time>2014-03-30T10:37:49.242Z</time>
      </trkpt>
      <trkpt lat="47.50621" lon="6.73578">
        <ele>438</ele>
        <time>2014-03-30T10:37:54.313Z</time>
      </trkpt>
      <trkpt lat="47.50621" lon="6.73578">
        <ele>438</ele>
        <time>2014-03-30T10:37:59.554Z</time>
      </trkpt>
      <trkpt lat="47.50621" lon="6.73578">
        <ele>438</ele>
        <time>2014-03-30T10:38:04.546Z</time>
      </trkpt>
      <trkpt lat="47.50621" lon="6.73578">
        <ele>438</ele>
        <time>2014-03-30T10:38:09.315Z</time>
      </trkpt>
      <trkpt lat="47.50622" lon="6.73583">
        <ele>438</ele>
        <time>2014-03-30T10:38:14.254Z</time>
      </trkpt>
      <trkpt lat="47.50637" lon="6.73593">
        <ele>438</ele>
        <time>2014-03-30T10:38:19.313Z</time>
      </trkpt>
      <trkpt lat="47.50654" lon="6.73617">
        <ele>436</ele>
        <time>2014-03-30T10:38:24.240Z</time>
      </trkpt>
      <trkpt lat="47.50662" lon="6.73647">
        <ele>434</ele>
        <time>2014-03-30T10:38:29.314Z</time>
      </trkpt>
      <trkpt lat="47.50661" lon="6.73685">
        <ele>432</ele>
        <time>2014-03-30T10:38:34.243Z</time>
      </trkpt>
      <trkpt lat="47.5066" lon="6.73729">
        <ele>432</ele>
        <time>2014-03-30T10:38:39.313Z</time>
      </trkpt>
      <trkpt lat="47.50658" lon="6.73773">
        <ele>431</ele>
        <time>2014-03-30T10:38:44.246Z</time>
      </trkpt>
      <trkpt lat="47.50657" lon="6.73811">
        <ele>430</ele>
        <time>2014-03-30T10:38:49.242Z</time>
      </trkpt>
      <trkpt lat="47.5065" lon="6.73851">
        <ele>428</ele>
        <time>2014-03-30T10:38:54.321Z</time>
      </trkpt>
      <trkpt lat="47.50638" lon="6.73891">
        <ele>426</ele>
        <time>2014-03-30T10:38:59.242Z</time>
      </trkpt>
      <trkpt lat="47.50618" lon="6.73934">
        <ele>424</ele>
        <time>2014-03-30T10:39:04.312Z</time>
      </trkpt>
      <trkpt lat="47.506" lon="6.73976">
        <ele>424</ele>
        <time>2014-03-30T10:39:09.248Z</time>
      </trkpt>
      <trkpt lat="47.5058" lon="6.74019">
        <ele>421</ele>
        <time>2014-03-30T10:39:14.322Z</time>
      </trkpt>
      <trkpt lat="47.50561" lon="6.7406">
        <ele>420</ele>
        <time>2014-03-30T10:39:19.256Z</time>
      </trkpt>
      <trkpt lat="47.50542" lon="6.741">
        <ele>418</ele>
        <time>2014-03-30T10:39:24.246Z</time>
      </trkpt>
      <trkpt lat="47.50527" lon="6.74134">
        <ele>418</ele>
        <time>2014-03-30T10:39:29.313Z</time>
      </trkpt>
      <trkpt lat="47.50513" lon="6.74165">
        <ele>419</ele>
        <time>2014-03-30T10:39:34.246Z</time>
      </trkpt>
      <trkpt lat="47.50502" lon="6.7419">
        <ele>421</ele>
        <time>2014-03-30T10:39:39.314Z</time>
      </trkpt>
      <trkpt lat="47.50493" lon="6.74214">
        <ele>422</ele>
        <time>2014-03-30T10:39:44.247Z</time>
      </trkpt>
      <trkpt lat="47.50482" lon="6.74236">
        <ele>423</ele>
        <time>2014-03-30T10:39:49.316Z</time>
      </trkpt>
      <trkpt lat="47.50467" lon="6.74262">
        <ele>426</ele>
        <time>2014-03-30T10:39:54.243Z</time>
      </trkpt>
      <trkpt lat="47.50451" lon="6.74293">
        <ele>427</ele>
        <time>2014-03-30T10:39:59.322Z</time>
      </trkpt>
      <trkpt lat="47.50437" lon="6.74327">
        <ele>427</ele>
        <time>2014-03-30T10:40:04.262Z</time>
      </trkpt>
      <trkpt lat="47.50423" lon="6.74358">
        <ele>426</ele>
        <time>2014-03-30T10:40:09.281Z</time>
      </trkpt>
      <trkpt lat="47.50411" lon="6.74386">
        <ele>425</ele>
        <time>2014-03-30T10:40:14.244Z</time>
      </trkpt>
      <trkpt lat="47.50398" lon="6.74416">
        <ele>424</ele>
        <time>2014-03-30T10:40:19.316Z</time>
      </trkpt>
      <trkpt lat="47.50382" lon="6.74454">
        <ele>424</ele>
        <time>2014-03-30T10:40:24.239Z</time>
      </trkpt>
      <trkpt lat="47.50375" lon="6.74498">
        <ele>422</ele>
        <time>2014-03-30T10:40:29.303Z</time>
      </trkpt>
      <trkpt lat="47.50385" lon="6.74543">
        <ele>421</ele>
        <time>2014-03-30T10:40:34.229Z</time>
      </trkpt>
      <trkpt lat="47.50398" lon="6.74614">
        <ele>420</ele>
        <time>2014-03-30T10:40:44.242Z</time>
      </trkpt>
      <trkpt lat="47.50402" lon="6.74652">
        <ele>420</ele>
        <time>2014-03-30T10:40:49.315Z</time>
      </trkpt>
      <trkpt lat="47.50406" lon="6.74691">
        <ele>420</ele>
        <time>2014-03-30T10:40:54.242Z</time>
      </trkpt>
      <trkpt lat="47.50404" lon="6.74722">
        <ele>419</ele>
        <time>2014-03-30T10:40:59.320Z</time>
      </trkpt>
      <trkpt lat="47.50448" lon="6.74825">
        <ele>419</ele>
        <time>2014-03-30T10:41:19.318Z</time>
      </trkpt>
      <trkpt lat="47.50472" lon="6.74842">
        <ele>419</ele>
        <time>2014-03-30T10:41:24.244Z</time>
      </trkpt>
      <trkpt lat="47.50499" lon="6.74869">
        <ele>418</ele>
        <time>2014-03-30T10:41:29.314Z</time>
      </trkpt>
      <trkpt lat="47.50521" lon="6.74915">
        <ele>416</ele>
        <time>2014-03-30T10:41:34.246Z</time>
      </trkpt>
      <trkpt lat="47.50521" lon="6.74979">
        <ele>413</ele>
        <time>2014-03-30T10:41:39.317Z</time>
      </trkpt>
      <trkpt lat="47.50512" lon="6.75052">
        <ele>405</ele>
        <time>2014-03-30T10:41:44.243Z</time>
      </trkpt>
      <trkpt lat="47.50513" lon="6.75115">
        <ele>398</ele>
        <time>2014-03-30T10:41:49.324Z</time>
      </trkpt>
      <trkpt lat="47.50506" lon="6.75153">
        <ele>394</ele>
        <time>2014-03-30T10:41:54.240Z</time>
      </trkpt>
      <trkpt lat="47.50491" lon="6.75162">
        <ele>391</ele>
        <time>2014-03-30T10:41:59.316Z</time>
      </trkpt>
      <trkpt lat="47.50486" lon="6.75164">
        <ele>392</ele>
        <time>2014-03-30T10:42:09.304Z</time>
      </trkpt>
      <trkpt lat="47.50486" lon="6.75164">
        <ele>392</ele>
        <time>2014-03-30T10:42:14.244Z</time>
      </trkpt>
      <trkpt lat="47.50486" lon="6.75164">
        <ele>392</ele>
        <time>2014-03-30T10:42:19.313Z</time>
      </trkpt>
      <trkpt lat="47.50485" lon="6.75167">
        <ele>392</ele>
        <time>2014-03-30T10:42:24.245Z</time>
      </trkpt>
      <trkpt lat="47.50486" lon="6.75197">
        <ele>393</ele>
        <time>2014-03-30T10:42:29.316Z</time>
      </trkpt>
      <trkpt lat="47.50491" lon="6.75235">
        <ele>394</ele>
        <time>2014-03-30T10:42:34.240Z</time>
      </trkpt>
      <trkpt lat="47.50496" lon="6.7527">
        <ele>393</ele>
        <time>2014-03-30T10:42:39.315Z</time>
      </trkpt>
      <trkpt lat="47.505" lon="6.75301">
        <ele>392</ele>
        <time>2014-03-30T10:42:44.231Z</time>
      </trkpt>
      <trkpt lat="47.50503" lon="6.75332">
        <ele>391</ele>
        <time>2014-03-30T10:42:49.304Z</time>
      </trkpt>
      <trkpt lat="47.50513" lon="6.75359">
        <ele>392</ele>
        <time>2014-03-30T10:42:54.252Z</time>
      </trkpt>
      <trkpt lat="47.50531" lon="6.75374">
        <ele>393</ele>
        <time>2014-03-30T10:42:59.291Z</time>
      </trkpt>
      <trkpt lat="47.50551" lon="6.75383">
        <ele>393</ele>
        <time>2014-03-30T10:43:04.318Z</time>
      </trkpt>
      <trkpt lat="47.5057" lon="6.75388">
        <ele>393</ele>
        <time>2014-03-30T10:43:09.244Z</time>
      </trkpt>
      <trkpt lat="47.50589" lon="6.7539">
        <ele>395</ele>
        <time>2014-03-30T10:43:14.243Z</time>
      </trkpt>
      <trkpt lat="47.50605" lon="6.75391">
        <ele>396</ele>
        <time>2014-03-30T10:43:19.313Z</time>
      </trkpt>
      <trkpt lat="47.50623" lon="6.75393">
        <ele>399</ele>
        <time>2014-03-30T10:43:24.243Z</time>
      </trkpt>
      <trkpt lat="47.50637" lon="6.75398">
        <ele>402</ele>
        <time>2014-03-30T10:43:29.321Z</time>
      </trkpt>
      <trkpt lat="47.50652" lon="6.75401">
        <ele>404</ele>
        <time>2014-03-30T10:43:34.243Z</time>
      </trkpt>
      <trkpt lat="47.50665" lon="6.75412">
        <ele>401</ele>
        <time>2014-03-30T10:43:39.308Z</time>
      </trkpt>
      <trkpt lat="47.50676" lon="6.75424">
        <ele>400</ele>
        <time>2014-03-30T10:43:44.243Z</time>
      </trkpt>
      <trkpt lat="47.50684" lon="6.75438">
        <ele>400</ele>
        <time>2014-03-30T10:43:49.313Z</time>
      </trkpt>
      <trkpt lat="47.5069" lon="6.75452">
        <ele>401</ele>
        <time>2014-03-30T10:43:54.244Z</time>
      </trkpt>
      <trkpt lat="47.50695" lon="6.75468">
        <ele>401</ele>
        <time>2014-03-30T10:43:59.315Z</time>
      </trkpt>
      <trkpt lat="47.50699" lon="6.75485">
        <ele>402</ele>
        <time>2014-03-30T10:44:04.317Z</time>
      </trkpt>
      <trkpt lat="47.50706" lon="6.755">
        <ele>402</ele>
        <time>2014-03-30T10:44:09.247Z</time>
      </trkpt>
      <trkpt lat="47.5071" lon="6.75517">
        <ele>402</ele>
        <time>2014-03-30T10:44:14.319Z</time>
      </trkpt>
      <trkpt lat="47.50714" lon="6.75535">
        <ele>404</ele>
        <time>2014-03-30T10:44:19.245Z</time>
      </trkpt>
      <trkpt lat="47.50716" lon="6.75555">
        <ele>404</ele>
        <time>2014-03-30T10:44:24.313Z</time>
      </trkpt>
      <trkpt lat="47.50721" lon="6.75572">
        <ele>406</ele>
        <time>2014-03-30T10:44:29.256Z</time>
      </trkpt>
      <trkpt lat="47.50723" lon="6.75588">
        <ele>407</ele>
        <time>2014-03-30T10:44:34.312Z</time>
      </trkpt>
      <trkpt lat="47.50724" lon="6.75604">
        <ele>407</ele>
        <time>2014-03-30T10:44:39.240Z</time>
      </trkpt>
      <trkpt lat="47.50725" lon="6.75619">
        <ele>408</ele>
        <time>2014-03-30T10:44:44.315Z</time>
      </trkpt>
      <trkpt lat="47.50725" lon="6.75636">
        <ele>409</ele>
        <time>2014-03-30T10:44:49.257Z</time>
      </trkpt>
      <trkpt lat="47.50724" lon="6.75653">
        <ele>409</ele>
        <time>2014-03-30T10:44:54.314Z</time>
      </trkpt>
      <trkpt lat="47.50724" lon="6.75671">
        <ele>409</ele>
        <time>2014-03-30T10:44:59.257Z</time>
      </trkpt>
      <trkpt lat="47.50724" lon="6.75689">
        <ele>410</ele>
        <time>2014-03-30T10:45:04.315Z</time>
      </trkpt>
      <trkpt lat="47.50725" lon="6.75702">
        <ele>411</ele>
        <time>2014-03-30T10:45:09.241Z</time>
      </trkpt>
      <trkpt lat="47.50725" lon="6.75718">
        <ele>412</ele>
        <time>2014-03-30T10:45:14.315Z</time>
      </trkpt>
      <trkpt lat="47.50726" lon="6.75734">
        <ele>414</ele>
        <time>2014-03-30T10:45:19.242Z</time>
      </trkpt>
      <trkpt lat="47.50728" lon="6.75749">
        <ele>414</ele>
        <time>2014-03-30T10:45:24.315Z</time>
      </trkpt>
      <trkpt lat="47.50728" lon="6.75765">
        <ele>413</ele>
        <time>2014-03-30T10:45:29.249Z</time>
      </trkpt>
      <trkpt lat="47.5073" lon="6.75781">
        <ele>415</ele>
        <time>2014-03-30T10:45:34.317Z</time>
      </trkpt>
      <trkpt lat="47.50733" lon="6.75796">
        <ele>417</ele>
        <time>2014-03-30T10:45:39.241Z</time>
      </trkpt>
      <trkpt lat="47.50733" lon="6.75811">
        <ele>419</ele>
        <time>2014-03-30T10:45:44.315Z</time>
      </trkpt>
      <trkpt lat="47.50734" lon="6.75827">
        <ele>420</ele>
        <time>2014-03-30T10:45:49.246Z</time>
      </trkpt>
      <trkpt lat="47.50734" lon="6.75839">
        <ele>422</ele>
        <time>2014-03-30T10:45:54.314Z</time>
      </trkpt>
      <trkpt lat="47.50733" lon="6.75856">
        <ele>424</ele>
        <time>2014-03-30T10:45:59.242Z</time>
      </trkpt>
      <trkpt lat="47.50732" lon="6.75872">
        <ele>425</ele>
        <time>2014-03-30T10:46:04.315Z</time>
      </trkpt>
      <trkpt lat="47.50731" lon="6.75889">
        <ele>425</ele>
        <time>2014-03-30T10:46:09.317Z</time>
      </trkpt>
      <trkpt lat="47.5073" lon="6.75906">
        <ele>426</ele>
        <time>2014-03-30T10:46:14.250Z</time>
      </trkpt>
      <trkpt lat="47.5073" lon="6.75919">
        <ele>427</ele>
        <time>2014-03-30T10:46:19.296Z</time>
      </trkpt>
      <trkpt lat="47.50729" lon="6.75933">
        <ele>429</ele>
        <time>2014-03-30T10:46:24.242Z</time>
      </trkpt>
      <trkpt lat="47.50727" lon="6.7595">
        <ele>429</ele>
        <time>2014-03-30T10:46:29.289Z</time>
      </trkpt>
      <trkpt lat="47.50725" lon="6.75966">
        <ele>431</ele>
        <time>2014-03-30T10:46:34.245Z</time>
      </trkpt>
      <trkpt lat="47.50725" lon="6.75981">
        <ele>434</ele>
        <time>2014-03-30T10:46:39.317Z</time>
      </trkpt>
      <trkpt lat="47.50729" lon="6.76001">
        <ele>435</ele>
        <time>2014-03-30T10:46:44.242Z</time>
      </trkpt>
      <trkpt lat="47.50734" lon="6.76021">
        <ele>436</ele>
        <time>2014-03-30T10:46:49.316Z</time>
      </trkpt>
      <trkpt lat="47.50733" lon="6.76036">
        <ele>435</ele>
        <time>2014-03-30T10:46:54.242Z</time>
      </trkpt>
      <trkpt lat="47.50729" lon="6.76054">
        <ele>434</ele>
        <time>2014-03-30T10:46:59.318Z</time>
      </trkpt>
      <trkpt lat="47.50726" lon="6.76076">
        <ele>435</ele>
        <time>2014-03-30T10:47:04.243Z</time>
      </trkpt>
      <trkpt lat="47.50725" lon="6.76097">
        <ele>437</ele>
        <time>2014-03-30T10:47:09.317Z</time>
      </trkpt>
      <trkpt lat="47.5073" lon="6.76115">
        <ele>440</ele>
        <time>2014-03-30T10:47:14.251Z</time>
      </trkpt>
      <trkpt lat="47.5073" lon="6.76132">
        <ele>439</ele>
        <time>2014-03-30T10:47:19.320Z</time>
      </trkpt>
      <trkpt lat="47.50735" lon="6.76151">
        <ele>438</ele>
        <time>2014-03-30T10:47:24.241Z</time>
      </trkpt>
      <trkpt lat="47.50734" lon="6.76172">
        <ele>440</ele>
        <time>2014-03-30T10:47:29.314Z</time>
      </trkpt>
      <trkpt lat="47.50739" lon="6.76187">
        <ele>441</ele>
        <time>2014-03-30T10:47:34.242Z</time>
      </trkpt>
      <trkpt lat="47.50738" lon="6.76216">
        <ele>441</ele>
        <time>2014-03-30T10:47:39.314Z</time>
      </trkpt>
      <trkpt lat="47.5074" lon="6.76241">
        <ele>441</ele>
        <time>2014-03-30T10:47:44.248Z</time>
      </trkpt>
      <trkpt lat="47.50745" lon="6.76262">
        <ele>441</ele>
        <time>2014-03-30T10:47:49.314Z</time>
      </trkpt>
      <trkpt lat="47.50751" lon="6.76279">
        <ele>441</ele>
        <time>2014-03-30T10:47:54.240Z</time>
      </trkpt>
      <trkpt lat="47.50757" lon="6.76296">
        <ele>441</ele>
        <time>2014-03-30T10:47:59.314Z</time>
      </trkpt>
      <trkpt lat="47.50763" lon="6.76313">
        <ele>442</ele>
        <time>2014-03-30T10:48:04.242Z</time>
      </trkpt>
      <trkpt lat="47.50768" lon="6.76328">
        <ele>442</ele>
        <time>2014-03-30T10:48:09.313Z</time>
      </trkpt>
      <trkpt lat="47.50773" lon="6.7634">
        <ele>443</ele>
        <time>2014-03-30T10:48:14.243Z</time>
      </trkpt>
      <trkpt lat="47.5078" lon="6.76351">
        <ele>444</ele>
        <time>2014-03-30T10:48:19.316Z</time>
      </trkpt>
      <trkpt lat="47.50784" lon="6.76364">
        <ele>445</ele>
        <time>2014-03-30T10:48:24.241Z</time>
      </trkpt>
      <trkpt lat="47.50788" lon="6.76373">
        <ele>446</ele>
        <time>2014-03-30T10:48:29.304Z</time>
      </trkpt>
      <trkpt lat="47.5079" lon="6.76385">
        <ele>447</ele>
        <time>2014-03-30T10:48:34.240Z</time>
      </trkpt>
      <trkpt lat="47.50794" lon="6.76397">
        <ele>449</ele>
        <time>2014-03-30T10:48:39.313Z</time>
      </trkpt>
      <trkpt lat="47.50796" lon="6.76409">
        <ele>449</ele>
        <time>2014-03-30T10:48:44.251Z</time>
      </trkpt>
      <trkpt lat="47.50798" lon="6.76421">
        <ele>449</ele>
        <time>2014-03-30T10:48:49.318Z</time>
      </trkpt>
      <trkpt lat="47.50801" lon="6.76433">
        <ele>450</ele>
        <time>2014-03-30T10:48:54.253Z</time>
      </trkpt>
      <trkpt lat="47.50823" lon="6.76499">
        <ele>453</ele>
        <time>2014-03-30T10:49:19.322Z</time>
      </trkpt>
      <trkpt lat="47.50817" lon="6.76517">
        <ele>454</ele>
        <time>2014-03-30T10:49:24.240Z</time>
      </trkpt>
      <trkpt lat="47.50813" lon="6.76536">
        <ele>454</ele>
        <time>2014-03-30T10:49:29.314Z</time>
      </trkpt>
      <trkpt lat="47.50819" lon="6.76562">
        <ele>455</ele>
        <time>2014-03-30T10:49:34.250Z</time>
      </trkpt>
      <trkpt lat="47.50824" lon="6.76591">
        <ele>455</ele>
        <time>2014-03-30T10:49:39.243Z</time>
      </trkpt>
      <trkpt lat="47.50836" lon="6.76625">
        <ele>455</ele>
        <time>2014-03-30T10:49:44.323Z</time>
      </trkpt>
      <trkpt lat="47.50853" lon="6.76665">
        <ele>454</ele>
        <time>2014-03-30T10:49:49.243Z</time>
      </trkpt>
      <trkpt lat="47.5087" lon="6.76707">
        <ele>453</ele>
        <time>2014-03-30T10:49:54.318Z</time>
      </trkpt>
      <trkpt lat="47.50886" lon="6.76753">
        <ele>450</ele>
        <time>2014-03-30T10:49:59.249Z</time>
      </trkpt>
      <trkpt lat="47.50904" lon="6.76798">
        <ele>448</ele>
        <time>2014-03-30T10:50:04.685Z</time>
      </trkpt>
      <trkpt lat="47.50918" lon="6.76835">
        <ele>447</ele>
        <time>2014-03-30T10:50:09.239Z</time>
      </trkpt>
      <trkpt lat="47.50959" lon="6.76892">
        <ele>445</ele>
        <time>2014-03-30T10:50:19.243Z</time>
      </trkpt>
      <trkpt lat="47.50987" lon="6.76901">
        <ele>444</ele>
        <time>2014-03-30T10:50:24.317Z</time>
      </trkpt>
      <trkpt lat="47.51009" lon="6.76926">
        <ele>443</ele>
        <time>2014-03-30T10:50:29.246Z</time>
      </trkpt>
      <trkpt lat="47.5103" lon="6.7694">
        <ele>442</ele>
        <time>2014-03-30T10:50:34.313Z</time>
      </trkpt>
      <trkpt lat="47.5105" lon="6.76956">
        <ele>441</ele>
        <time>2014-03-30T10:50:39.287Z</time>
      </trkpt>
      <trkpt lat="47.5107" lon="6.76974">
        <ele>442</ele>
        <time>2014-03-30T10:50:44.249Z</time>
      </trkpt>
      <trkpt lat="47.51089" lon="6.7699">
        <ele>442</ele>
        <time>2014-03-30T10:50:49.315Z</time>
      </trkpt>
      <trkpt lat="47.51107" lon="6.77005">
        <ele>443</ele>
        <time>2014-03-30T10:50:54.244Z</time>
      </trkpt>
      <trkpt lat="47.51123" lon="6.7701">
        <ele>443</ele>
        <time>2014-03-30T10:50:59.320Z</time>
      </trkpt>
      <trkpt lat="47.51179" lon="6.77099">
        <ele>445</ele>
        <time>2014-03-30T10:51:19.319Z</time>
      </trkpt>
      <trkpt lat="47.51194" lon="6.77125">
        <ele>445</ele>
        <time>2014-03-30T10:51:24.251Z</time>
      </trkpt>
      <trkpt lat="47.51206" lon="6.77151">
        <ele>446</ele>
        <time>2014-03-30T10:51:29.314Z</time>
      </trkpt>
      <trkpt lat="47.51218" lon="6.77174">
        <ele>446</ele>
        <time>2014-03-30T10:51:34.247Z</time>
      </trkpt>
      <trkpt lat="47.5123" lon="6.77199">
        <ele>446</ele>
        <time>2014-03-30T10:51:39.303Z</time>
      </trkpt>
      <trkpt lat="47.51242" lon="6.77223">
        <ele>447</ele>
        <time>2014-03-30T10:51:44.246Z</time>
      </trkpt>
      <trkpt lat="47.51255" lon="6.77246">
        <ele>448</ele>
        <time>2014-03-30T10:51:49.314Z</time>
      </trkpt>
      <trkpt lat="47.51272" lon="6.77263">
        <ele>448</ele>
        <time>2014-03-30T10:51:54.245Z</time>
      </trkpt>
      <trkpt lat="47.51294" lon="6.77275">
        <ele>448</ele>
        <time>2014-03-30T10:51:59.316Z</time>
      </trkpt>
      <trkpt lat="47.5132" lon="6.77286">
        <ele>448</ele>
        <time>2014-03-30T10:52:04.250Z</time>
      </trkpt>
      <trkpt lat="47.51346" lon="6.7728">
        <ele>446</ele>
        <time>2014-03-30T10:52:09.350Z</time>
      </trkpt>
      <trkpt lat="47.51379" lon="6.77256">
        <ele>446</ele>
        <time>2014-03-30T10:52:14.313Z</time>
      </trkpt>
      <trkpt lat="47.5142" lon="6.77233">
        <ele>444</ele>
        <time>2014-03-30T10:52:19.358Z</time>
      </trkpt>
      <trkpt lat="47.51459" lon="6.77215">
        <ele>445</ele>
        <time>2014-03-30T10:52:24.251Z</time>
      </trkpt>
      <trkpt lat="47.51484" lon="6.77217">
        <ele>445</ele>
        <time>2014-03-30T10:52:29.416Z</time>
      </trkpt>
      <trkpt lat="47.51488" lon="6.77254">
        <ele>443</ele>
        <time>2014-03-30T10:52:34.346Z</time>
      </trkpt>
      <trkpt lat="47.51488" lon="6.77294">
        <ele>442</ele>
        <time>2014-03-30T10:52:39.417Z</time>
      </trkpt>
      <trkpt lat="47.51501" lon="6.7732">
        <ele>443</ele>
        <time>2014-03-30T10:52:44.248Z</time>
      </trkpt>
      <trkpt lat="47.51518" lon="6.77335">
        <ele>444</ele>
        <time>2014-03-30T10:52:49.414Z</time>
      </trkpt>
      <trkpt lat="47.5153" lon="6.77348">
        <ele>444</ele>
        <time>2014-03-30T10:52:54.344Z</time>
      </trkpt>
      <trkpt lat="47.51543" lon="6.77364">
        <ele>445</ele>
        <time>2014-03-30T10:52:59.414Z</time>
      </trkpt>
      <trkpt lat="47.51555" lon="6.77377">
        <ele>446</ele>
        <time>2014-03-30T10:53:04.349Z</time>
      </trkpt>
      <trkpt lat="47.51567" lon="6.7739">
        <ele>446</ele>
        <time>2014-03-30T10:53:09.415Z</time>
      </trkpt>
      <trkpt lat="47.51579" lon="6.77405">
        <ele>447</ele>
        <time>2014-03-30T10:53:14.355Z</time>
      </trkpt>
      <trkpt lat="47.5159" lon="6.77419">
        <ele>448</ele>
        <time>2014-03-30T10:53:19.415Z</time>
      </trkpt>
      <trkpt lat="47.51602" lon="6.77433">
        <ele>450</ele>
        <time>2014-03-30T10:53:24.344Z</time>
      </trkpt>
      <trkpt lat="47.51612" lon="6.77448">
        <ele>450</ele>
        <time>2014-03-30T10:53:29.401Z</time>
      </trkpt>
      <trkpt lat="47.5162" lon="6.77462">
        <ele>451</ele>
        <time>2014-03-30T10:53:34.344Z</time>
      </trkpt>
      <trkpt lat="47.51629" lon="6.77474">
        <ele>452</ele>
        <time>2014-03-30T10:53:39.414Z</time>
      </trkpt>
      <trkpt lat="47.51641" lon="6.77484">
        <ele>454</ele>
        <time>2014-03-30T10:53:44.350Z</time>
      </trkpt>
      <trkpt lat="47.51653" lon="6.77498">
        <ele>454</ele>
        <time>2014-03-30T10:53:49.414Z</time>
      </trkpt>
      <trkpt lat="47.51663" lon="6.7751">
        <ele>453</ele>
        <time>2014-03-30T10:53:54.343Z</time>
      </trkpt>
      <trkpt lat="47.51675" lon="6.77524">
        <ele>455</ele>
        <time>2014-03-30T10:53:59.415Z</time>
      </trkpt>
      <trkpt lat="47.51686" lon="6.77537">
        <ele>455</ele>
        <time>2014-03-30T10:54:04.327Z</time>
      </trkpt>
      <trkpt lat="47.51696" lon="6.77552">
        <ele>456</ele>
        <time>2014-03-30T10:54:09.415Z</time>
      </trkpt>
      <trkpt lat="47.5171" lon="6.7755">
        <ele>457</ele>
        <time>2014-03-30T10:54:14.356Z</time>
      </trkpt>
      <trkpt lat="47.51719" lon="6.77535">
        <ele>457</ele>
        <time>2014-03-30T10:54:19.403Z</time>
      </trkpt>
      <trkpt lat="47.51725" lon="6.77511">
        <ele>458</ele>
        <time>2014-03-30T10:54:24.344Z</time>
      </trkpt>
      <trkpt lat="47.5173" lon="6.77485">
        <ele>458</ele>
        <time>2014-03-30T10:54:29.412Z</time>
      </trkpt>
      <trkpt lat="47.51747" lon="6.77484">
        <ele>459</ele>
        <time>2014-03-30T10:54:34.415Z</time>
      </trkpt>
      <trkpt lat="47.51769" lon="6.77486">
        <ele>459</ele>
        <time>2014-03-30T10:54:39.351Z</time>
      </trkpt>
      <trkpt lat="47.5179" lon="6.77492">
        <ele>458</ele>
        <time>2014-03-30T10:54:44.416Z</time>
      </trkpt>
      <trkpt lat="47.51807" lon="6.77498">
        <ele>457</ele>
        <time>2014-03-30T10:54:49.342Z</time>
      </trkpt>
      <trkpt lat="47.51809" lon="6.77493">
        <ele>456</ele>
        <time>2014-03-30T10:54:54.414Z</time>
      </trkpt>
      <trkpt lat="47.51808" lon="6.77489">
        <ele>456</ele>
        <time>2014-03-30T10:54:59.354Z</time>
      </trkpt>
      <trkpt lat="47.51806" lon="6.77482">
        <ele>456</ele>
        <time>2014-03-30T10:55:04.418Z</time>
      </trkpt>
      <trkpt lat="47.51806" lon="6.77483">
        <ele>456</ele>
        <time>2014-03-30T10:55:09.343Z</time>
      </trkpt>
      <trkpt lat="47.51806" lon="6.77483">
        <ele>456</ele>
        <time>2014-03-30T10:55:14.417Z</time>
      </trkpt>
      <trkpt lat="47.51806" lon="6.77483">
        <ele>456</ele>
        <time>2014-03-30T10:55:19.343Z</time>
      </trkpt>
      <trkpt lat="47.51806" lon="6.77483">
        <ele>457</ele>
        <time>2014-03-30T10:55:24.422Z</time>
      </trkpt>
      <trkpt lat="47.51806" lon="6.77484">
        <ele>457</ele>
        <time>2014-03-30T10:55:29.354Z</time>
      </trkpt>
      <trkpt lat="47.51807" lon="6.77484">
        <ele>458</ele>
        <time>2014-03-30T10:55:34.323Z</time>
      </trkpt>
      <trkpt lat="47.51809" lon="6.77476">
        <ele>459</ele>
        <time>2014-03-30T10:55:44.349Z</time>
      </trkpt>
      <trkpt lat="47.51809" lon="6.77466">
        <ele>461</ele>
        <time>2014-03-30T10:55:49.422Z</time>
      </trkpt>
      <trkpt lat="47.51808" lon="6.77464">
        <ele>461</ele>
        <time>2014-03-30T10:55:54.355Z</time>
      </trkpt>
      <trkpt lat="47.51808" lon="6.77464">
        <ele>461</ele>
        <time>2014-03-30T10:55:59.416Z</time>
      </trkpt>
      <trkpt lat="47.51808" lon="6.77464">
        <ele>461</ele>
        <time>2014-03-30T10:56:04.356Z</time>
      </trkpt>
      <trkpt lat="47.51808" lon="6.77464">
        <ele>461</ele>
        <time>2014-03-30T10:56:09.417Z</time>
      </trkpt>
      <trkpt lat="47.51809" lon="6.77461">
        <ele>462</ele>
        <time>2014-03-30T10:56:14.354Z</time>
      </trkpt>
      <trkpt lat="47.51806" lon="6.77458">
        <ele>460</ele>
        <time>2014-03-30T10:56:19.416Z</time>
      </trkpt>
      <trkpt lat="47.51806" lon="6.77458">
        <ele>460</ele>
        <time>2014-03-30T10:56:24.350Z</time>
      </trkpt>
      <trkpt lat="47.51806" lon="6.77461">
        <ele>459</ele>
        <time>2014-03-30T10:56:29.417Z</time>
      </trkpt>
      <trkpt lat="47.51808" lon="6.77462">
        <ele>458</ele>
        <time>2014-03-30T10:56:34.347Z</time>
      </trkpt>
      <trkpt lat="47.51808" lon="6.77462">
        <ele>458</ele>
        <time>2014-03-30T10:56:39.415Z</time>
      </trkpt>
      <trkpt lat="47.51808" lon="6.77463">
        <ele>458</ele>
        <time>2014-03-30T10:56:44.345Z</time>
      </trkpt>
      <trkpt lat="47.51806" lon="6.77461">
        <ele>458</ele>
        <time>2014-03-30T10:56:49.415Z</time>
      </trkpt>
      <trkpt lat="47.51808" lon="6.77468">
        <ele>458</ele>
        <time>2014-03-30T10:56:54.319Z</time>
      </trkpt>
      <trkpt lat="47.5181" lon="6.77475">
        <ele>458</ele>
        <time>2014-03-30T10:56:59.409Z</time>
      </trkpt>
      <trkpt lat="47.51806" lon="6.7748">
        <ele>458</ele>
        <time>2014-03-30T10:57:04.346Z</time>
      </trkpt>
      <trkpt lat="47.51804" lon="6.7748">
        <ele>458</ele>
        <time>2014-03-30T10:57:09.422Z</time>
      </trkpt>
      <trkpt lat="47.51801" lon="6.77482">
        <ele>457</ele>
        <time>2014-03-30T10:57:14.353Z</time>
      </trkpt>
      <trkpt lat="47.51801" lon="6.77483">
        <ele>457</ele>
        <time>2014-03-30T10:57:19.422Z</time>
      </trkpt>
      <trkpt lat="47.51799" lon="6.77487">
        <ele>457</ele>
        <time>2014-03-30T10:57:24.338Z</time>
      </trkpt>
      <trkpt lat="47.51801" lon="6.77489">
        <ele>458</ele>
        <time>2014-03-30T10:57:29.421Z</time>
      </trkpt>
      <trkpt lat="47.51801" lon="6.7749">
        <ele>459</ele>
        <time>2014-03-30T10:57:34.342Z</time>
      </trkpt>
      <trkpt lat="47.51798" lon="6.77489">
        <ele>458</ele>
        <time>2014-03-30T10:57:39.412Z</time>
      </trkpt>
      <trkpt lat="47.51796" lon="6.77489">
        <ele>458</ele>
        <time>2014-03-30T10:57:44.346Z</time>
      </trkpt>
      <trkpt lat="47.51798" lon="6.77489">
        <ele>458</ele>
        <time>2014-03-30T10:57:49.414Z</time>
      </trkpt>
      <trkpt lat="47.51794" lon="6.77492">
        <ele>458</ele>
        <time>2014-03-30T10:57:54.340Z</time>
      </trkpt>
      <trkpt lat="47.51795" lon="6.77495">
        <ele>459</ele>
        <time>2014-03-30T10:57:59.345Z</time>
      </trkpt>
      <trkpt lat="47.51795" lon="6.77499">
        <ele>461</ele>
        <time>2014-03-30T10:58:04.418Z</time>
      </trkpt>
      <trkpt lat="47.51794" lon="6.77503">
        <ele>462</ele>
        <time>2014-03-30T10:58:09.349Z</time>
      </trkpt>
      <trkpt lat="47.51795" lon="6.77499">
        <ele>463</ele>
        <time>2014-03-30T10:58:14.415Z</time>
      </trkpt>
      <trkpt lat="47.51797" lon="6.77497">
        <ele>463</ele>
        <time>2014-03-30T10:58:19.343Z</time>
      </trkpt>
      <trkpt lat="47.51798" lon="6.77495">
        <ele>462</ele>
        <time>2014-03-30T10:58:24.414Z</time>
      </trkpt>
      <trkpt lat="47.51797" lon="6.77494">
        <ele>462</ele>
        <time>2014-03-30T10:58:29.309Z</time>
      </trkpt>
      <trkpt lat="47.51799" lon="6.77486">
        <ele>461</ele>
        <time>2014-03-30T10:58:34.376Z</time>
      </trkpt>
      <trkpt lat="47.51801" lon="6.77484">
        <ele>461</ele>
        <time>2014-03-30T10:58:39.392Z</time>
      </trkpt>
      <trkpt lat="47.51802" lon="6.7748">
        <ele>461</ele>
        <time>2014-03-30T10:58:44.311Z</time>
      </trkpt>
    </trkseg>
  </trk>
</gpx>